ECMWFNIL_sfc_temp_000.txt.gz
Temp
89 89 89 89 89 89 89 88 89 88 87 88 88 88 87 88 88 88 87 87 86 86 85 85 85 84 85 84 84 83 83 83 84 84 83 82 82 82 82 82 82 82
89 89 88 89 89 89 89 89 88 88 88 87 88 89 88 88 88 88 87 86 86 86 85 85 85 84 84 85 84 83 83 83 82 85 82 81 81 82 82 82 82 82
90 89 89 89 90 89 91 90 89 89 89 88 88 87 88 88 88 87 87 86 85 86 85 85 85 84 84 84 84 83 83 82 81 85 82 81 82 81 81 85 84 81
89 89 90 90 90 90 90 89 89 88 89 88 87 87 87 88 88 87 86 85 85 84 85 85 85 85 84 84 83 83 83 83 84 84 83 81 81 81 81 82 82 82
89 89 90 91 91 90 90 89 89 89 89 88 87 85 84 85 86 87 86 85 84 85 85 84 84 84 84 84 83 83 83 83 84 83 82 82 82 82 82 82 81 81
89 90 89 90 90 89 89 89 89 89 89 88 86 86 85 85 86 86 85 85 86 86 85 85 84 84 84 84 83 82 83 83 84 84 82 82 82 83 84 82 81 80
89 89 89 90 90 89 88 88 88 87 87 87 85 83 84 83 84 83 83 83 84 85 84 83 82 82 83 83 82 81 82 82 82 82 81 81 81 81 83 83 81 81
89 89 89 89 89 89 88 88 87 85 84 83 82 82 82 81 80 81 82 82 82 82 82 82 82 81 83 82 81 81 81 82 82 81 80 81 81 81 81 82 82 81
89 89 88 88 88 88 88 88 85 83 83 81 79 80 80 80 79 80 80 80 80 80 80 81 80 81 81 82 81 81 81 81 82 82 81 81 81 80 81 82 82 81
89 88 89 90 89 89 88 85 83 84 82 75 71 74 77 76 76 77 77 77 77 78 78 79 80 80 81 81 81 81 81 80 80 81 81 82 81 81 82 81 81 81
88 89 89 88 88 88 87 86 85 82 78 74 73 73 73 73 73 74 74 74 74 75 76 77 79 80 80 80 80 81 81 81 81 81 81 81 81 81 81 81 81 81
88 88 86 85 84 84 83 83 83 79 77 72 71 72 72 72 72 71 71 71 72 74 75 77 78 79 79 80 81 81 81 81 81 81 82 82 82 82 82 82 81 81
87 82 78 77 82 81 78 77 78 77 75 71 70 70 70 71 73 72 71 71 72 73 74 76 77 79 79 80 81 81 81 80 80 81 81 82 82 83 84 83 83 82
84 81 79 78 81 81 77 74 73 72 74 74 72 71 72 73 73 72 71 71 72 74 75 77 77 79 79 80 80 81 81 80 80 80 81 81 82 83 83 82 83 84
82 81 81 78 75 74 72 72 73 72 73 74 74 74 74 74 73 72 71 72 74 74 75 77 78 79 80 79 78 78 79 79 79 80 80 80 81 83 83 82 82 83
81 80 77 75 73 72 73 73 73 72 73 73 74 74 74 72 72 72 73 73 74 75 76 77 78 79 74 70 73 77 77 77 78 79 80 81 80 80 81 81 81 82
79 78 77 76 77 77 76 76 75 73 73 73 73 73 73 73 72 73 74 75 76 77 77 78 78 78 69 65 67 69 75 77 77 78 79 78 78 77 76 78 79 78
79 77 77 77 77 77 77 77 77 77 76 76 76 75 75 76 76 75 76 77 78 79 80 79 79 70 65 65 65 65 67 74 76 77 77 78 77 76 76 76 76 76
78 77 77 77 77 77 77 78 78 78 78 78 77 77 78 77 77 77 77 78 79 79 80 81 82 69 64 64 64 63 63 66 71 73 74 75 76 76 76 75 75 76
78 77 76 76 77 77 77 78 78 78 78 79 79 78 77 78 78 77 78 77 78 79 79 81 82 67 62 61 62 62 63 66 70 70 72 73 73 73 75 75 76 75
78 77 76 76 77 78 78 78 78 78 78 78 80 80 78 78 78 77 78 78 79 80 79 79 81 63 63 61 60 60 61 67 72 72 72 71 72 74 74 75 75 75
79 78 77 77 77 78 78 78 79 79 79 80 80 81 81 82 80 80 79 79 80 80 80 78 80 61 62 61 60 60 61 69 71 70 71 73 75 76 76 76 75 75
79 77 77 77 78 78 78 79 79 79 80 81 80 81 81 81 80 81 80 80 78 78 78 78 78 65 60 59 59 59 64 75 75 74 74 73 74 76 76 76 76 73
78 77 76 77 78 78 78 80 81 81 81 81 80 81 82 82 83 80 80 79 78 77 79 79 80 67 58 57 57 57 67 76 75 74 71 70 71 75 75 73 72 69
78 77 77 77 77 78 79 79 80 80 81 81 82 82 82 82 81 80 78 77 80 80 74 78 81 72 55 57 56 57 67 75 71 70 70 71 69 71 73 72 70 68
80 78 78 78 78 78 78 78 80 81 81 81 82 83 83 82 81 81 79 80 81 81 80 81 82 81 69 55 55 55 61 74 75 73 71 70 71 71 72 71 73 69

ECMWFNIL_sfc_temp_003.txt.gz
Temp
90 90 89 89 89 90 89 89 90 89 89 90 89 88 88 87 89 90 89 88 88 87 87 86 86 85 85 85 84 84 84 84 84 85 84 84 84 84 84 84 84 83
90 90 89 90 89 90 89 90 89 89 88 89 89 87 89 88 90 89 88 88 87 87 86 86 85 84 84 85 84 84 83 83 83 86 84 83 83 83 84 83 83 83
91 90 90 90 90 90 92 90 90 89 89 89 89 89 89 90 89 88 89 88 87 87 86 85 85 84 84 84 85 84 83 82 82 86 84 83 83 82 82 85 85 84
90 91 91 91 91 90 91 90 89 88 89 88 88 89 89 89 88 89 88 87 86 86 86 86 85 85 84 84 84 83 83 83 84 84 83 83 82 82 81 82 83 83
91 91 91 91 91 90 90 89 89 89 88 88 89 88 87 87 87 87 86 85 84 85 85 85 85 84 84 83 83 82 83 83 83 82 82 82 83 83 83 82 81 81
91 91 90 91 91 90 90 90 88 85 88 90 88 88 88 87 86 85 84 84 85 86 85 86 85 85 84 83 82 82 82 83 83 83 82 81 82 84 85 84 82 81
92 91 91 92 92 91 89 89 88 87 88 87 86 86 86 85 84 83 82 81 83 83 84 83 83 83 83 83 81 80 80 81 82 82 82 82 82 82 83 82 82 81
92 93 92 92 91 90 89 89 88 86 87 84 85 83 83 82 81 83 82 81 81 80 81 82 82 82 84 82 81 80 81 82 81 80 80 80 81 80 81 82 82 81
92 92 91 91 89 90 92 91 90 87 84 83 81 81 82 82 81 82 81 80 80 79 81 82 82 81 82 82 81 80 80 81 82 81 80 80 80 80 81 81 81 80
91 91 92 94 93 92 91 91 88 85 83 84 84 83 80 80 81 81 81 80 80 80 80 81 81 81 81 81 80 80 80 80 80 81 82 82 81 81 82 81 81 80
92 93 92 92 92 93 92 91 87 85 85 87 85 81 80 79 79 80 80 80 80 79 79 79 80 80 80 81 81 81 81 81 81 80 81 81 81 80 80 81 81 81
91 93 92 92 93 93 92 89 88 86 87 86 83 79 78 78 79 79 80 79 79 79 79 79 80 80 80 80 82 83 82 82 82 81 81 81 81 81 80 81 80 80
91 91 90 92 91 91 89 88 88 89 89 88 87 84 82 80 80 80 80 80 79 79 79 79 80 80 80 80 80 81 81 81 81 82 82 82 82 82 83 82 80 79
91 90 90 90 90 89 87 87 87 87 87 86 85 84 84 83 82 81 81 81 81 81 80 80 80 80 80 80 80 81 81 81 81 80 81 80 79 80 80 81 80 81
90 90 90 89 87 87 85 84 84 84 85 84 82 83 84 84 84 83 81 80 81 81 80 81 80 80 81 80 80 80 81 81 80 79 79 78 78 79 78 78 79 80
89 88 87 86 86 85 84 84 84 84 84 83 82 83 83 83 83 83 84 81 80 80 80 81 81 82 76 70 73 81 81 81 80 78 78 77 77 77 78 78 79 81
86 85 86 84 83 83 83 83 84 84 83 82 82 82 83 83 84 84 85 84 82 81 81 81 81 81 70 67 68 70 79 80 79 78 77 76 76 75 75 78 79 80
84 84 83 82 82 82 83 83 84 84 83 82 82 82 82 84 83 83 83 83 82 83 82 82 83 72 66 66 67 67 71 80 81 79 78 76 75 75 75 76 77 78
84 84 83 82 82 82 83 83 83 84 83 83 83 84 84 82 82 82 81 82 82 81 82 83 85 69 64 65 66 66 67 75 81 80 78 77 77 76 76 75 75 75
85 85 85 83 83 83 83 83 83 83 83 84 85 84 82 82 82 81 80 80 81 81 81 83 84 68 64 63 65 64 66 69 79 79 78 78 79 78 76 75 75 75
84 84 83 83 83 83 83 83 83 82 83 83 85 84 82 81 81 80 80 81 81 81 81 82 85 64 64 63 63 62 63 68 78 78 78 78 78 77 76 76 77 76
85 84 83 83 83 82 82 82 82 82 82 82 84 85 85 84 83 83 81 81 80 80 80 80 83 60 63 61 61 61 61 72 77 77 77 77 77 76 76 77 77 73
84 83 83 82 82 82 83 83 82 81 82 83 83 84 85 84 83 85 83 82 80 79 79 78 82 64 60 59 60 59 63 75 77 78 77 77 77 77 75 74 72 70
83 83 82 82 82 82 82 83 84 84 84 84 83 84 86 87 86 84 83 81 80 81 83 81 83 67 57 58 58 57 65 76 77 77 77 76 77 76 74 73 74 71
84 83 83 82 82 82 83 82 83 83 85 85 86 86 85 86 86 83 82 80 83 84 76 80 83 68 56 58 57 56 65 77 78 77 76 76 76 74 74 74 74 72
84 83 83 82 82 82 82 83 84 84 84 83 84 85 85 85 84 83 82 83 84 82 80 80 80 76 66 57 56 55 59 75 78 74 73 74 75 75 73 72 73 72

ECMWFNIL_sfc_temp_006.txt.gz
Temp
86 86 86 85 85 86 85 84 85 85 83 84 84 84 83 84 86 84 84 83 82 82 82 82 81 82 82 81 80 80 79 80 80 79 79 79 78 79 81 80 80 78
86 86 85 86 85 86 85 86 85 84 84 84 84 84 84 84 85 85 84 84 83 83 82 83 81 81 80 80 79 79 78 79 79 82 80 80 80 80 81 80 80 79
87 86 86 86 87 87 89 87 85 85 85 85 84 84 84 85 84 84 83 83 82 83 82 81 81 80 80 80 79 79 79 78 78 81 80 79 79 78 79 81 80 80
86 87 87 88 88 87 87 86 85 85 86 84 83 85 86 86 85 84 83 84 82 82 82 82 81 81 80 80 80 79 79 78 79 79 79 79 79 79 78 79 79 78
87 87 87 88 87 87 86 86 87 85 86 85 85 84 83 83 83 84 83 82 82 82 81 81 81 81 80 79 79 78 79 79 79 79 78 77 78 78 78 77 77 77
87 87 87 87 87 86 86 86 85 86 86 86 84 85 85 84 83 83 83 83 83 83 82 82 81 82 81 79 79 78 79 79 79 78 77 76 78 79 80 78 76 76
88 87 87 88 88 87 85 85 85 85 86 85 84 84 84 83 82 82 82 82 82 82 82 80 80 80 80 79 78 77 78 78 79 78 77 77 77 78 80 79 78 78
88 89 88 88 88 86 86 86 86 84 85 84 84 84 84 84 82 83 82 82 82 80 80 80 80 79 81 80 78 77 78 79 79 78 78 78 78 77 78 79 78 76
89 88 88 87 88 87 88 88 86 85 85 84 85 85 84 84 83 83 81 81 81 80 80 80 79 80 80 79 78 78 77 78 79 78 77 77 77 77 77 78 77 76
88 88 90 90 90 89 89 89 88 87 86 85 85 86 84 83 83 82 81 80 80 80 79 79 79 80 79 79 79 78 77 77 77 78 78 78 78 77 78 77 77 76
89 90 90 89 90 91 90 91 90 89 87 86 86 85 85 83 82 82 80 80 80 79 79 79 80 79 79 79 79 79 78 78 78 78 78 78 78 78 79 77 77 77
89 91 90 90 90 90 91 91 91 89 88 87 87 85 84 83 82 81 80 79 79 79 79 79 79 79 78 79 80 79 78 78 78 78 78 78 78 78 78 78 77 77
90 89 88 90 89 89 88 89 90 91 90 87 87 86 85 82 81 81 80 80 79 79 79 79 79 79 78 78 78 78 77 77 78 78 78 78 78 79 79 79 78 78
90 88 88 88 88 87 87 88 88 88 88 86 85 85 85 82 81 80 80 80 79 79 79 79 79 79 78 78 77 77 77 77 77 78 78 78 78 78 79 80 79 79
88 88 88 87 87 86 86 86 86 86 86 85 84 85 84 83 82 81 80 79 80 80 79 80 79 79 78 78 76 77 77 78 78 78 78 77 77 78 78 78 77 77
87 87 87 87 86 86 85 85 85 85 84 84 84 84 83 82 81 81 81 80 79 79 79 79 79 79 74 70 73 77 77 78 78 77 77 77 76 76 77 77 77 77
87 87 87 86 86 86 85 85 85 85 83 83 83 83 83 81 81 81 80 80 80 79 79 79 79 78 68 67 69 72 76 77 77 76 77 77 76 75 75 75 75 75
87 87 86 86 86 85 85 85 85 84 83 83 83 83 82 82 80 78 76 79 80 80 80 79 79 71 65 66 68 68 71 77 78 77 77 76 76 76 75 75 75 75
87 86 86 86 85 86 85 85 83 83 83 83 83 82 82 80 78 78 78 80 79 78 79 79 80 67 64 65 67 66 68 73 78 78 77 76 76 76 75 75 74 74
87 86 86 85 85 85 84 83 82 82 83 84 84 82 81 81 81 80 80 79 78 78 77 79 80 65 64 64 65 65 67 70 78 77 77 77 77 76 76 75 74 73
86 85 85 84 83 83 82 82 82 82 83 83 84 82 81 80 81 80 79 80 80 80 80 79 81 62 63 63 64 64 65 68 77 77 77 76 76 76 75 74 74 74
84 84 82 82 82 82 82 82 82 82 82 82 82 83 82 82 82 81 79 79 80 79 80 79 78 60 63 62 62 63 64 70 75 75 75 75 75 76 75 75 75 75
85 84 83 82 82 82 82 82 81 82 82 82 82 82 83 82 81 82 79 80 79 79 78 78 75 63 61 61 61 61 64 72 74 74 74 74 74 75 75 75 74 75
85 84 84 83 82 82 81 82 83 83 82 82 82 82 83 84 82 81 80 80 79 79 80 78 78 64 59 59 60 59 65 73 73 73 73 73 74 73 70 70 74 76
84 84 83 83 82 82 82 82 83 82 83 83 83 83 83 82 82 82 81 81 82 80 75 78 81 67 56 58 57 57 66 74 73 73 73 73 72 71 70 69 72 73
85 83 83 83 82 82 82 83 83 83 82 82 82 83 83 84 83 83 81 80 81 80 80 81 79 69 61 56 56 56 61 74 74 73 72 72 73 72 71 72 73 72

ECMWFNIL_sfc_temp_009.txt.gz
Temp
82 81 81 81 81 80 80 79 79 79 79 79 79 79 79 80 80 80 79 77 77 78 77 76 75 75 76 75 75 75 74 73 74 73 73 72 71 72 73 72 72 70
82 82 82 82 81 80 80 81 80 80 79 79 79 79 79 80 80 80 78 77 78 78 77 76 75 74 74 74 74 74 73 73 73 75 73 73 72 72 73 72 72 71
82 81 81 81 81 81 81 81 81 80 80 80 80 79 79 81 79 80 78 78 77 77 76 76 75 74 74 73 73 74 73 71 72 75 73 73 72 73 73 73 72 73
82 82 82 82 82 81 82 81 81 80 81 80 80 80 81 81 79 79 78 79 77 76 76 76 75 74 74 74 73 72 72 71 71 72 72 73 73 73 72 72 72 72
82 82 83 83 83 82 82 81 81 81 81 81 81 80 80 79 77 79 78 78 76 76 76 75 75 74 74 73 73 72 71 72 71 71 70 70 71 73 73 73 70 70
83 83 83 82 82 82 82 81 81 81 81 81 80 81 80 80 78 78 77 77 77 77 76 76 75 75 74 73 73 73 72 72 72 71 71 70 70 73 74 72 71 70
82 82 83 83 83 83 82 81 82 82 82 81 80 80 79 79 78 78 77 77 77 77 76 75 74 74 74 73 72 71 72 72 72 72 71 71 70 71 72 72 71 71
83 83 83 83 83 82 82 82 82 81 82 80 80 79 79 79 78 78 78 77 77 76 76 75 74 74 75 74 73 72 71 73 73 72 71 71 70 69 70 72 71 70
83 83 83 83 83 83 83 83 82 82 82 81 80 80 79 79 78 78 77 77 77 76 75 75 75 74 75 74 74 73 72 72 73 72 71 71 71 71 71 71 70 70
83 83 83 83 83 83 83 83 83 83 82 81 80 80 79 79 79 78 77 77 76 75 75 75 75 75 74 74 74 74 73 72 72 72 71 71 71 71 71 70 70 69
83 84 83 83 83 84 84 84 84 84 82 82 81 80 80 79 78 78 77 76 76 76 75 75 75 75 74 74 74 74 74 73 73 72 71 71 71 71 73 70 70 69
83 84 84 84 84 84 84 84 85 83 83 82 81 80 79 79 78 78 77 76 77 76 76 76 75 75 75 75 75 74 74 74 73 72 72 72 72 72 72 71 71 71
84 84 84 84 84 84 84 84 84 85 84 82 82 82 80 79 78 77 77 77 76 76 76 76 75 75 74 74 74 74 73 73 73 72 72 72 72 72 73 72 72 71
84 84 84 84 84 84 84 84 84 83 83 82 82 81 81 79 79 78 77 77 77 76 76 76 75 75 74 74 74 74 73 73 73 72 72 72 72 72 72 72 72 72
84 84 84 84 84 83 83 83 83 83 82 81 81 81 81 81 80 78 77 76 76 76 76 76 76 75 75 75 74 73 73 73 72 72 72 71 71 71 71 72 71 72
84 84 84 83 83 83 83 83 83 82 81 81 80 81 80 80 79 78 77 76 76 75 75 75 75 76 72 68 70 74 73 73 72 72 71 71 70 70 71 71 72 72
84 84 84 83 83 83 82 82 82 82 81 80 79 80 80 79 78 77 77 77 76 75 75 75 75 76 67 65 68 70 73 72 72 72 71 70 70 70 70 70 71 70
84 83 83 83 82 82 82 82 81 81 80 80 78 78 78 78 77 77 77 77 76 76 75 75 75 70 65 64 66 67 70 73 72 71 72 70 70 70 70 70 69 70
84 83 83 83 82 82 82 81 81 80 80 80 79 79 77 76 76 76 76 76 76 75 75 74 75 68 63 64 64 64 66 70 71 71 71 71 70 70 70 69 69 69
84 84 83 83 82 82 82 81 80 80 81 81 79 77 76 76 75 75 75 75 75 75 75 75 75 63 62 62 63 63 65 68 72 71 71 71 71 70 70 70 69 69
84 83 83 82 82 82 81 81 80 80 80 79 79 78 76 75 74 74 74 75 75 74 74 73 76 61 60 60 60 61 63 66 72 72 71 70 71 71 70 70 70 70
84 83 83 82 82 82 81 81 80 79 78 78 77 77 75 73 75 76 75 74 75 75 75 73 76 60 61 60 60 61 62 68 71 70 70 70 70 70 70 70 70 69
85 84 82 82 82 81 81 81 79 78 78 77 75 73 73 73 75 77 76 76 75 75 75 74 73 61 60 59 59 60 63 69 70 69 69 69 69 69 69 70 70 69
85 84 82 82 82 81 81 80 80 79 78 76 75 75 75 76 77 76 76 77 76 75 76 74 72 61 58 58 59 60 64 70 69 69 68 68 68 68 68 68 70 75
84 84 83 82 81 81 81 79 79 78 77 77 77 77 77 77 77 76 75 76 77 76 74 74 72 62 56 59 59 59 64 70 68 68 68 67 67 67 67 67 68 72
84 83 82 81 80 80 80 79 79 78 77 77 77 78 77 77 76 76 75 75 75 74 74 76 73 67 61 57 59 58 61 70 68 67 67 67 67 66 65 65 65 65

ECMWFNIL_sfc_temp_015.txt.gz
Temp
79 78 78 77 77 77 77 76 76 76 76 76 75 75 75 76 76 76 76 76 75 75 74 73 73 72 73 71 71 70 70 69 69 68 68 67 66 66 68 66 65 65
78 79 78 78 77 77 77 77 77 76 76 76 76 76 76 76 76 76 76 75 75 75 75 74 72 72 71 71 70 69 68 69 68 69 68 67 67 66 68 66 66 64
79 78 78 77 77 77 78 77 77 77 77 77 77 76 76 76 76 76 76 75 75 75 74 74 72 72 71 71 70 70 69 68 68 68 68 67 66 67 68 67 66 65
78 79 79 78 78 78 78 77 76 77 77 75 76 77 77 77 76 76 75 76 74 74 74 74 73 72 71 71 70 69 69 69 69 68 68 68 67 68 67 66 66 66
78 79 79 79 79 78 78 77 77 77 77 77 77 76 76 76 75 75 75 75 74 74 74 73 72 71 71 70 70 69 69 69 68 68 68 67 67 68 67 67 66 66
79 79 79 79 78 78 78 77 77 77 77 76 76 77 76 76 75 75 75 75 74 74 74 73 72 71 71 71 70 70 69 69 69 68 68 68 67 67 68 67 66 67
79 78 78 79 78 78 78 78 78 78 77 78 76 76 76 76 75 75 75 75 74 74 74 72 71 71 70 70 70 69 69 69 69 68 68 67 67 67 67 67 67 67
79 79 79 79 78 78 78 78 78 78 77 77 76 76 76 76 75 75 75 75 74 74 74 73 72 71 71 70 70 69 69 70 69 68 68 67 67 67 67 68 68 67
79 79 79 78 78 78 78 78 78 78 78 77 76 76 76 76 76 75 75 74 74 74 73 73 72 71 71 71 70 70 70 69 69 68 68 68 67 68 68 68 67 67
79 79 79 78 78 79 78 79 79 78 78 77 77 77 76 76 76 75 75 74 74 73 73 73 72 72 71 71 71 71 70 70 69 69 69 69 69 69 68 67 68 67
79 79 79 78 78 79 79 79 79 79 78 78 77 77 76 75 75 75 75 74 74 74 73 73 73 72 72 71 71 72 71 71 70 69 69 69 69 69 70 68 68 68
79 79 79 78 79 79 79 80 80 79 79 78 78 77 76 76 75 75 75 74 74 74 74 74 73 73 72 72 72 72 71 71 71 70 70 70 69 69 69 69 69 68
79 79 79 79 79 79 79 79 79 80 79 78 78 78 77 75 75 75 75 75 75 75 74 74 74 73 73 72 72 72 71 71 70 70 70 69 69 70 69 69 69 69
80 80 79 79 79 79 79 79 79 79 79 79 78 77 77 76 75 75 75 75 75 75 75 74 74 73 73 73 72 72 72 71 71 70 70 69 69 69 69 69 69 69
80 80 80 79 79 79 78 78 78 78 78 78 77 77 77 77 77 76 74 74 74 75 74 74 74 73 73 73 72 72 72 71 71 71 71 70 69 68 68 68 69 69
80 79 79 79 78 78 78 78 78 78 78 77 77 77 77 77 76 76 75 74 74 74 74 74 74 74 71 66 68 73 72 72 71 71 71 70 68 68 68 69 70 71
79 79 79 78 78 78 78 77 77 78 77 77 76 76 76 76 76 75 75 75 74 74 73 73 74 74 67 64 65 68 72 72 70 69 70 69 69 68 68 70 70 70
79 79 78 78 78 78 78 78 77 77 77 76 76 76 76 76 75 75 75 75 75 74 74 73 74 68 65 64 65 65 68 71 71 70 69 68 69 68 69 70 71 70
79 79 78 78 78 78 78 77 77 77 76 76 76 76 76 75 75 75 75 75 75 74 73 74 74 68 64 63 64 64 66 68 68 69 68 68 69 69 69 70 70 69
79 79 78 78 78 78 77 77 77 77 77 77 77 76 75 75 75 75 75 74 74 74 74 74 74 66 63 62 62 63 64 66 69 69 69 69 70 69 70 70 69 69
79 79 78 78 78 78 77 77 77 77 77 77 77 76 75 75 75 74 74 74 75 74 74 74 75 65 61 61 60 61 62 65 69 70 68 68 68 69 70 70 70 69
79 79 78 78 78 77 77 77 77 77 77 77 77 77 77 76 75 76 75 74 74 74 74 74 75 64 61 60 59 59 61 68 68 68 68 67 68 68 68 69 68 68
80 79 78 78 78 77 77 77 77 77 77 78 77 76 75 75 75 75 76 75 74 74 74 74 75 65 60 59 58 57 62 68 68 68 68 67 68 69 69 69 67 67
80 80 79 78 78 77 77 78 78 78 78 78 77 76 76 76 76 76 76 76 75 74 75 74 75 66 57 57 56 57 63 67 67 67 66 66 66 68 66 66 67 72
81 80 80 79 78 78 78 78 78 78 78 78 78 78 77 77 76 76 76 76 76 76 71 73 75 64 55 57 55 56 64 67 67 66 66 66 66 66 65 66 66 70
81 80 80 80 79 79 79 79 79 79 78 78 78 78 77 77 76 76 75 75 76 75 75 74 74 66 59 55 54 56 61 67 66 66 66 66 67 67 65 65 65 66

ECMWFNIL_sfc_temp_018.txt.gz
Temp
78 77 77 77 77 77 76 76 76 76 76 76 76 76 76 76 77 77 77 77 77 77 76 76 76 75 74 73 73 73 72 72 72 71 71 71 71 71 71 70 70 70
77 78 78 78 77 77 77 77 77 76 76 76 76 76 76 77 77 77 77 77 77 77 76 76 75 75 74 73 72 72 71 71 71 72 71 70 71 70 72 71 71 70
78 78 78 77 77 77 78 77 77 77 77 77 77 77 77 77 77 77 77 77 77 77 76 76 75 74 74 73 72 72 72 71 71 72 71 70 71 70 71 72 70 70
78 78 78 78 78 78 78 77 77 77 77 76 77 77 77 77 77 77 77 77 76 76 76 76 75 74 74 73 72 72 72 71 72 71 71 71 70 70 70 70 71 70
78 78 78 79 79 78 78 77 77 77 77 77 77 77 77 76 76 76 76 76 76 76 76 75 75 74 74 73 72 72 72 72 71 70 70 70 70 70 71 70 70 70
78 78 78 78 78 78 77 77 77 77 77 78 77 77 77 77 76 76 76 76 76 76 76 75 74 74 74 73 72 72 72 71 71 70 70 70 70 70 71 70 70 70
78 78 78 79 79 78 78 77 77 77 78 78 77 77 77 77 76 76 76 76 76 76 76 75 74 74 73 73 72 71 71 71 71 70 70 70 70 69 70 70 70 70
79 79 79 79 79 78 78 78 78 77 78 77 77 77 77 77 76 77 76 76 76 76 75 75 74 74 74 73 72 71 71 71 71 70 70 70 70 70 70 70 70 70
79 79 79 78 78 79 79 79 79 78 78 77 77 78 77 77 77 77 76 76 76 76 75 75 74 74 74 73 73 72 72 71 71 71 70 70 70 70 70 70 70 70
79 79 79 79 79 79 79 79 80 79 78 78 78 78 77 77 77 77 76 75 75 75 75 75 74 74 73 73 73 73 72 71 71 71 71 71 71 71 71 70 70 69
79 80 79 79 79 80 80 80 80 80 79 79 78 78 77 77 76 77 76 75 75 75 75 75 75 74 73 73 73 73 73 73 72 71 71 71 72 71 71 71 70 70
79 80 80 79 79 79 80 80 80 80 79 79 79 78 77 77 76 76 76 75 76 76 75 75 75 74 74 73 74 74 73 73 72 72 72 72 72 72 72 71 71 71
80 79 79 79 79 79 79 80 80 80 80 79 79 79 78 77 77 76 76 76 76 76 76 75 75 75 74 73 73 73 72 72 72 72 72 72 72 72 73 72 72 71
80 79 79 79 79 79 79 79 79 79 79 79 78 78 78 77 77 76 76 77 76 76 76 76 75 75 74 74 73 73 73 72 72 72 72 71 72 72 72 72 72 72
79 79 79 79 79 78 78 78 78 78 78 78 78 78 78 78 78 77 76 76 76 76 76 76 75 75 75 74 73 73 73 73 72 72 72 71 71 72 71 71 71 70
79 79 79 78 78 77 77 78 78 78 78 77 77 78 78 78 77 77 77 76 76 76 76 75 75 75 70 65 68 73 73 73 72 72 72 71 71 70 70 69 70 70
78 78 78 78 78 78 78 77 77 78 77 77 77 77 77 77 77 76 77 77 76 76 75 75 75 75 65 63 65 67 72 73 72 71 72 72 71 69 68 69 69 70
78 78 78 78 78 77 78 78 78 77 77 77 77 77 77 77 77 76 76 77 76 76 76 76 76 68 64 63 64 65 68 73 73 72 71 71 70 70 70 69 69 70
78 78 78 78 78 78 78 78 77 77 77 77 77 77 77 76 76 76 76 76 76 75 76 76 77 67 63 62 63 64 66 70 72 72 70 69 70 70 69 69 69 70
78 78 78 78 78 78 78 77 77 77 77 78 78 77 76 76 76 76 76 75 76 75 75 76 76 67 62 60 61 62 65 68 72 71 70 71 70 69 70 69 69 69
78 78 78 78 78 78 77 77 77 77 77 78 78 77 76 76 76 76 76 76 76 76 76 76 77 64 60 59 60 61 63 67 72 71 70 70 69 69 69 69 69 69
79 78 78 78 78 78 77 77 77 77 77 77 78 78 78 77 77 77 77 76 76 76 76 75 78 62 59 58 59 60 62 70 71 71 69 68 68 68 68 68 69 69
79 79 78 78 78 77 77 77 77 77 77 78 77 77 77 77 77 78 77 77 76 76 75 75 77 64 57 57 58 58 62 70 70 70 69 68 67 67 67 67 67 68
79 79 78 78 78 77 77 78 78 78 78 78 78 77 77 78 78 77 78 77 77 76 77 76 78 64 55 56 57 57 64 70 69 70 69 68 68 68 67 67 68 71
80 79 79 78 78 78 79 78 78 78 79 79 79 79 78 78 78 77 77 77 78 78 70 74 77 62 55 55 56 57 65 70 69 68 68 68 67 67 67 68 68 69
80 79 79 79 78 79 79 79 79 79 79 79 79 79 78 79 78 78 77 77 77 77 77 76 76 66 59 54 55 56 61 70 69 67 66 67 68 68 67 67 67 67

ECMWFNIL_sfc_temp_024.txt.gz
Temp
87 87 87 87 87 88 88 88 89 89 88 90 90 90 90 90 91 91 91 90 89 90 90 89 89 88 89 89 88 87 87 87 87 88 87 87 86 87 87 87 87 87
87 87 87 88 87 88 88 89 88 88 88 88 90 91 91 91 91 91 90 90 90 90 90 90 89 88 88 89 88 87 87 87 86 89 87 86 86 87 88 87 87 87
87 87 87 88 88 88 90 89 89 89 89 90 90 90 91 92 91 90 90 90 90 91 90 90 89 88 88 88 88 88 88 86 86 90 87 86 87 87 87 90 88 87
87 87 89 89 89 89 89 89 88 88 90 90 90 91 92 92 91 91 90 89 90 90 90 90 90 90 89 88 88 88 88 87 88 88 87 86 86 87 87 87 89 88
87 88 89 89 89 89 89 88 90 90 90 90 91 90 90 89 90 91 90 89 89 90 89 89 89 90 89 88 87 87 88 88 87 87 86 85 86 86 87 87 86 87
88 88 87 88 89 88 89 89 89 90 90 92 90 91 91 90 90 90 90 90 91 91 91 91 90 90 90 88 87 87 88 89 89 86 86 85 87 87 88 87 86 85
88 88 88 89 89 89 88 88 89 89 91 91 91 90 91 90 89 89 89 90 90 89 91 89 89 89 89 88 87 86 87 87 88 87 85 86 86 86 87 87 85 85
89 90 89 89 89 89 88 89 90 89 90 90 91 90 90 92 89 90 90 90 90 89 89 90 89 88 91 89 87 86 87 88 88 87 85 85 86 85 85 86 85 84
90 90 89 89 90 90 92 92 91 90 90 90 91 92 91 91 91 91 89 89 89 89 88 89 88 88 89 89 87 86 86 88 88 87 86 85 86 85 85 86 85 84
89 90 92 92 91 92 92 93 94 93 91 91 91 93 92 90 91 90 89 88 88 88 88 88 88 88 88 89 88 87 87 86 87 87 87 86 86 86 86 85 85 84
91 91 91 91 92 93 94 94 95 95 93 92 92 92 92 91 89 90 89 88 88 88 88 88 88 88 88 89 89 88 88 88 87 87 87 86 86 86 84 86 85 85
90 92 92 92 92 93 94 95 96 95 95 93 93 92 91 92 90 89 89 88 88 88 88 88 88 88 88 88 90 90 89 89 89 88 87 87 87 87 87 87 86 86
92 91 90 93 91 92 93 94 95 96 96 95 94 93 93 92 91 89 89 89 88 88 89 88 88 88 88 87 88 89 88 88 89 88 88 87 87 88 89 88 88 87
92 90 90 90 91 90 91 92 93 93 93 93 93 92 93 92 92 90 89 90 89 89 89 89 88 88 88 87 88 88 88 88 88 88 88 88 87 88 89 90 89 89
90 91 90 90 90 89 89 90 91 91 91 92 91 91 91 93 93 92 90 89 90 89 89 89 89 88 89 88 87 87 88 88 88 88 88 87 87 88 88 88 89 89
89 89 89 89 88 88 88 89 89 90 90 90 90 91 90 90 91 91 92 90 89 89 89 89 89 89 80 71 74 87 88 88 88 87 87 87 86 86 87 88 89 91
89 88 88 87 87 88 88 88 88 89 89 89 89 89 89 88 89 90 92 91 90 90 89 89 89 88 71 67 67 70 84 87 87 86 87 87 87 85 85 86 88 88
89 88 87 87 87 87 87 87 88 88 88 88 88 89 88 89 89 89 89 91 91 91 91 90 90 75 68 66 66 66 71 87 88 87 87 87 87 86 86 87 87 87
88 88 87 87 87 87 87 87 87 87 87 88 88 88 89 87 87 88 88 89 90 89 90 91 92 73 67 65 65 65 66 76 88 87 87 87 87 86 86 86 86 86
88 88 87 87 87 87 87 86 86 86 87 88 89 88 87 87 87 87 87 87 88 88 88 90 91 73 65 63 63 63 65 70 86 86 87 87 87 87 87 86 86 85
88 88 87 87 87 87 86 86 86 86 87 88 90 89 87 86 87 87 87 88 89 89 89 90 92 71 63 61 61 61 63 67 84 86 86 86 86 87 86 87 86 86
89 88 87 87 87 87 86 86 86 86 86 87 88 90 90 89 89 90 89 88 88 89 88 88 93 70 62 61 60 61 62 75 81 83 84 85 85 86 86 86 87 86
90 89 88 88 87 87 86 86 86 86 87 88 87 88 90 90 89 91 89 90 89 88 87 87 92 76 60 59 59 59 64 79 80 83 83 84 84 85 85 86 86 86
90 89 88 88 87 87 86 87 88 88 88 88 88 89 90 92 92 90 90 91 91 89 89 88 90 77 57 58 57 57 66 79 81 82 83 83 84 85 86 85 85 76
91 90 89 88 87 88 88 88 88 88 89 89 90 90 90 91 90 90 90 90 94 93 78 86 92 80 56 59 56 56 67 80 82 83 82 83 83 84 85 85 85 78
91 89 88 89 88 88 89 89 90 90 90 90 90 91 91 91 91 91 91 92 93 92 92 91 90 91 70 56 56 56 60 79 83 82 82 82 83 84 84 85 84 85

ECMWFNIL_sfc_temp_027.txt.gz
Temp
89 89 89 89 89 90 89 90 91 90 89 92 92 91 91 92 92 93 93 92 91 91 91 90 90 90 91 90 89 88 88 88 88 88 88 87 87 89 89 88 88 88
88 89 89 90 89 90 90 91 90 90 90 90 92 93 92 92 93 93 93 92 91 91 91 91 90 89 89 89 89 88 87 88 87 90 87 87 88 89 90 89 88 88
89 89 89 89 90 90 93 91 91 91 91 92 92 92 94 94 93 92 92 92 91 92 90 90 90 89 90 89 89 88 88 87 87 90 88 87 89 88 89 91 89 89
88 89 90 91 91 91 91 91 91 91 92 92 92 93 94 95 93 93 92 91 91 91 91 91 91 91 90 89 89 89 88 87 88 89 88 88 88 88 88 89 89 89
89 89 91 91 92 91 91 91 92 92 92 92 93 92 92 92 92 93 92 91 91 91 91 91 91 91 90 89 89 88 88 88 88 88 87 87 87 88 89 88 88 88
90 89 89 90 91 90 91 92 91 92 92 94 92 93 93 93 92 93 92 92 92 93 93 93 91 92 92 89 88 88 88 89 89 88 87 86 88 89 90 89 87 87
91 90 91 91 92 92 91 91 91 91 93 93 93 92 93 93 91 91 92 92 92 91 93 91 90 90 91 90 88 88 88 88 89 88 86 87 87 88 90 88 86 86
92 92 91 91 92 92 91 92 92 91 92 92 93 92 93 94 92 93 92 92 93 91 91 92 91 89 92 91 88 88 88 89 89 88 86 86 87 86 87 88 87 85
93 92 91 91 92 93 94 94 93 92 92 92 93 95 93 93 93 93 91 91 91 91 90 91 90 90 91 90 89 88 87 89 89 89 87 86 87 86 87 88 87 85
91 92 94 94 94 94 94 95 95 95 93 93 94 95 94 92 93 92 91 90 90 90 90 90 90 90 90 91 90 89 88 88 88 88 88 88 88 88 88 87 87 85
94 94 94 94 94 96 96 97 97 97 95 94 95 95 95 93 91 92 91 90 90 90 90 89 90 90 90 91 91 90 89 89 89 88 88 88 88 88 86 87 87 86
93 95 95 95 95 96 97 97 98 98 97 96 96 94 94 96 92 91 91 90 89 90 90 90 90 90 89 90 92 92 90 90 90 89 89 89 89 89 89 88 88 87
95 94 93 95 94 95 96 97 98 100 99 98 96 96 95 95 95 91 91 91 90 90 91 90 90 90 89 89 90 91 90 89 90 90 89 89 89 89 90 90 89 88
95 93 93 93 94 93 94 96 97 97 97 97 96 94 96 95 95 93 92 92 91 91 91 90 90 90 89 89 89 90 90 90 89 90 90 90 89 89 90 91 90 90
93 93 93 93 93 92 92 93 94 94 95 95 94 94 94 95 96 96 93 91 92 91 91 91 91 90 91 90 89 89 90 91 90 90 90 89 89 90 90 90 90 91
92 92 92 91 91 91 90 91 93 93 93 93 94 94 93 93 93 94 95 93 91 91 91 91 91 91 83 73 77 89 90 91 90 89 89 89 88 88 89 89 91 93
91 91 91 90 90 90 90 90 91 92 92 92 92 93 92 91 92 93 95 94 93 92 91 91 92 91 73 69 70 74 87 90 89 88 89 89 89 87 87 88 89 90
91 91 90 90 90 89 90 90 91 91 91 91 91 92 91 93 92 91 92 94 93 93 93 92 92 77 69 68 69 69 74 89 90 90 89 89 89 88 88 88 89 90
91 90 90 89 89 89 90 90 89 89 90 91 91 91 93 90 90 91 91 92 93 91 92 93 94 75 67 66 67 68 69 79 90 90 89 89 89 88 88 88 88 88
91 90 89 89 89 89 89 89 89 88 90 91 92 91 90 90 91 90 90 90 91 91 90 93 93 75 65 64 65 66 67 73 89 89 89 90 89 89 89 88 88 88
90 90 89 89 89 89 88 88 88 88 89 90 93 92 90 89 90 90 90 90 91 92 92 93 95 72 63 63 63 63 65 70 87 88 88 89 89 89 89 89 89 89
91 90 89 89 89 89 88 88 88 88 88 90 91 93 92 91 91 92 91 90 90 91 91 91 95 71 62 62 62 62 64 77 85 86 86 88 88 88 89 88 89 88
92 91 89 89 89 88 88 88 88 88 89 90 90 91 93 92 91 92 91 92 91 90 90 90 93 77 61 61 61 61 65 81 83 85 85 86 87 88 88 88 89 89
92 91 90 89 89 88 88 89 90 90 90 90 90 91 93 94 93 92 92 92 93 91 92 91 92 80 59 60 59 59 67 81 84 84 84 84 85 87 87 87 87 78
93 92 91 90 89 90 90 90 90 90 91 91 93 92 92 93 93 93 93 93 95 94 80 88 93 83 59 60 57 58 68 82 84 84 83 84 84 85 86 87 87 80
93 91 91 91 90 90 91 91 92 92 92 92 92 93 93 94 94 93 93 93 95 94 95 93 92 93 75 57 57 57 60 81 85 83 83 83 84 84 85 86 86 87

ECMWFNIL_sfc_temp_030.txt.gz
Temp
85 85 85 85 85 86 85 86 87 87 85 87 87 87 86 87 88 87 88 87 87 87 87 86 86 86 87 86 86 85 85 85 85 84 84 84 83 84 85 85 84 82
85 86 85 86 85 85 85 87 86 86 86 86 87 87 87 88 89 88 88 88 87 87 87 88 87 86 86 86 85 85 84 85 84 87 84 84 83 84 85 85 84 83
86 86 86 86 87 87 89 88 87 87 87 88 88 88 89 89 89 88 88 88 87 88 87 87 87 86 86 86 85 85 85 83 83 87 83 83 84 83 84 88 85 85
85 86 87 88 88 87 88 87 87 87 88 88 88 90 91 91 89 89 88 88 87 87 88 88 87 88 86 86 85 84 85 84 85 85 83 83 83 84 84 84 85 85
86 86 87 88 88 87 87 87 89 88 89 88 90 89 88 87 88 89 88 88 87 88 87 87 87 87 86 85 85 84 85 84 85 84 83 82 83 84 85 84 83 84
86 86 86 87 87 87 88 88 88 89 89 90 89 90 89 89 89 89 89 89 89 89 89 89 88 88 87 86 85 84 85 85 85 84 84 83 84 85 86 84 83 82
87 87 87 88 89 88 88 87 88 88 90 90 89 89 89 89 88 88 88 88 89 88 89 87 86 86 87 86 84 84 84 84 85 84 83 83 83 83 86 85 82 82
88 89 88 88 89 89 88 89 89 88 89 89 89 89 89 90 88 90 89 89 89 88 87 88 86 85 88 87 85 84 84 86 86 84 83 83 83 82 83 84 83 82
89 88 88 88 89 90 91 91 91 90 89 89 90 91 90 90 89 90 88 88 88 87 86 87 86 87 87 86 85 84 84 85 86 85 84 83 83 83 83 84 83 82
88 88 90 90 90 90 91 92 92 92 91 90 91 92 91 89 89 89 88 87 87 87 87 87 87 87 87 87 86 85 84 84 84 85 85 84 84 84 84 84 83 82
90 90 89 89 90 92 92 93 93 93 92 91 92 92 92 90 88 89 87 87 87 87 87 87 87 87 86 88 87 87 86 86 85 85 85 85 84 84 84 84 83 83
90 91 91 90 91 92 93 93 94 94 93 92 92 91 91 91 89 89 88 87 87 87 87 87 87 87 86 87 89 88 87 86 86 85 85 85 85 85 85 84 84 84
91 91 90 92 91 92 92 93 94 95 94 93 92 92 92 92 90 88 88 88 87 87 88 87 87 87 86 86 87 87 86 86 86 86 86 86 86 86 87 86 86 85
92 90 89 90 90 89 90 92 93 93 93 92 91 91 92 92 92 89 89 89 88 88 88 87 87 87 86 86 86 87 87 86 86 86 86 86 86 86 87 88 87 87
90 90 90 89 89 89 89 89 90 90 90 91 90 90 91 92 93 92 89 89 89 88 88 88 88 88 88 87 86 86 87 87 86 86 86 85 85 87 87 87 87 87
89 89 89 88 88 87 87 88 89 89 90 89 90 90 90 90 90 91 92 90 89 88 88 88 88 89 81 74 77 86 87 87 87 86 86 85 84 85 86 86 87 88
88 88 88 87 87 88 87 88 88 89 89 88 89 89 89 88 89 90 92 92 90 90 89 88 89 88 74 69 71 74 84 86 86 85 85 85 85 84 84 85 86 87
89 88 88 87 87 87 87 87 88 88 88 88 89 90 88 90 90 89 89 91 90 90 90 89 89 77 70 68 69 70 75 86 87 87 86 85 85 85 85 85 85 86
89 88 88 87 87 87 88 88 87 87 88 89 89 89 90 88 87 89 88 90 90 88 89 90 90 75 68 67 68 68 69 78 87 86 86 86 86 85 85 85 84 85
89 88 88 87 88 87 87 87 87 87 88 90 90 89 88 88 89 88 88 87 89 88 88 90 90 76 67 65 65 66 67 72 86 85 86 87 86 86 86 85 85 84
89 88 88 88 88 87 87 87 87 87 88 89 91 90 88 87 88 88 88 88 90 90 89 90 92 73 65 63 63 64 66 69 84 86 85 86 86 86 86 86 86 85
90 88 88 88 88 87 87 86 87 86 86 87 89 92 91 90 90 90 89 88 88 89 90 89 93 72 64 63 62 62 64 73 81 84 84 85 85 85 86 85 86 86
91 89 88 88 88 87 86 87 86 86 87 88 88 89 90 90 89 91 89 90 89 88 88 88 91 77 63 61 61 61 64 76 80 83 84 84 84 85 86 86 86 86
90 89 88 88 87 87 87 87 89 88 88 88 88 89 91 92 92 90 90 90 90 89 90 89 90 79 61 60 59 60 66 77 80 82 83 83 83 84 85 85 85 78
91 90 89 88 87 88 88 88 88 88 89 89 90 90 90 90 90 90 90 90 93 92 80 86 90 83 62 59 57 58 65 78 80 81 82 82 83 83 84 85 85 79
92 89 89 88 88 88 88 88 89 90 89 89 90 90 90 91 91 91 90 91 91 91 91 89 89 89 78 58 57 57 59 77 81 81 81 81 83 82 82 83 84 85

ECMWFNIL_sfc_temp_033.txt.gz
Temp
81 81 81 81 81 81 81 81 82 82 80 81 81 81 81 82 83 83 83 82 82 82 81 81 82 81 82 81 80 80 80 79 80 79 79 78 77 78 78 77 75 75
81 81 82 82 81 81 81 82 82 82 81 81 81 81 81 82 83 84 82 82 82 82 82 81 81 81 81 81 80 80 79 79 79 81 79 78 77 78 79 77 77 75
82 81 81 81 82 81 83 82 82 82 82 83 82 82 82 83 83 83 83 82 82 83 82 81 81 81 81 81 80 80 79 78 79 81 79 78 78 78 78 79 78 78
81 82 82 82 83 82 83 82 81 81 83 82 83 83 84 85 83 83 83 83 82 82 82 82 82 82 81 81 80 79 80 79 80 79 79 78 78 79 78 78 78 78
82 82 82 83 83 83 83 82 82 82 82 83 84 83 83 83 83 83 83 83 82 82 82 82 82 82 81 81 81 80 80 79 79 78 78 78 78 78 79 78 76 77
82 82 82 83 83 82 82 82 83 83 83 83 83 84 84 83 84 84 83 83 83 83 83 83 82 82 82 81 81 80 80 80 80 79 78 78 78 79 80 79 77 76
82 82 82 83 83 83 82 83 83 83 84 84 83 84 85 83 83 84 84 84 83 83 83 82 82 82 82 81 80 80 80 80 80 79 79 78 78 79 80 79 78 77
83 83 83 83 83 83 83 83 83 83 84 84 83 84 84 85 83 83 84 84 84 83 83 83 82 82 82 82 81 80 80 81 80 79 79 79 78 78 79 80 78 77
83 83 83 83 83 83 83 84 84 84 84 83 84 85 84 85 85 84 83 83 84 83 82 82 82 82 82 82 81 80 80 80 80 80 79 79 78 78 79 80 78 77
83 83 83 83 83 84 84 85 85 85 85 84 85 85 84 84 85 85 83 82 83 83 82 82 82 82 82 82 81 81 80 80 80 80 80 80 80 79 79 79 79 78
83 84 83 83 84 85 85 86 86 86 86 85 85 85 85 84 84 84 84 82 82 83 82 83 83 82 82 82 82 82 81 81 81 80 80 80 80 80 80 80 79 79
83 84 84 84 84 85 85 86 87 86 86 86 86 85 85 85 84 84 84 83 83 83 83 83 83 83 82 83 83 83 82 82 81 81 81 80 80 80 80 80 80 80
84 84 84 84 84 85 86 86 87 88 88 86 87 87 86 85 85 84 84 84 83 84 83 83 83 83 82 82 83 83 82 81 81 81 81 81 81 81 81 81 81 81
85 85 84 84 85 85 85 86 86 87 87 86 86 86 86 86 85 84 84 84 84 84 84 84 83 83 83 82 83 83 82 82 81 81 81 81 81 81 82 82 82 82
85 85 85 84 84 84 84 85 85 85 86 86 85 86 86 87 87 86 84 84 84 84 84 84 83 83 83 83 82 82 83 82 82 82 81 81 81 81 82 82 82 82
85 85 84 84 84 83 83 84 85 85 85 85 85 85 86 86 86 86 86 84 84 84 84 84 83 84 79 72 74 83 83 83 82 82 82 81 81 80 81 81 82 83
85 84 84 83 83 83 83 83 84 85 85 84 84 85 85 84 85 85 86 86 85 84 84 84 84 84 72 68 69 72 81 83 82 82 82 81 81 80 80 81 82 82
85 84 84 83 83 83 83 83 84 84 84 84 84 84 84 85 85 85 85 86 85 85 85 84 84 75 70 67 68 68 72 83 83 82 82 82 82 81 81 81 81 82
85 84 84 83 83 83 83 83 83 83 83 84 84 85 85 84 84 84 85 85 85 84 85 85 85 74 69 67 67 67 67 74 84 83 82 82 82 82 82 81 81 81
85 85 84 84 83 83 83 83 83 83 84 85 85 85 84 84 84 84 84 84 85 85 84 86 85 75 67 65 65 65 66 70 83 83 83 83 82 82 82 82 81 81
85 85 84 84 84 83 83 83 83 83 84 85 86 85 84 84 84 84 84 84 85 85 85 85 87 73 66 64 63 63 65 67 81 82 82 83 83 83 82 83 82 82
86 85 84 84 84 83 83 83 83 83 83 84 85 86 86 86 85 86 85 84 85 85 85 84 87 71 65 63 62 62 64 72 78 81 82 82 82 82 83 83 83 83
86 85 85 84 84 83 83 83 83 83 83 84 84 85 85 85 85 86 86 85 85 85 84 85 86 73 63 62 61 61 63 75 78 80 81 81 82 82 82 82 82 83
86 86 85 84 84 83 83 84 84 84 84 84 84 85 85 86 87 86 86 86 85 85 85 85 86 77 61 60 59 59 65 76 78 79 80 80 81 82 82 82 82 77
87 86 86 85 84 84 85 84 84 84 84 85 85 85 85 86 85 86 86 86 87 86 78 83 86 79 61 58 57 58 64 77 78 79 79 80 80 80 81 82 82 78
87 85 85 85 84 84 85 85 85 85 84 84 85 86 85 86 86 85 85 86 86 86 86 84 85 85 76 56 56 56 59 74 78 78 78 79 80 80 80 81 81 82

ECMWFNIL_sfc_temp_036.txt.gz
Temp
80 79 79 79 78 78 79 78 79 79 78 78 78 78 78 79 79 79 79 79 79 80 79 79 79 78 79 78 78 78 77 77 77 77 76 76 75 75 75 73 71 72
80 80 80 79 78 78 78 79 79 79 78 78 79 78 78 79 79 80 79 79 79 80 80 79 79 79 78 78 78 77 76 77 77 78 76 76 76 75 76 74 73 72
80 80 79 79 79 79 79 79 79 79 79 79 79 78 79 80 79 80 80 79 79 80 79 79 79 79 79 79 78 77 77 76 77 78 77 76 76 75 76 76 74 73
79 80 80 80 80 80 80 79 78 79 79 78 78 80 80 81 80 80 80 80 79 79 79 79 80 80 79 79 78 77 77 77 78 77 77 76 76 76 76 76 76 74
80 80 80 80 81 80 80 79 79 79 80 80 80 79 79 79 79 80 80 79 79 79 79 79 79 79 79 79 79 78 77 77 77 77 76 76 76 76 77 76 75 75
80 80 80 80 80 80 80 80 80 80 80 81 80 80 80 80 80 80 80 80 80 80 80 80 79 80 79 79 78 78 78 77 77 76 76 76 76 76 78 76 75 75
80 80 80 80 80 80 80 80 80 80 81 82 81 80 80 80 79 80 80 80 80 79 80 79 79 79 79 79 78 78 78 77 77 76 76 76 76 76 77 77 76 75
80 80 80 80 80 80 80 80 80 80 80 81 80 81 81 81 80 81 80 80 80 80 79 80 79 79 80 79 78 78 78 79 78 76 76 76 76 76 76 77 77 75
81 80 80 80 80 80 80 81 81 81 80 80 81 81 81 82 81 82 81 80 80 80 79 80 79 79 80 79 79 78 78 78 78 78 77 76 76 76 76 77 76 76
80 80 80 80 80 81 81 81 82 82 81 80 81 81 81 81 82 81 81 80 80 80 79 80 80 80 80 80 79 79 78 78 78 78 78 78 77 77 77 77 76 76
80 81 80 80 80 81 81 82 82 83 82 81 82 81 81 81 81 81 80 80 80 80 80 80 80 80 79 80 80 80 79 79 79 78 78 78 78 78 78 77 77 77
80 81 81 80 81 81 82 82 83 83 82 82 82 82 81 81 81 81 81 80 80 81 81 80 80 80 80 80 80 80 80 80 79 79 79 78 78 78 78 78 77 77
81 81 81 81 81 81 82 82 83 83 83 83 83 83 82 82 81 81 81 81 81 81 81 81 80 80 80 80 80 80 80 79 79 79 79 79 79 79 79 79 78 78
81 81 81 81 81 81 81 82 82 82 83 83 83 82 82 82 82 81 81 82 82 81 81 81 81 80 80 80 80 80 80 79 79 79 79 79 79 79 79 79 79 79
81 82 82 81 81 81 81 81 81 82 82 82 82 82 82 83 83 83 82 81 82 82 82 82 81 81 81 81 80 80 81 80 79 79 79 78 78 79 79 79 79 79
81 81 81 81 81 80 80 81 81 81 81 81 81 82 82 82 82 82 83 82 81 81 82 81 81 82 77 70 72 81 80 81 80 79 79 79 78 78 78 79 79 80
81 81 81 80 80 80 80 80 80 81 81 81 81 81 81 81 82 82 83 83 82 82 81 81 82 82 71 68 68 70 79 81 80 79 79 79 78 78 77 78 79 79
81 81 81 80 80 80 80 80 80 80 80 80 81 81 81 82 82 81 82 83 82 82 82 82 82 73 69 67 67 66 69 80 81 80 79 79 79 79 79 78 79 79
82 81 81 81 80 80 81 80 80 80 80 80 81 81 82 80 81 81 82 82 82 81 82 82 82 73 68 66 66 66 66 71 81 81 80 80 79 79 79 79 79 78
82 82 81 81 81 81 80 80 80 80 80 81 82 81 81 81 81 81 81 81 82 82 81 83 82 73 67 65 64 64 65 67 79 81 81 80 80 80 80 80 79 79
82 82 81 81 81 81 80 80 80 80 80 81 82 82 81 81 81 81 81 81 82 83 82 82 84 72 66 63 63 62 63 65 77 79 80 81 81 80 80 80 80 80
83 82 81 81 81 81 80 80 80 80 80 81 82 83 83 83 82 83 82 81 82 82 82 82 84 70 65 63 62 61 62 69 75 77 79 80 80 80 81 81 81 80
84 83 82 81 81 81 80 80 80 80 81 82 81 82 82 82 82 83 83 82 82 82 81 82 83 73 63 61 60 60 62 72 75 77 78 79 80 80 81 81 81 81
84 84 83 82 82 81 81 81 82 82 82 82 82 82 82 83 84 83 83 84 83 82 83 82 83 75 61 59 59 59 64 74 76 76 77 78 79 80 80 80 81 76
85 84 84 83 82 82 82 82 82 82 83 83 83 83 83 84 83 83 84 84 84 84 78 81 83 76 60 59 58 58 64 75 77 77 77 78 78 79 80 80 81 78
85 84 84 84 83 83 83 83 83 83 83 83 83 84 83 83 84 83 83 84 84 83 84 83 82 83 70 58 57 57 59 74 77 77 77 77 78 78 79 79 80 80

ECMWFNIL_sfc_temp_039.txt.gz
Temp
79 78 78 77 77 77 77 76 76 76 75 75 75 75 76 77 77 77 77 77 77 77 77 76 77 76 77 76 76 76 75 75 75 75 74 74 73 73 73 72 70 70
78 78 78 78 77 77 77 77 77 77 76 75 76 76 76 76 77 77 77 77 77 77 77 77 76 76 76 76 76 75 75 75 75 76 75 74 74 74 74 73 73 71
78 78 78 77 77 77 78 77 77 77 77 77 76 75 76 77 77 77 77 77 77 77 77 77 77 77 76 76 76 76 75 75 74 75 75 74 74 74 74 75 73 72
78 78 78 78 78 77 78 77 76 77 77 76 76 77 77 78 77 77 77 78 77 77 77 77 77 77 77 76 76 75 76 75 76 75 74 74 74 75 74 74 74 73
78 78 78 79 79 78 77 77 77 77 77 78 78 77 77 76 76 77 77 77 77 77 77 77 77 77 77 76 76 75 75 75 75 75 74 74 74 74 75 74 73 73
78 78 78 78 78 78 77 77 77 77 78 78 77 78 77 77 77 77 77 77 77 77 77 77 77 77 77 77 76 76 76 75 75 75 74 74 75 74 75 74 73 73
78 78 78 79 79 78 78 78 78 78 78 78 77 76 77 77 77 77 77 77 77 77 77 77 76 77 77 77 76 76 76 76 75 75 74 75 74 74 75 75 74 74
79 79 79 79 79 78 78 78 78 78 78 77 77 77 77 77 77 78 78 77 77 77 77 77 77 77 77 77 76 75 76 77 76 75 74 74 74 74 74 75 74 73
79 79 78 78 78 79 78 79 79 78 78 77 78 78 77 78 78 78 78 77 77 77 77 77 77 77 77 77 76 76 76 76 76 75 75 74 74 74 74 74 74 74
79 79 79 79 78 79 79 79 80 79 79 78 79 79 78 78 78 78 78 77 77 77 77 77 77 77 77 77 77 77 76 76 76 76 75 75 75 75 75 74 74 74
79 79 79 78 79 79 79 80 80 80 80 79 79 79 79 78 78 78 77 77 77 77 77 77 77 77 77 77 77 77 77 77 76 76 76 76 76 76 76 75 74 74
79 79 79 79 79 79 79 80 80 80 80 80 79 79 79 79 78 78 78 77 77 78 78 78 78 77 77 77 78 78 77 77 77 77 76 76 76 76 76 76 75 75
79 79 79 79 79 79 80 80 80 81 81 80 80 80 79 79 79 78 79 78 78 78 78 78 78 78 77 77 78 77 77 77 77 77 77 77 77 77 77 77 76 76
79 79 79 79 79 79 79 80 80 80 80 80 80 79 79 79 79 78 79 79 79 79 79 79 78 78 78 78 78 78 78 77 77 77 77 77 77 77 77 77 77 77
79 80 79 79 79 79 78 78 79 79 79 79 79 79 79 80 80 80 79 78 79 79 79 79 79 79 79 79 78 77 78 78 77 77 77 77 77 77 77 77 77 77
79 79 79 79 78 78 78 78 78 79 79 78 79 79 79 79 79 80 80 79 79 79 79 79 79 79 75 69 70 78 78 78 78 77 77 77 76 76 77 77 77 78
79 78 79 78 78 78 78 78 78 78 78 78 78 78 78 79 79 79 79 80 80 79 79 79 79 79 70 66 66 68 76 78 78 77 77 77 77 76 76 77 77 78
79 78 78 78 78 78 78 78 78 78 77 78 78 78 78 79 79 78 79 80 80 80 79 80 80 72 68 66 65 65 67 78 79 78 78 77 77 77 77 77 77 77
79 79 78 78 78 78 78 78 78 77 77 77 78 78 79 78 78 78 78 79 79 79 79 80 80 71 67 65 65 64 64 69 79 79 78 77 77 77 77 77 77 77
79 79 78 78 78 78 78 78 77 77 78 79 79 78 78 78 78 78 78 78 79 79 79 80 80 72 66 64 63 63 63 65 75 78 78 78 78 78 78 78 77 77
79 79 79 78 79 78 78 78 78 78 78 78 79 79 78 78 78 78 78 78 79 79 79 79 81 71 66 63 62 61 62 63 73 75 77 78 79 79 79 79 78 78
80 79 79 79 79 78 78 78 78 78 78 78 79 79 79 79 79 79 79 79 79 79 79 79 81 70 65 63 61 60 61 68 71 74 75 77 78 79 79 79 79 79
81 80 79 79 79 78 78 78 78 78 78 79 78 79 79 79 79 79 80 79 79 79 78 79 80 73 64 62 60 60 61 70 71 73 75 76 77 78 79 79 79 79
82 81 80 80 79 78 78 79 79 80 80 80 79 79 79 80 80 80 80 81 80 79 80 79 80 75 64 60 59 59 63 71 72 73 75 75 76 78 78 78 79 75
83 82 81 81 79 79 80 79 80 80 80 80 80 80 80 81 80 80 80 81 81 81 76 78 80 76 63 61 58 58 63 72 74 74 74 75 75 76 77 78 79 76
83 82 82 81 80 80 81 81 81 81 80 80 80 81 80 80 80 80 80 81 81 81 81 80 80 80 74 59 58 57 58 72 74 74 74 75 76 76 76 77 77 78

ECMWFNIL_sfc_temp_042.txt.gz
Temp
78 78 77 77 76 77 76 76 76 76 75 76 76 76 76 77 77 77 78 77 77 77 77 77 78 77 78 78 77 77 77 77 77 77 76 76 76 76 76 75 74 74
78 78 78 78 77 77 76 77 76 76 75 75 76 76 76 77 77 78 77 77 78 78 78 78 77 78 77 77 77 77 77 77 76 78 76 76 76 76 77 76 76 75
78 78 78 77 78 77 78 78 77 76 76 76 76 76 76 77 77 77 77 78 77 78 77 77 77 77 78 77 77 77 77 76 76 78 77 76 76 76 76 78 77 76
78 78 79 79 79 78 78 77 76 76 77 76 76 77 77 78 78 77 77 78 77 77 78 78 78 78 78 78 77 77 77 77 77 77 77 77 76 77 76 76 77 76
78 78 79 79 79 78 78 77 77 77 77 77 78 77 76 77 77 77 77 77 77 77 77 77 78 78 77 77 77 76 77 77 77 77 76 76 76 76 77 76 76 76
78 78 78 78 78 78 77 77 77 77 78 78 77 77 77 77 77 77 77 77 78 78 78 78 78 78 78 77 77 77 77 77 77 76 76 76 77 77 77 76 76 76
78 78 78 79 79 78 77 77 77 78 78 78 77 77 77 77 77 77 77 77 78 77 78 77 77 77 78 77 77 76 77 77 77 76 76 76 76 76 77 77 76 76
79 79 79 79 79 78 78 78 78 77 78 77 77 77 77 78 77 78 78 78 78 77 77 78 77 77 78 77 77 76 77 77 77 76 76 76 76 76 76 76 76 76
79 79 78 78 79 79 79 79 79 78 78 77 78 78 78 78 78 78 77 77 77 77 77 77 77 77 78 77 77 77 77 77 77 77 76 76 75 76 76 76 76 76
78 78 79 79 79 79 79 80 80 79 78 78 78 79 78 78 78 78 78 77 77 77 77 77 77 77 77 77 77 77 77 77 77 77 77 77 77 77 77 76 76 76
79 79 79 78 79 80 80 80 80 80 79 79 79 79 79 78 77 78 77 77 77 77 77 77 78 78 77 78 78 78 78 78 77 77 77 77 77 77 77 77 76 76
79 79 79 79 79 79 80 80 81 80 80 80 79 79 78 79 77 77 78 77 77 78 78 78 78 78 77 78 79 78 78 78 78 78 78 78 78 78 78 78 77 77
79 79 78 79 79 79 80 80 80 81 81 80 80 80 79 79 78 77 78 78 78 78 78 78 78 78 78 78 78 78 78 78 78 78 78 78 78 78 79 78 78 78
79 79 78 78 79 78 79 80 80 80 80 80 80 79 79 79 79 78 78 79 79 79 79 79 78 78 78 78 78 78 78 78 78 78 78 78 78 78 79 79 79 79
78 79 79 78 78 78 78 78 78 79 79 79 79 79 79 80 80 80 79 78 79 79 79 79 79 79 79 79 78 78 78 78 78 78 78 77 78 78 78 78 79 79
78 78 78 78 78 77 77 78 78 78 78 78 78 79 79 79 79 79 80 79 79 79 79 79 79 79 75 68 70 78 78 78 78 78 78 78 77 77 78 78 79 80
77 77 78 77 77 77 77 77 77 78 78 77 78 78 78 78 78 78 79 80 79 79 79 79 79 79 69 65 65 68 76 78 78 78 78 78 78 77 77 78 79 79
78 77 77 77 77 77 77 77 77 77 77 77 77 78 77 79 78 78 78 79 79 80 80 79 80 71 66 64 64 64 67 78 79 79 78 78 78 78 78 78 78 79
77 77 77 77 77 77 77 77 77 77 77 77 77 78 79 77 77 78 78 78 79 78 79 80 80 70 65 64 64 64 63 70 79 79 78 78 78 78 78 78 78 78
78 77 77 77 77 77 77 77 77 76 77 78 79 78 77 77 78 78 78 77 78 78 78 80 80 71 65 63 62 62 63 65 76 78 79 79 79 79 79 79 78 78
78 77 77 77 77 77 77 77 77 77 77 78 79 78 77 77 77 77 78 78 79 79 79 79 81 69 64 62 61 61 62 64 74 76 78 78 79 79 79 79 79 79
79 78 77 78 77 77 77 76 77 77 77 78 78 79 79 79 79 79 78 78 79 79 79 78 81 68 64 62 60 60 61 68 73 74 75 77 78 78 79 79 80 79
79 79 78 78 78 77 77 77 77 77 77 78 78 78 79 79 79 79 79 79 79 78 78 78 80 71 63 61 60 59 61 71 72 74 74 76 77 78 78 79 80 80
80 79 79 78 78 77 77 78 79 79 79 79 78 78 79 80 80 79 80 80 80 79 80 79 80 74 63 60 59 58 63 72 73 73 74 75 76 77 78 78 79 75
81 80 80 79 78 78 79 79 79 79 80 80 80 80 79 80 80 79 80 80 81 81 75 78 80 75 63 60 58 57 63 74 74 74 74 75 76 76 77 78 78 76
81 80 80 80 79 79 79 80 80 80 80 80 80 80 80 80 80 80 79 80 81 81 81 80 80 80 75 60 58 56 58 73 75 75 74 75 76 76 77 77 78 79

ECMWFNIL_sfc_temp_045.txt.gz
Temp
83 83 83 83 83 84 83 83 84 84 83 85 85 85 85 85 85 85 85 85 85 85 84 84 84 84 85 84 84 84 84 84 85 85 85 84 85 85 85 85 85 84
82 83 83 83 83 83 83 84 83 84 83 83 85 85 85 85 86 86 85 85 85 85 85 85 84 84 84 85 84 84 83 84 84 87 84 84 84 85 85 85 85 85
83 83 83 83 84 84 86 85 84 84 84 85 85 85 86 86 86 85 85 85 85 86 85 85 85 84 84 84 84 84 84 83 83 87 84 84 85 84 85 88 87 86
83 83 84 85 85 85 85 84 84 84 85 84 85 86 86 87 86 85 85 84 85 85 86 85 85 86 85 84 84 84 85 84 85 85 84 84 84 85 85 85 86 86
83 83 85 85 85 85 85 84 85 85 85 85 86 85 84 84 84 86 85 84 84 85 85 85 85 85 84 84 84 84 84 85 85 84 83 83 84 84 85 85 84 84
84 84 84 84 85 84 84 85 85 85 85 86 85 86 86 85 85 85 85 85 86 86 86 86 85 86 86 85 84 84 85 85 86 84 83 83 85 85 86 85 84 83
84 84 84 85 85 85 84 84 85 85 86 86 85 85 86 85 84 85 85 85 86 85 86 85 84 85 85 84 83 83 84 84 84 84 83 84 84 84 86 84 83 83
85 86 85 85 85 85 84 85 85 84 85 85 85 85 85 86 85 86 85 85 86 85 84 85 84 84 86 85 84 83 84 85 84 83 82 83 84 83 84 84 84 83
85 85 85 85 85 86 86 87 86 85 85 85 86 87 86 86 86 86 85 84 85 84 84 84 84 84 85 84 84 83 83 85 85 84 83 83 83 83 84 84 83 83
84 85 86 86 86 87 87 88 88 87 86 86 86 88 86 85 86 86 85 84 84 84 84 84 84 84 84 85 84 84 84 83 84 84 84 84 84 84 85 84 84 83
86 86 86 86 87 88 88 88 89 89 87 87 87 87 87 86 84 85 84 83 84 84 84 84 84 84 84 85 85 85 85 85 84 84 84 84 84 84 84 84 84 84
85 86 86 86 87 88 88 89 89 88 88 87 88 87 86 87 85 85 84 83 84 84 84 84 84 84 84 84 86 86 85 85 85 85 85 85 85 85 85 85 85 85
86 86 85 87 86 87 88 88 89 89 89 88 88 87 87 87 86 84 84 84 84 84 85 84 84 85 84 84 84 85 85 85 85 85 85 85 85 86 87 86 86 86
86 85 85 85 86 85 86 87 88 88 87 87 87 86 87 87 87 85 85 85 85 85 85 85 85 85 84 84 84 85 85 85 85 85 85 85 85 86 87 88 87 87
85 85 85 85 85 84 84 85 85 85 86 86 85 85 86 88 88 87 86 85 86 85 85 85 85 85 85 85 84 84 85 85 85 85 85 85 85 86 86 86 86 87
84 84 83 83 83 82 82 83 84 84 85 84 84 85 85 85 86 86 87 86 85 85 85 85 85 86 79 71 74 84 85 85 85 84 84 84 84 84 85 86 86 88
83 83 83 82 82 82 82 83 83 84 83 83 83 84 84 83 84 85 86 87 86 86 86 85 86 85 71 66 67 69 81 84 84 84 84 84 84 83 83 85 86 86
83 83 82 82 82 82 82 82 83 83 82 82 83 83 83 85 84 84 84 86 86 87 87 86 86 75 67 65 65 65 69 83 85 85 85 84 84 84 84 85 85 86
82 82 82 82 81 82 82 82 82 82 82 83 83 84 84 82 82 84 83 84 85 84 86 87 88 73 65 64 64 64 64 72 84 85 84 85 85 84 84 84 84 85
82 82 82 82 82 82 82 81 81 81 83 84 84 83 82 83 83 83 83 83 84 84 84 86 87 74 64 63 63 62 63 67 82 83 84 85 85 85 85 85 84 84
82 82 82 82 82 82 81 81 81 82 82 83 85 84 83 82 83 83 83 83 85 85 85 86 88 71 63 62 61 61 62 65 81 82 83 84 84 85 84 85 85 85
83 82 82 82 82 81 81 81 81 81 81 83 84 86 85 85 85 85 85 84 84 85 85 84 88 69 63 61 60 60 61 73 79 81 81 83 83 84 84 85 85 85
84 83 82 82 82 81 81 82 81 81 82 83 83 84 85 85 85 86 85 85 85 84 84 84 87 73 62 61 59 59 63 78 79 81 81 82 82 84 84 84 85 85
84 84 82 82 82 81 82 82 84 84 84 84 83 84 85 87 86 86 86 86 86 85 86 85 86 75 60 60 59 57 65 78 80 80 81 81 81 83 84 84 84 78
85 84 84 83 82 83 84 83 83 83 85 85 86 86 85 86 86 86 86 86 88 88 79 83 87 78 59 60 58 57 66 79 80 81 80 81 82 82 83 84 84 81
86 84 84 84 83 83 84 84 85 86 85 85 86 86 86 87 87 86 86 86 88 87 88 86 86 87 75 58 58 56 59 78 81 80 80 80 82 82 83 83 83 84

ECMWFNIL_sfc_temp_048.txt.gz
Temp
87 87 87 87 88 89 88 88 90 89 89 92 92 91 91 91 91 92 92 91 90 90 90 89 89 89 90 89 89 88 89 89 90 91 89 89 89 90 90 90 90 90
86 87 87 88 88 88 89 90 89 89 89 89 92 92 91 91 92 92 91 91 91 91 90 91 89 89 89 90 89 89 88 88 87 91 89 88 88 90 90 90 91 91
87 87 88 88 90 89 92 90 89 90 91 91 91 92 92 92 91 91 91 91 91 92 90 90 90 89 89 89 89 89 89 87 87 91 89 88 89 89 90 93 92 91
87 87 89 90 91 90 91 90 90 89 91 91 91 93 93 94 92 92 90 90 90 90 91 91 90 91 90 89 89 89 89 88 89 89 88 88 88 90 89 90 91 92
87 88 89 90 90 90 90 90 91 91 91 91 92 91 90 90 91 92 91 90 89 91 90 90 90 90 89 89 89 88 89 89 89 88 87 87 88 89 90 90 89 90
88 88 88 89 90 89 90 91 90 92 91 93 91 93 92 91 91 91 91 91 92 92 92 92 91 91 91 89 89 88 90 91 91 88 87 87 89 91 92 90 89 88
89 88 89 90 91 91 90 90 90 90 92 93 92 91 92 91 90 90 91 91 92 91 92 91 90 90 91 90 88 88 88 89 90 88 87 88 87 88 91 90 88 88
90 91 90 90 91 91 90 91 91 90 91 91 92 91 92 92 91 92 91 91 92 91 90 92 90 89 92 91 89 88 89 91 90 88 87 87 88 87 88 90 89 87
91 91 90 90 91 92 93 93 93 92 92 91 92 93 92 92 92 92 90 90 90 90 89 90 89 90 90 90 89 89 88 90 91 89 88 88 88 87 89 89 89 88
90 91 92 92 92 93 93 94 95 94 92 92 93 94 93 91 92 92 91 89 89 89 89 89 89 90 90 90 89 89 88 88 89 89 89 89 89 89 90 89 89 88
92 93 92 92 93 94 95 95 96 96 94 93 94 94 94 92 90 91 90 89 89 89 89 89 89 89 89 91 91 91 90 90 89 89 89 89 89 89 89 89 89 90
91 93 93 93 93 95 95 96 96 96 96 94 94 93 93 94 91 91 90 89 89 89 89 89 89 89 89 89 92 92 91 91 91 90 90 90 90 90 90 90 90 90
93 92 92 94 93 94 95 95 96 97 97 95 94 94 94 94 94 90 90 90 89 90 90 89 89 90 89 88 89 91 90 90 91 91 91 91 91 91 93 92 92 91
93 92 91 91 93 92 93 95 95 96 95 95 93 93 94 94 95 92 91 91 91 90 90 90 90 90 89 88 89 90 90 90 90 90 92 91 91 91 93 94 93 94
91 92 91 91 91 90 91 92 93 93 93 93 92 92 94 95 95 95 92 91 91 90 90 91 91 90 91 90 89 89 90 91 90 90 90 90 91 92 92 92 93 94
90 90 90 90 90 89 89 90 91 91 92 91 91 92 92 92 92 93 94 92 91 91 91 91 91 92 84 75 79 89 90 91 91 90 89 90 89 89 91 92 93 95
89 89 89 88 88 88 88 88 89 90 90 89 90 90 90 89 91 92 93 93 92 92 92 92 92 92 75 69 70 73 87 90 89 89 89 89 89 88 88 90 92 93
89 88 88 87 87 87 87 88 89 89 88 88 89 89 88 91 90 90 90 93 93 93 93 93 93 80 69 67 68 68 73 88 91 90 90 89 89 89 89 90 90 92
88 88 87 87 87 87 87 87 87 87 88 88 89 89 90 88 88 89 89 90 92 91 92 94 94 76 66 66 66 66 67 77 90 90 90 90 90 89 89 89 89 90
87 87 87 86 87 87 87 86 86 86 88 90 90 89 87 88 89 88 88 88 89 90 89 92 94 75 65 64 64 64 65 71 86 87 88 90 89 90 90 90 89 89
87 87 86 86 86 86 86 86 86 86 87 89 91 90 88 87 88 88 88 88 90 91 90 92 95 70 64 62 62 62 63 68 85 86 86 88 88 89 89 90 90 90
88 87 86 86 86 86 86 86 86 85 86 87 89 92 91 90 89 90 90 89 89 90 90 90 94 69 62 62 61 61 62 77 83 84 85 86 87 87 88 88 89 89
89 88 87 86 86 86 86 86 86 86 86 88 88 90 91 91 90 91 90 91 90 89 89 89 93 76 61 60 59 59 65 82 83 85 85 85 86 87 88 88 89 89
89 89 87 87 86 86 86 87 88 88 88 88 88 90 92 93 92 91 92 92 92 90 91 90 92 79 60 59 58 57 68 82 84 84 84 84 85 86 87 87 88 82
90 89 89 88 86 87 88 88 88 88 89 89 91 91 91 92 91 92 92 92 95 94 82 88 93 83 59 60 57 57 69 84 84 85 84 85 86 86 87 88 88 84
91 88 88 88 87 87 88 89 90 90 90 91 91 92 92 93 93 92 92 93 94 94 94 92 91 93 75 58 57 56 60 82 85 84 84 84 86 86 88 88 88 88

ECMWFNIL_sfc_temp_051.txt.gz
Temp
89 89 89 89 90 91 90 90 91 91 90 93 93 92 92 92 92 93 93 92 91 92 91 90 90 90 91 90 90 89 89 90 90 92 90 90 90 91 92 92 92 91
89 89 89 90 89 90 90 92 90 91 90 91 93 94 93 93 94 93 92 92 92 92 91 92 90 90 90 90 90 89 89 89 89 93 90 90 89 91 92 92 92 92
89 89 90 90 91 91 94 92 91 91 92 93 93 93 95 94 94 92 92 92 92 92 91 91 91 90 90 90 89 89 89 88 88 92 90 89 91 90 91 94 93 93
89 89 91 92 93 92 93 92 92 91 93 93 93 95 96 97 93 93 92 91 91 91 92 92 91 92 90 90 89 90 90 89 90 90 90 90 90 91 91 91 92 93
90 90 91 92 93 92 92 92 93 93 93 93 94 93 93 93 92 93 92 92 91 92 91 91 91 91 90 89 89 89 90 90 90 89 88 88 89 89 91 91 90 91
90 89 90 91 92 91 92 92 93 93 93 95 94 95 94 94 93 93 92 92 93 93 93 93 92 92 92 90 89 89 90 91 92 89 88 88 89 91 93 92 90 89
91 90 91 92 93 93 92 91 92 92 94 94 94 93 94 94 93 92 92 93 93 92 94 91 90 90 91 90 88 88 89 89 90 90 88 88 88 89 93 92 90 89
92 92 92 92 93 93 92 93 93 92 93 93 95 93 94 94 92 94 94 93 94 92 92 93 91 90 93 91 89 88 89 92 91 89 88 88 88 88 89 91 90 89
93 92 92 93 94 94 95 95 94 94 94 93 95 96 94 94 93 94 92 92 92 92 91 92 91 91 92 91 90 89 89 90 92 90 89 89 88 88 89 90 89 89
92 93 94 94 95 95 95 96 96 95 94 94 95 97 95 93 94 93 93 91 92 91 91 91 91 92 91 92 91 90 89 89 90 90 91 90 90 90 90 90 90 89
94 95 94 94 95 97 97 97 97 97 95 95 95 96 96 94 92 93 91 91 91 91 91 91 91 91 91 92 92 92 91 91 90 90 90 90 90 90 90 90 90 90
94 95 95 95 96 97 98 98 98 98 97 96 96 95 96 96 93 93 92 91 91 91 91 91 91 91 90 91 93 94 92 92 92 91 91 91 91 91 91 91 91 91
95 95 94 96 95 97 98 98 98 99 98 97 96 96 96 97 96 92 92 92 91 92 92 91 91 91 90 90 91 92 92 91 92 92 91 91 92 92 93 93 93 92
95 95 94 94 95 94 95 97 98 98 97 97 95 95 96 97 97 94 93 94 92 92 92 92 91 91 90 90 90 92 92 92 92 92 93 92 92 93 94 95 94 94
93 95 94 94 94 93 93 95 95 95 96 96 94 95 96 97 97 97 94 93 93 92 92 93 93 92 92 91 90 90 92 93 92 92 92 92 92 94 94 93 94 96
92 92 92 92 92 91 91 93 95 94 95 94 94 95 94 94 94 95 96 94 93 93 93 93 93 93 86 78 81 90 91 93 93 91 91 91 91 91 93 94 95 97
91 91 91 91 91 91 91 91 92 94 93 93 93 93 92 92 94 95 97 96 94 94 93 94 95 95 77 71 73 77 89 91 91 90 91 90 91 90 89 92 94 95
92 91 90 90 90 90 90 91 92 93 92 92 93 93 91 94 94 94 93 96 96 95 95 95 95 83 70 70 71 71 77 90 93 92 92 91 91 91 91 91 92 94
90 91 90 90 90 90 90 90 90 91 91 92 93 93 93 91 91 93 93 94 95 93 94 95 96 77 67 68 69 69 70 80 93 92 92 92 92 91 91 91 91 92
90 90 90 89 90 90 90 89 90 90 92 94 94 92 90 91 92 91 92 91 93 93 92 95 97 75 67 66 67 67 68 73 89 91 92 93 92 92 92 91 91 91
90 90 89 89 89 89 89 89 89 89 91 92 94 93 91 89 91 91 91 92 93 94 94 95 99 69 65 64 64 64 66 71 87 88 90 90 91 92 91 92 92 92
91 89 89 89 88 88 88 88 88 88 89 91 92 95 93 92 92 93 92 92 92 93 94 92 96 63 65 63 63 63 64 79 85 86 86 88 89 89 90 90 91 91
91 90 89 89 88 88 88 88 88 88 89 91 91 93 94 93 92 93 92 93 92 91 92 91 95 69 62 61 62 61 67 84 84 86 86 86 87 88 89 90 90 91
91 90 89 89 88 88 88 89 90 90 91 91 92 93 95 95 94 93 94 93 93 92 93 93 95 76 59 60 60 59 71 84 85 85 85 85 86 87 89 88 89 85
92 91 90 90 88 89 90 90 90 90 91 92 93 94 94 95 93 93 94 94 97 95 84 90 96 82 58 60 58 57 71 85 85 86 85 85 86 87 88 89 89 86
92 90 90 90 89 89 90 90 91 92 92 92 93 94 95 96 96 94 94 95 96 96 95 94 94 92 71 59 57 57 63 84 86 85 85 85 87 87 88 88 88 89

ECMWFNIL_sfc_temp_054.txt.gz
Temp
85 85 85 85 85 86 85 85 87 87 85 87 87 87 86 87 88 88 89 88 88 87 88 87 87 87 88 87 88 87 87 87 87 87 87 87 86 88 88 88 88 86
85 85 84 86 84 84 85 87 86 86 85 85 87 87 87 87 89 89 88 88 88 88 88 88 87 87 87 87 86 86 85 86 86 90 87 87 86 87 89 88 89 88
86 86 86 86 87 87 90 88 87 87 88 89 88 88 89 90 89 88 88 88 88 89 87 87 87 87 87 87 86 86 86 85 85 89 87 86 87 86 87 90 89 89
85 86 87 88 89 88 89 87 87 87 88 88 88 91 91 93 89 89 88 88 87 87 88 88 88 88 87 87 86 86 86 85 86 86 86 86 86 87 87 87 88 89
87 87 88 88 89 87 88 88 90 89 89 89 90 89 88 87 88 90 88 88 87 88 87 87 88 88 87 86 86 85 86 86 86 86 85 85 86 87 87 87 86 87
87 86 87 88 88 87 88 89 89 90 90 91 90 91 90 90 89 90 89 89 90 90 89 89 88 89 89 87 86 85 86 87 87 85 85 84 86 87 89 87 86 85
88 88 89 89 90 90 89 88 89 89 90 91 90 90 90 91 90 89 88 89 90 88 90 87 86 87 87 86 85 85 85 85 86 86 84 85 84 85 88 87 85 85
89 90 89 89 90 90 89 90 90 89 90 89 91 90 90 92 90 91 90 89 90 88 88 89 87 86 89 87 85 85 85 88 87 85 84 84 84 84 85 87 87 85
89 89 89 90 91 91 92 92 91 91 91 90 91 93 91 91 91 92 88 88 88 88 87 88 86 87 88 87 86 85 85 86 88 86 85 85 85 84 85 86 85 85
89 89 90 91 91 92 92 93 93 93 92 92 92 93 92 91 91 90 89 87 88 87 87 87 87 87 87 88 86 86 85 85 85 86 86 86 86 86 86 86 86 85
90 91 90 90 91 93 93 94 94 94 93 93 93 93 93 91 89 90 88 87 88 88 87 87 87 87 87 88 88 88 87 87 86 86 86 86 86 86 87 86 86 86
90 91 91 91 92 93 93 94 94 94 93 93 93 92 92 93 90 90 89 87 88 88 88 87 87 87 86 87 90 90 88 88 87 87 87 87 87 87 87 87 87 86
91 91 91 91 91 93 94 94 94 95 94 93 93 93 93 93 92 90 89 89 88 89 89 88 87 88 86 86 88 88 88 87 88 87 87 87 88 88 89 89 88 88
92 91 91 90 91 90 91 94 94 94 94 93 92 92 93 94 93 91 90 90 90 89 89 89 88 88 87 86 87 88 88 88 87 88 88 88 88 88 89 90 89 90
90 91 91 90 90 89 90 91 92 91 92 92 90 92 93 94 95 93 91 90 90 89 89 90 90 89 89 88 87 87 88 89 88 88 88 87 87 89 89 88 90 91
88 89 89 89 89 87 87 89 91 91 91 90 90 91 90 90 91 91 92 91 90 89 90 90 90 91 85 78 80 87 87 90 88 87 87 87 86 86 88 89 91 92
88 88 88 87 87 87 87 88 89 90 90 89 89 90 89 88 90 91 92 92 91 91 90 90 91 91 78 71 73 77 86 87 87 86 87 86 87 85 85 87 89 90
88 88 87 87 87 87 87 87 89 89 88 88 90 90 88 91 91 90 90 92 91 91 91 90 91 81 72 70 71 71 77 87 88 88 88 87 87 87 87 87 88 90
87 88 87 87 87 87 87 87 87 88 88 90 91 90 91 88 88 90 89 91 91 89 91 91 91 78 68 69 69 70 70 80 88 87 87 88 87 87 87 86 86 86
88 88 87 87 87 87 87 87 87 87 90 92 92 90 88 88 90 89 89 88 90 89 88 91 91 77 66 67 68 68 69 74 86 86 87 88 87 88 89 87 86 86
88 87 87 87 87 87 86 87 87 87 89 91 93 92 89 88 90 89 89 89 91 92 90 92 95 72 65 65 65 66 68 72 84 86 86 87 87 88 87 88 87 88
89 88 87 87 87 87 87 86 87 86 87 89 91 94 92 91 90 91 90 90 90 91 92 90 94 67 64 64 65 65 66 76 83 84 84 86 86 87 87 87 87 87
90 89 88 87 87 87 86 87 86 86 87 89 90 92 92 92 90 92 90 91 90 89 90 89 92 68 63 62 63 63 67 79 82 83 84 83 84 85 86 87 87 87
90 89 88 87 87 87 87 88 89 89 90 90 90 91 92 93 92 91 91 91 91 91 91 89 92 71 59 61 62 61 70 81 82 83 83 82 83 84 84 84 86 86
91 90 89 88 87 88 89 88 88 88 90 90 92 92 92 92 91 90 91 91 94 93 84 88 93 76 56 61 59 59 69 82 82 82 82 82 83 83 84 84 85 84
91 88 88 88 87 88 88 88 89 90 90 91 91 92 92 93 92 91 91 91 93 92 91 91 91 86 65 59 58 57 63 82 82 81 81 82 83 82 83 84 84 85

ECMWFNIL_sfc_temp_057.txt.gz
Temp
80 80 80 79 80 80 79 78 78 79 79 79 79 80 80 81 82 82 82 82 82 82 81 81 81 81 83 81 79 80 80 79 80 81 81 80 80 81 83 82 81 79
81 80 81 79 78 79 80 80 79 79 78 78 80 79 80 81 82 82 81 81 82 82 82 82 81 81 81 80 79 79 79 80 80 83 80 80 80 80 82 81 81 80
81 80 80 80 80 79 82 82 80 80 80 80 80 80 81 82 82 81 82 82 82 83 82 81 81 81 81 80 80 80 80 78 78 80 79 79 80 81 80 82 81 82
81 81 82 82 82 81 81 81 81 81 82 80 80 82 84 85 82 82 81 83 81 82 82 82 82 82 81 81 80 80 80 79 79 79 79 79 80 80 80 80 82 80
82 82 82 83 83 82 82 81 81 82 82 82 83 81 82 82 82 82 81 81 81 81 81 81 81 82 81 81 80 79 79 79 79 79 79 78 78 80 80 79 78 79
82 82 82 82 82 82 82 82 81 82 82 83 83 84 82 82 83 83 82 82 82 82 82 82 82 82 82 81 80 80 80 80 80 79 79 78 78 79 83 81 79 78
82 82 82 83 83 83 83 83 82 82 83 84 83 83 84 82 81 83 83 83 83 83 83 82 81 81 81 81 80 79 79 79 79 79 79 78 78 78 80 80 79 78
83 83 83 83 83 83 83 83 83 83 83 83 83 83 84 85 83 83 84 84 84 83 83 82 81 81 82 81 80 79 80 82 80 79 79 79 78 78 78 80 78 77
84 84 83 83 84 84 84 84 84 84 84 84 84 85 84 85 85 84 82 83 84 83 82 82 81 82 82 81 80 80 80 81 82 79 79 79 78 78 79 79 79 78
84 84 84 84 84 85 85 86 86 86 85 85 85 86 85 85 85 85 83 82 83 82 82 82 81 82 82 82 81 80 80 80 80 80 79 79 79 79 79 79 79 78
84 85 85 84 85 86 86 87 87 87 87 86 86 86 86 85 84 85 83 82 83 83 82 82 82 82 82 83 82 82 81 81 80 79 80 80 79 79 81 79 79 79
85 85 85 85 86 86 87 88 88 88 88 87 87 87 87 87 85 85 84 82 83 83 83 83 83 82 82 83 83 83 81 81 81 80 80 80 81 80 80 80 80 80
85 85 85 86 86 87 87 88 88 89 89 88 88 88 87 87 86 85 85 84 83 84 84 83 83 83 82 82 83 83 81 81 81 81 81 80 80 81 82 81 81 81
86 86 85 85 86 86 86 88 88 88 88 88 87 87 88 87 87 86 85 85 84 84 84 84 83 83 82 82 82 83 82 81 81 81 81 81 81 81 82 83 82 83
85 86 86 85 85 85 85 86 87 87 87 87 86 87 88 88 88 87 86 85 85 84 84 85 84 84 84 83 82 82 83 82 81 82 81 81 81 82 82 82 82 83
85 85 85 85 84 84 84 85 86 87 87 86 86 87 87 87 87 87 87 85 85 84 85 85 84 85 81 75 77 83 82 84 82 82 82 81 80 81 82 82 84 85
84 84 85 84 84 84 84 84 85 86 86 85 85 86 86 86 86 86 87 87 86 85 85 85 86 86 75 70 72 75 82 82 82 81 81 81 81 80 80 82 83 83
84 84 84 83 83 83 84 84 85 85 85 85 85 85 85 86 86 85 85 87 86 86 85 85 86 79 70 69 70 70 76 83 83 81 81 81 81 81 81 81 82 83
84 84 84 83 83 83 84 84 84 84 85 85 85 86 86 85 85 85 84 86 86 85 85 86 86 76 68 68 69 69 70 79 84 83 81 81 82 82 81 80 80 81
84 84 84 83 83 83 83 83 84 84 85 87 86 85 84 85 85 85 84 83 85 85 84 86 85 76 67 66 66 67 68 73 83 82 82 82 81 82 83 81 80 80
84 84 83 83 83 83 83 83 83 84 85 86 87 86 84 84 85 85 85 84 85 86 85 86 88 73 66 64 64 65 66 70 82 82 82 82 81 81 82 83 82 81
85 84 84 84 83 83 83 83 83 83 83 85 87 87 86 86 86 87 86 85 84 85 85 85 88 69 65 64 64 64 66 74 80 81 81 81 81 80 80 82 83 83
86 85 84 84 83 83 83 83 83 83 84 85 86 87 86 85 85 87 86 86 85 84 84 84 86 71 64 63 63 63 66 77 79 80 81 80 81 80 80 81 82 82
87 86 85 84 84 83 83 84 85 85 86 86 86 87 87 87 87 87 87 87 86 86 85 84 87 73 61 62 62 61 67 77 79 79 80 80 80 80 79 79 80 84
88 87 86 85 84 84 85 84 85 85 86 86 87 88 88 88 87 87 87 87 88 88 82 85 87 75 59 62 61 60 67 78 79 79 79 79 79 79 80 80 79 81
88 86 86 86 85 85 85 85 86 86 86 86 87 88 88 88 87 87 87 87 87 87 87 87 87 82 65 60 60 59 62 78 79 79 78 78 79 79 79 79 80 80

ECMWFNIL_sfc_temp_060.txt.gz
Temp
78 78 79 79 79 78 76 76 76 77 77 78 78 78 79 79 79 80 79 79 79 79 79 79 79 79 80 78 78 78 78 78 79 78 78 78 77 78 79 78 77 76
78 78 79 79 78 77 76 77 76 77 77 78 78 79 79 79 79 80 79 79 79 79 79 79 79 79 79 79 77 77 76 78 78 80 77 77 77 78 79 78 78 77
78 78 78 79 80 79 79 77 76 77 77 78 79 78 79 79 79 78 79 79 79 80 79 79 79 79 79 79 78 78 78 76 77 78 78 77 77 77 78 79 77 77
79 79 79 80 81 80 80 77 75 76 76 76 77 79 80 81 79 79 78 80 78 79 79 79 79 79 79 79 78 77 77 77 78 77 77 77 77 78 78 78 78 77
80 79 80 80 81 81 80 79 78 77 77 78 78 78 78 78 78 78 78 78 78 78 78 79 79 79 78 78 78 77 77 77 76 76 76 76 76 77 78 78 77 77
80 80 80 80 80 79 80 80 79 79 78 78 78 78 79 78 78 78 78 78 78 79 79 79 79 79 79 78 78 78 78 77 77 76 76 76 76 77 79 78 77 76
80 80 80 81 80 80 80 80 80 80 80 80 78 78 79 79 78 79 78 79 79 79 79 79 78 79 79 79 78 77 77 77 77 76 76 76 76 76 77 77 77 76
80 81 81 81 81 80 80 80 80 80 80 80 79 79 79 80 79 80 79 79 79 79 79 79 79 78 79 79 78 78 77 78 78 76 76 76 75 76 76 77 76 75
81 81 80 80 81 81 81 81 80 80 80 80 81 81 80 80 80 80 79 79 79 79 79 79 79 79 79 79 79 78 78 78 79 77 76 76 76 76 76 76 76 75
80 81 81 81 81 81 81 82 83 82 80 80 81 82 81 81 81 80 79 79 79 79 79 79 79 79 79 79 79 79 78 78 78 78 77 77 77 76 76 76 76 75
81 81 81 81 81 82 82 83 83 83 82 81 81 81 82 81 81 80 79 78 79 79 79 79 79 79 79 79 80 80 79 79 79 78 78 77 77 77 78 76 76 77
81 81 81 81 81 82 83 83 84 84 83 83 82 82 81 82 81 81 81 79 79 80 80 80 80 80 79 80 80 80 79 79 79 79 78 78 77 77 77 77 77 77
82 82 82 82 82 82 83 83 84 84 84 84 84 83 83 82 82 81 81 81 80 80 80 80 80 80 79 80 80 80 79 79 79 78 79 79 78 78 78 78 78 78
83 83 82 82 82 82 82 83 83 83 84 84 83 83 83 83 83 82 82 82 81 81 81 81 80 80 80 80 80 80 79 79 79 78 78 78 78 79 79 79 78 79
82 83 83 82 82 81 81 82 82 82 83 83 83 83 83 84 84 84 82 82 82 81 81 82 81 81 81 80 80 79 80 79 79 79 79 78 78 78 78 78 79 80
82 82 82 82 81 80 80 81 82 82 82 82 82 83 83 83 83 84 84 83 82 82 82 82 81 82 79 73 75 81 80 81 79 79 79 78 78 78 78 78 79 80
82 81 82 81 81 81 81 80 81 82 82 81 82 82 82 82 83 83 84 84 83 83 82 82 83 83 74 69 70 73 80 80 79 78 78 78 78 77 77 78 79 79
82 82 81 81 81 80 81 81 81 81 81 81 82 82 82 83 83 83 83 84 84 84 83 83 83 77 70 68 69 69 73 81 80 79 79 78 78 78 78 79 79 79
82 82 81 81 81 81 81 81 80 80 81 81 82 83 83 81 82 83 83 83 84 83 83 83 83 75 68 67 67 67 68 76 81 80 79 79 79 79 79 78 78 78
82 82 81 81 81 81 81 80 80 80 82 83 83 83 82 82 83 82 82 82 83 83 82 84 83 75 67 66 66 66 66 70 81 80 80 80 79 79 80 79 79 78
82 81 81 81 81 81 81 80 80 81 81 82 84 83 82 82 82 82 83 83 83 84 83 83 85 73 66 65 64 64 65 68 79 80 80 80 79 79 79 80 79 79
83 82 81 81 81 81 80 80 80 80 80 82 83 84 84 84 83 84 83 83 83 83 83 82 85 70 65 64 63 62 64 71 77 79 79 79 79 79 79 80 80 80
83 83 82 82 81 81 80 81 80 80 81 83 82 83 84 83 83 84 84 84 83 83 82 83 84 73 64 63 62 62 64 73 76 78 79 79 79 79 79 79 80 80
83 84 83 82 82 81 81 82 82 83 83 83 83 83 83 84 85 84 85 85 84 83 83 83 84 76 62 62 61 61 66 75 76 77 78 78 79 79 79 79 80 82
84 84 84 83 82 82 83 82 82 83 83 83 84 84 84 85 84 84 84 85 85 85 80 82 84 78 61 61 60 60 66 77 78 77 77 78 78 79 79 79 79 80
85 84 84 84 83 83 83 83 84 84 83 83 84 85 85 85 85 84 84 84 85 84 85 83 84 84 71 59 60 59 61 76 78 77 77 77 78 78 78 78 79 79

ECMWFNIL_sfc_temp_063.txt.gz
Temp
76 75 75 75 74 75 75 74 75 75 75 76 75 76 76 77 77 77 77 77 77 77 77 77 77 77 78 76 76 76 76 76 77 76 76 75 75 75 77 76 74 73
76 76 76 76 74 75 74 75 75 75 75 75 76 76 76 76 76 77 77 77 77 77 77 77 77 77 76 76 75 75 75 75 76 77 76 75 75 75 76 75 75 74
77 76 76 76 76 75 76 75 75 75 76 76 76 76 76 77 76 76 76 77 76 77 76 77 77 76 76 75 75 75 76 74 75 76 76 75 75 75 75 76 75 75
77 77 77 78 78 77 77 75 74 74 75 75 75 77 77 78 77 76 76 78 76 76 76 76 77 77 76 76 75 75 75 75 76 76 76 76 76 76 76 75 76 75
77 77 78 78 78 78 77 76 75 74 75 76 76 76 76 76 76 76 75 76 76 76 76 76 76 77 77 76 75 75 75 74 74 74 74 75 75 76 76 75 75 75
78 77 77 77 78 77 77 77 76 75 75 75 76 77 76 76 76 76 76 76 76 76 76 76 76 77 77 76 76 76 76 76 75 73 73 74 74 75 77 76 75 75
78 77 77 78 78 77 77 78 77 77 76 77 76 76 76 76 76 76 76 76 76 76 76 76 76 76 76 76 76 75 75 75 74 74 74 74 74 74 74 75 75 74
79 78 78 78 78 78 78 78 78 77 76 75 75 76 76 77 76 77 76 76 76 76 76 76 76 76 76 76 76 75 75 76 76 74 74 74 73 74 74 75 74 73
79 79 78 78 78 78 78 79 79 78 77 76 76 77 76 77 77 77 76 76 76 76 75 76 76 76 76 76 76 76 76 76 76 75 75 75 74 74 74 74 74 74
78 79 79 79 78 79 79 79 80 80 78 77 78 78 76 76 77 77 76 75 75 75 75 75 75 76 76 76 76 76 76 76 76 75 75 75 75 75 75 74 74 74
79 79 79 79 79 80 79 80 80 80 80 79 79 78 78 77 76 76 75 75 76 76 75 75 76 76 76 76 77 77 77 77 76 75 75 75 75 75 77 75 74 74
79 79 79 79 79 80 80 81 81 80 80 80 79 79 78 78 77 76 76 75 76 76 76 76 76 76 76 77 77 77 77 77 77 76 76 76 75 75 75 75 75 75
79 79 80 80 80 80 81 81 81 81 81 80 80 80 79 79 78 77 77 76 76 76 77 76 76 76 76 76 77 77 77 77 77 76 76 76 76 76 76 75 76 76
80 80 80 80 80 80 80 80 81 80 80 80 79 79 79 79 79 78 77 77 77 77 77 77 76 76 76 76 77 77 77 77 77 77 76 76 76 76 76 76 76 76
80 80 80 80 80 79 79 79 80 80 80 80 79 79 79 80 80 80 78 77 77 77 77 77 77 77 77 77 77 76 77 77 77 77 77 76 76 76 76 76 76 77
79 79 79 79 79 78 78 79 79 79 79 79 79 79 79 79 78 79 79 79 78 78 77 78 78 79 76 71 73 78 77 78 78 77 77 76 76 76 76 76 77 77
79 79 79 78 78 78 78 78 78 79 79 78 78 78 78 78 78 78 80 80 79 79 78 78 80 80 72 68 68 71 77 77 77 77 77 76 76 76 75 76 76 77
79 79 78 78 78 78 78 78 78 78 78 78 78 78 78 79 79 79 78 80 80 80 80 80 80 75 69 67 67 67 71 78 78 78 77 76 76 76 76 76 76 76
79 79 78 78 78 78 78 78 77 77 78 78 78 79 79 77 78 79 79 79 80 79 80 81 80 74 68 66 66 66 66 73 79 78 77 77 77 77 77 76 76 76
80 79 79 79 79 78 78 78 77 77 79 80 80 79 78 78 79 79 79 78 79 79 79 81 80 74 67 65 65 65 65 68 78 78 78 78 77 77 77 77 76 76
80 79 79 79 79 79 78 78 78 78 78 79 80 80 79 78 79 79 79 79 80 80 80 80 83 72 66 64 63 63 64 66 76 78 78 78 78 78 77 78 77 77
81 80 80 80 79 79 78 78 78 78 78 79 80 81 81 80 80 80 80 79 80 80 80 80 83 71 66 63 62 62 63 69 73 76 77 77 77 77 77 77 78 78
82 81 80 80 80 79 79 79 78 78 79 80 79 80 80 80 80 81 81 81 80 80 79 80 81 74 65 63 61 61 63 70 72 75 76 77 77 77 77 78 78 78
80 81 80 80 80 79 79 80 80 80 80 80 80 80 80 81 82 81 82 82 81 80 81 80 81 76 64 61 60 60 65 72 73 74 75 76 77 77 77 77 78 81
79 80 80 80 80 80 81 80 80 80 81 81 81 81 81 82 82 82 82 82 83 82 79 80 82 78 64 61 59 59 64 73 74 74 74 75 76 77 77 78 77 79
78 79 80 80 80 80 81 81 81 81 81 81 81 82 81 82 82 82 81 82 82 82 82 81 82 82 75 60 59 58 60 73 75 74 74 75 76 76 76 76 77 77

ECMWFNIL_sfc_temp_066.txt.gz
Temp
76 75 75 74 74 75 74 75 75 76 75 76 76 76 76 77 78 78 78 78 78 78 78 78 78 78 79 78 78 78 78 78 78 78 78 78 78 78 79 78 78 77
76 76 76 75 74 74 74 75 75 76 75 76 77 77 77 77 77 78 78 78 78 78 78 78 78 78 78 78 77 77 77 77 77 79 78 78 78 78 79 78 78 77
76 76 76 75 75 75 76 75 75 76 76 77 77 77 77 78 77 77 78 78 78 78 78 78 78 78 78 78 77 78 78 77 77 79 78 78 78 78 79 79 79 78
76 76 77 77 77 76 75 75 74 75 76 76 76 78 78 79 78 77 77 79 78 78 78 78 78 79 78 78 77 77 78 77 78 78 78 78 78 79 79 78 79 79
77 77 77 77 77 76 75 75 75 75 75 76 77 77 77 77 77 77 77 77 77 78 78 78 78 78 78 78 78 77 77 78 77 77 77 77 78 78 79 78 78 78
77 77 77 77 77 75 75 75 75 75 76 76 76 77 77 77 77 77 77 77 78 78 78 78 78 79 79 78 77 77 78 78 78 77 77 77 78 78 79 79 78 78
78 77 77 78 78 77 76 75 75 76 76 77 76 76 77 77 77 77 77 77 78 78 78 78 77 78 78 78 77 77 77 77 77 77 77 77 77 77 78 78 78 77
78 78 78 77 78 77 77 76 76 76 76 75 76 76 77 77 77 77 77 77 77 77 77 78 77 77 78 78 78 77 77 78 77 77 76 77 76 77 77 77 78 77
78 78 78 77 78 78 78 79 78 77 76 76 76 77 76 77 77 77 77 77 77 77 77 77 77 77 78 77 77 77 77 78 78 78 77 77 77 77 77 77 77 77
78 78 79 78 78 79 79 79 80 79 77 77 77 78 77 77 77 77 77 76 76 76 76 77 77 77 77 77 77 77 77 77 77 77 78 78 78 78 78 77 77 77
79 79 78 78 78 79 79 80 80 80 78 78 78 77 77 77 76 77 76 76 76 77 76 76 77 77 77 77 78 78 78 78 78 77 77 78 78 78 78 78 77 77
79 79 79 79 79 79 80 80 81 80 80 79 79 78 77 77 76 76 76 75 76 77 77 77 77 77 77 78 78 78 78 78 78 78 78 78 78 78 78 78 78 78
79 79 79 79 79 80 80 80 80 81 81 80 79 79 78 77 77 76 76 77 76 77 77 77 77 77 77 77 77 78 78 78 78 78 78 78 78 78 79 78 79 79
80 80 79 79 79 78 79 80 80 80 80 80 79 78 79 79 78 77 77 77 77 77 77 77 76 77 76 77 77 77 78 78 78 78 78 78 78 78 79 79 79 79
79 80 79 79 79 78 78 78 79 78 79 79 78 79 80 80 80 79 77 76 77 77 77 77 77 77 77 77 77 77 78 78 78 78 78 78 78 78 78 78 79 79
78 78 78 78 78 77 77 78 78 78 78 78 78 78 78 78 78 78 79 78 77 77 77 77 77 78 75 71 72 78 77 78 78 78 78 78 78 77 78 78 79 80
78 78 78 77 77 77 77 77 77 78 77 77 77 77 77 76 77 78 79 80 79 79 78 78 79 79 72 67 67 70 77 78 78 77 78 78 78 77 77 78 78 79
78 78 77 77 77 76 77 77 77 77 76 76 77 77 76 78 78 77 77 79 80 80 79 79 80 74 68 66 66 66 70 78 79 78 78 78 78 78 78 79 79 79
78 78 77 77 77 77 77 77 76 76 77 77 78 78 78 76 75 77 77 78 79 78 79 80 81 72 67 66 66 66 65 72 79 79 78 78 78 78 78 78 78 78
78 78 77 77 77 77 77 76 76 76 78 79 79 78 77 77 78 77 77 76 77 77 77 80 80 73 66 65 64 64 65 67 77 78 79 79 79 79 79 79 78 78
78 78 77 77 77 77 76 76 76 76 77 78 80 79 77 77 78 78 77 78 79 79 79 80 82 71 65 63 63 63 64 66 75 77 78 78 79 79 79 79 79 79
79 78 78 78 77 77 77 76 76 76 76 78 79 80 80 80 79 79 79 79 79 79 79 79 82 70 65 63 62 62 63 70 74 75 77 78 78 78 79 79 79 79
80 79 78 78 78 77 77 77 77 76 77 78 78 79 80 80 80 80 79 80 79 79 78 79 81 73 64 62 61 61 63 72 73 75 76 77 78 78 79 79 79 79
74 78 79 78 78 77 78 78 79 79 79 79 79 79 80 81 81 81 81 81 81 80 81 79 81 75 64 61 60 60 65 73 73 74 75 76 77 78 78 78 79 79
73 74 77 80 78 79 80 79 79 79 80 80 81 81 80 81 81 81 81 81 83 82 77 79 81 77 65 61 60 58 64 74 74 75 74 75 76 77 78 79 78 79
72 72 73 76 79 79 80 80 81 81 81 81 81 81 81 82 82 81 81 82 83 82 83 81 81 81 76 61 59 57 60 74 75 74 74 75 76 77 77 77 78 79

ECMWFNIL_sfc_temp_069.txt.gz
Temp
83 83 83 82 83 84 84 84 85 85 84 86 86 86 85 86 86 86 86 86 85 86 85 85 85 85 86 86 85 85 86 86 87 87 86 86 87 87 88 87 87 86
82 83 83 83 82 83 83 85 84 84 84 84 86 86 86 86 86 86 85 85 85 86 86 86 86 85 86 87 86 86 85 86 86 89 86 85 86 87 88 87 87 87
83 83 83 83 84 84 86 85 85 85 86 86 86 85 86 87 86 85 85 86 86 87 85 85 86 85 86 86 85 86 87 85 85 89 86 86 87 86 87 90 89 88
83 83 85 85 86 85 85 84 84 84 86 85 86 87 87 88 86 86 85 85 85 86 86 86 86 87 86 86 85 86 86 85 87 87 86 86 86 87 87 88 89 89
84 84 85 85 86 85 85 84 86 85 86 86 87 86 85 84 85 86 85 85 85 86 86 85 86 86 86 85 85 85 86 86 87 85 85 85 86 86 88 88 87 87
84 84 84 84 85 84 85 85 85 86 86 87 86 87 87 86 86 86 86 86 87 87 88 88 87 87 87 86 85 85 87 88 88 85 85 85 87 88 89 88 87 86
85 84 84 85 86 85 84 84 85 85 86 87 86 86 87 86 85 85 85 86 87 87 88 86 85 86 87 86 85 84 85 85 86 85 84 86 86 86 88 87 86 86
86 86 85 85 86 86 84 85 85 85 85 85 86 86 86 87 86 87 86 86 87 86 86 87 85 85 87 87 85 85 85 88 86 85 84 85 85 85 86 87 86 85
86 86 85 85 86 86 87 87 87 86 86 85 86 88 86 87 87 87 85 85 86 85 85 86 85 86 86 86 85 85 85 87 87 86 85 85 85 85 86 86 86 85
85 86 87 87 86 87 87 88 89 88 86 86 87 88 87 86 87 87 85 84 85 84 85 85 85 86 86 86 85 85 85 85 85 85 86 86 86 86 87 86 86 85
86 87 86 86 87 88 88 89 89 89 87 87 87 88 88 87 85 86 84 84 85 85 85 84 85 85 85 87 87 87 86 87 86 86 86 86 86 86 85 86 86 86
86 87 87 87 87 88 89 89 90 89 89 88 88 87 87 88 86 86 85 84 84 85 85 85 85 85 85 86 88 88 87 87 87 86 86 86 86 87 87 87 87 86
87 87 86 87 87 88 89 89 89 90 90 89 88 88 87 87 87 85 85 85 85 85 86 85 85 86 84 85 86 86 86 86 87 87 86 87 87 87 89 88 88 88
87 87 86 86 87 85 86 88 89 89 88 88 87 87 87 88 88 87 86 87 86 86 86 86 85 86 85 85 85 86 86 86 86 86 87 87 87 87 88 89 89 89
85 86 86 85 85 84 84 85 86 86 86 87 86 86 88 88 89 89 87 86 87 86 86 87 87 87 87 86 85 85 86 87 86 86 86 86 86 88 88 87 88 89
84 84 84 84 84 83 82 84 85 85 85 85 85 86 86 85 86 86 88 87 86 86 86 87 87 88 81 74 76 86 86 88 87 86 86 86 85 85 87 88 88 90
83 83 83 82 82 83 83 82 83 84 84 83 84 84 84 83 84 85 87 88 87 87 86 87 88 88 74 68 68 71 83 86 85 85 85 85 85 84 84 86 88 88
84 83 82 82 82 82 82 82 83 83 82 83 83 84 83 85 85 84 84 87 87 88 88 88 88 78 69 67 67 66 71 84 87 86 86 86 85 86 86 86 87 88
84 83 83 82 82 82 82 82 82 82 82 83 84 84 85 83 82 84 84 85 86 85 87 88 89 76 68 66 66 66 65 74 86 86 86 86 86 86 86 85 86 86
83 83 83 82 82 82 82 82 82 81 84 85 86 84 83 83 84 83 84 83 84 84 84 87 88 77 67 65 64 64 65 68 82 84 85 87 86 87 87 86 85 85
84 83 83 83 83 83 82 82 82 82 83 84 87 86 83 82 84 84 84 84 85 86 86 87 89 73 66 64 63 62 63 66 80 82 84 85 85 86 85 86 86 86
81 83 83 83 83 82 82 82 82 81 81 83 85 87 87 86 85 86 85 85 85 86 86 85 89 71 65 63 62 62 63 74 79 80 82 84 84 84 85 85 86 86
77 77 79 83 83 82 82 82 82 82 82 84 84 85 87 86 86 87 85 86 86 85 84 85 88 76 64 62 61 60 65 77 78 80 81 82 83 84 85 85 85 86
75 77 77 78 81 82 82 83 85 85 85 85 84 85 86 88 88 87 87 87 87 86 87 86 87 78 63 62 60 59 67 78 80 80 81 81 82 83 84 84 85 80
73 75 76 77 77 81 85 84 84 85 86 86 86 86 86 87 87 87 88 87 90 89 80 84 88 81 63 62 59 59 66 79 80 81 80 81 82 83 84 85 84 82
71 71 73 75 76 77 80 84 86 87 86 86 86 87 87 88 88 87 87 88 89 89 90 88 87 88 78 60 60 58 60 77 81 80 80 80 82 82 83 84 84 85

ECMWFNIL_sfc_temp_072.txt.gz
Temp
88 89 89 89 89 90 89 89 91 90 89 92 93 92 92 92 92 92 92 92 91 91 90 89 89 89 90 89 88 89 89 88 90 91 90 90 91 91 92 91 91 92
88 88 88 90 89 89 89 91 90 90 89 89 92 93 92 92 93 92 91 91 91 91 91 91 90 89 89 91 89 89 89 89 89 94 90 89 90 92 92 92 92 92
89 89 89 89 91 90 93 91 90 91 91 92 92 92 93 93 92 92 91 92 91 93 91 90 90 90 90 90 89 89 90 88 88 93 90 89 91 91 92 94 93 92
88 89 91 91 92 92 92 91 91 90 92 92 92 94 93 96 93 92 91 90 91 91 92 91 91 92 91 90 89 90 90 89 90 90 89 90 90 92 92 93 93 93
89 89 91 91 92 92 91 91 92 92 92 92 93 92 91 91 91 92 91 91 90 91 91 90 91 91 90 90 90 89 90 91 91 90 89 89 90 91 92 92 91 91
90 89 89 91 91 91 91 92 91 93 92 94 92 94 93 92 92 92 92 92 93 93 93 93 92 92 92 91 90 90 91 93 93 90 89 88 91 93 95 93 91 90
91 90 91 92 92 92 91 91 91 91 94 94 93 92 93 93 92 91 92 92 93 93 94 92 90 91 92 91 89 89 89 90 91 90 88 90 89 90 93 92 90 89
92 93 92 92 93 93 91 92 92 92 92 92 93 92 93 94 92 94 93 92 93 93 92 93 91 89 93 92 90 89 90 93 92 89 88 88 89 89 90 91 91 89
92 93 92 92 93 94 95 95 94 93 93 92 93 95 93 93 94 94 92 92 92 92 91 92 90 91 92 92 91 90 89 92 94 92 89 89 89 89 90 91 90 90
91 92 94 94 94 95 95 96 97 96 93 93 94 96 95 93 93 93 92 90 91 90 91 90 91 91 92 92 91 91 90 89 90 90 91 91 90 91 92 91 91 90
93 94 94 94 94 96 97 97 97 98 95 94 95 95 96 95 92 92 91 90 91 91 90 90 91 91 91 93 93 93 92 92 91 90 91 91 91 91 90 91 91 91
93 94 94 94 95 96 97 97 98 98 98 96 96 95 94 96 94 93 92 90 90 91 91 91 90 91 91 91 94 94 93 93 93 92 92 92 92 92 92 92 92 91
95 94 93 95 94 95 96 97 97 98 98 97 96 95 95 96 96 93 92 92 90 91 92 91 91 92 90 90 92 93 93 92 93 93 93 93 93 93 95 94 94 94
94 94 93 92 94 92 93 96 97 97 96 97 95 94 95 96 96 95 94 93 93 93 92 92 91 91 90 90 91 92 93 93 92 93 94 94 94 94 95 96 96 96
91 93 93 92 92 91 91 92 93 94 94 94 94 94 96 96 96 97 94 93 94 93 93 94 94 93 93 92 91 91 92 93 93 93 93 92 93 95 95 94 95 97
89 89 90 90 90 89 89 90 92 92 93 92 93 93 92 92 93 94 96 95 93 93 93 95 94 96 88 79 81 92 92 94 94 92 92 92 91 91 94 95 96 97
88 88 88 88 88 88 88 88 89 91 90 90 90 91 90 90 91 92 94 95 95 94 94 95 96 96 79 71 72 74 89 92 92 91 91 90 92 90 89 92 95 96
88 88 87 87 88 87 87 87 88 88 88 89 89 90 89 91 91 90 90 93 95 95 95 95 96 83 72 69 70 70 75 90 93 93 93 92 91 91 92 92 93 95
87 87 87 85 86 87 87 87 87 87 88 89 90 90 91 88 88 90 90 91 92 92 94 95 96 81 70 68 68 68 68 78 92 91 92 93 93 92 91 91 91 92
82 84 86 85 87 87 87 86 86 86 89 91 91 90 88 88 90 89 89 88 90 90 90 94 94 82 69 66 66 66 66 71 87 88 90 92 92 92 93 92 90 90
83 82 83 85 86 86 85 86 86 87 88 89 92 91 89 87 89 89 89 90 91 91 91 93 96 77 68 64 64 63 64 68 85 86 88 89 90 91 90 92 91 92
81 82 83 83 84 85 85 85 86 86 86 88 89 93 93 92 91 91 91 90 91 91 92 91 95 74 67 64 62 62 63 78 83 84 85 87 88 88 89 89 90 90
77 79 81 83 83 82 83 84 85 86 87 89 89 90 93 93 92 93 91 92 91 90 90 90 93 79 66 63 61 61 66 82 83 85 85 85 86 88 88 89 90 90
74 75 78 80 82 83 83 83 84 87 88 90 89 90 92 94 94 94 93 93 93 92 93 91 92 82 64 62 60 60 69 83 84 85 85 85 85 86 88 88 89 82
78 75 75 77 78 82 84 82 80 78 79 81 86 88 86 91 93 94 94 94 96 95 85 89 93 86 64 62 60 59 68 83 84 86 85 85 87 87 88 89 88 85
80 77 75 75 76 79 80 78 77 74 74 76 74 77 81 83 83 91 93 95 96 95 96 94 93 93 82 60 60 57 61 81 85 84 84 85 87 86 88 88 89 89

ECMWFNIL_sfc_temp_078.txt.gz
Temp
87 87 87 86 86 87 86 87 88 88 87 88 87 88 88 87 88 88 88 88 88 88 87 86 86 85 87 87 86 83 81 84 85 85 86 87 87 88 90 90 88 86
87 87 86 87 86 87 87 88 88 87 86 87 88 88 88 88 89 89 88 88 88 89 88 88 87 87 87 86 86 85 84 84 84 90 86 87 86 87 88 88 89 87
88 88 88 88 89 89 91 90 88 89 89 90 90 89 90 91 90 88 88 89 88 90 88 87 87 87 87 87 86 85 85 84 83 87 85 86 88 85 86 91 91 90
87 88 89 90 90 90 90 89 89 88 90 89 90 92 92 93 90 90 88 88 88 88 88 89 88 88 88 87 85 84 85 83 84 85 83 83 86 88 86 88 90 91
89 89 90 90 90 89 89 90 90 90 90 90 91 90 89 89 88 90 89 88 88 89 88 88 89 89 87 87 86 84 85 84 85 85 84 84 85 87 89 87 85 88
88 88 88 89 90 89 90 90 90 91 90 92 91 92 91 90 90 90 90 90 91 91 91 91 89 90 90 87 87 86 87 87 88 86 85 85 86 88 91 88 86 87
86 88 90 91 92 91 90 90 90 90 92 92 91 90 91 91 90 89 89 89 91 89 91 88 87 88 88 87 86 86 86 86 87 86 85 86 85 86 90 88 87 87
78 77 86 91 92 92 91 91 91 90 91 91 92 91 91 92 90 92 91 90 91 90 88 90 88 87 90 89 87 86 86 90 89 85 85 86 86 85 86 88 88 86
79 79 80 87 92 93 93 94 93 93 92 91 93 94 92 92 92 92 89 89 89 89 88 89 87 89 89 88 87 86 86 88 90 87 86 86 86 86 87 87 87 86
82 83 85 87 91 93 93 94 95 94 93 93 94 95 93 91 91 91 90 87 88 88 88 88 88 89 89 89 88 87 87 86 87 87 87 87 87 87 88 87 87 86
86 83 85 88 89 92 95 95 96 96 94 93 94 94 95 93 90 91 89 88 90 88 88 88 89 89 88 90 90 90 88 89 87 86 87 87 88 87 88 87 87 87
81 84 82 86 89 88 91 96 96 96 96 94 94 93 93 95 91 91 91 88 88 89 89 88 88 88 88 88 91 91 90 90 89 88 88 87 88 89 88 88 88 87
80 80 82 87 89 89 91 93 96 97 97 96 95 94 94 95 94 90 90 90 89 90 90 89 88 89 87 87 89 89 89 88 90 89 88 88 89 90 91 90 90 90
78 78 78 79 87 89 90 92 94 95 95 95 94 93 94 94 95 93 91 92 91 90 90 89 89 89 88 88 88 89 90 89 89 89 90 89 90 89 91 92 91 92
78 78 82 80 81 84 87 89 91 90 90 91 91 93 96 95 96 96 93 91 92 90 90 91 92 91 91 90 88 88 89 90 89 89 89 88 88 91 90 90 91 93
76 77 77 78 76 75 75 77 82 81 82 82 87 92 91 90 91 91 95 93 91 91 91 93 92 93 87 81 83 89 88 91 90 88 88 87 87 87 90 91 93 94
76 76 77 77 79 79 78 79 79 80 80 81 81 85 89 89 90 91 94 95 94 93 92 93 94 94 81 73 74 78 88 88 88 86 87 87 88 86 85 89 91 91
73 74 77 77 75 74 75 78 79 78 78 77 77 81 80 82 85 88 89 92 94 95 94 94 94 85 75 71 72 72 78 88 90 89 89 88 88 88 88 88 89 91
76 76 76 75 73 74 75 77 78 77 77 79 79 78 80 80 80 80 80 84 89 90 92 95 95 82 73 69 71 71 72 81 90 88 89 90 89 88 88 87 87 87
76 76 75 75 74 75 75 76 76 77 78 80 80 79 79 79 80 80 80 80 81 83 86 91 93 85 73 68 68 69 70 75 86 86 88 90 88 89 91 88 87 86
75 76 76 76 76 75 75 75 75 76 78 80 80 79 78 78 78 78 79 80 83 84 86 90 94 80 73 65 66 67 69 73 84 86 87 87 87 88 86 89 87 89
75 75 76 76 75 75 74 74 74 74 75 78 79 79 78 78 77 78 78 79 81 83 84 86 91 76 72 64 63 64 67 76 83 83 84 86 85 85 86 85 86 87
72 73 75 76 76 75 73 74 75 75 76 77 77 78 78 78 78 79 79 80 81 82 83 84 87 80 71 65 61 62 67 77 81 84 84 84 85 85 85 86 86 86
74 74 75 76 76 75 74 74 75 76 76 77 76 77 78 79 80 80 81 82 82 82 85 85 87 82 71 66 60 60 69 79 80 82 83 83 83 84 84 84 86 86
77 76 75 75 74 74 75 75 75 75 76 77 77 77 78 79 80 80 81 82 85 86 83 85 87 84 72 66 59 58 67 79 81 82 82 83 84 84 85 85 85 85
78 76 75 74 74 75 75 73 75 75 76 76 76 77 77 79 80 81 82 83 84 85 87 88 88 88 84 69 59 57 60 79 82 81 82 83 84 84 84 85 85 85

ECMWFNIL_sfc_temp_084.txt.gz
Temp
77 77 77 77 77 78 77 77 77 78 77 78 78 78 78 79 79 79 80 79 79 79 78 77 77 77 79 78 77 77 77 76 77 77 77 77 77 77 81 80 78 76
77 77 78 78 78 78 77 78 78 78 77 77 78 78 79 80 80 80 79 79 79 79 78 78 77 77 77 77 77 76 76 77 77 80 77 77 77 77 79 79 78 77
77 77 77 77 78 78 80 79 78 78 78 78 79 79 79 81 81 79 80 80 79 79 78 78 77 77 77 77 77 77 77 75 76 76 77 76 76 77 78 80 79 79
78 78 78 79 79 79 79 79 78 78 78 78 78 81 81 83 81 80 79 81 79 79 79 78 78 78 78 77 77 77 76 76 77 76 77 76 77 77 78 78 79 79
79 78 78 78 78 78 79 79 80 79 79 79 80 79 79 79 79 80 79 80 79 78 78 78 78 79 78 77 78 77 77 77 77 76 76 76 76 77 79 79 78 78
78 78 78 79 78 78 79 78 79 80 80 80 80 80 80 80 80 80 80 80 80 80 80 79 79 79 79 78 78 78 78 78 77 76 76 76 77 78 81 80 77 78
79 78 79 79 80 79 79 79 79 80 80 81 80 80 80 80 80 80 80 80 81 80 80 79 78 79 79 78 77 77 77 77 77 76 76 76 77 77 79 78 78 77
72 74 77 78 80 80 79 80 80 79 80 80 80 81 80 81 80 81 80 81 81 80 79 80 79 78 79 78 78 77 77 80 78 76 76 76 76 76 77 79 78 76
72 72 72 73 76 77 78 80 81 81 80 80 81 82 81 81 81 81 80 80 81 80 79 79 79 79 79 79 78 78 77 78 80 78 77 77 76 76 77 78 77 76
72 73 73 74 74 73 74 74 76 79 79 81 82 82 82 81 81 81 80 79 80 79 79 79 79 79 79 79 79 78 78 77 78 78 77 77 78 78 78 78 78 76
73 73 73 73 74 74 75 76 76 76 77 78 80 82 83 82 80 81 80 80 80 80 79 79 79 79 79 80 79 79 79 79 79 78 77 77 78 78 80 78 77 77
72 73 73 74 74 75 75 76 77 77 77 78 80 80 80 82 81 81 81 79 80 80 80 80 79 79 79 80 81 80 79 80 79 79 78 78 78 78 78 78 79 78
72 73 74 74 74 74 74 74 76 78 79 79 79 80 80 81 82 81 81 81 80 80 81 80 80 79 78 79 80 80 79 79 79 79 79 78 78 78 79 79 79 79
73 74 74 73 74 74 73 74 75 76 77 79 79 78 79 80 82 82 81 82 82 81 81 81 80 79 78 78 79 80 79 78 79 79 79 79 79 78 79 80 80 80
73 73 74 74 74 73 73 73 74 75 76 76 77 78 79 78 81 84 82 81 82 81 82 82 82 81 81 79 79 79 80 79 78 79 79 78 79 79 79 79 80 81
72 73 73 73 72 72 71 72 73 74 76 75 76 76 77 77 75 80 83 82 81 81 81 83 83 84 82 77 78 80 79 81 80 78 78 78 77 77 78 79 81 82
72 72 72 72 72 72 73 73 74 75 75 74 74 75 75 74 77 76 78 80 82 81 81 82 84 85 78 71 71 75 81 79 79 78 77 77 77 76 76 78 79 80
71 71 71 71 72 71 71 71 73 73 72 72 73 75 74 76 76 76 75 78 78 78 81 82 82 80 73 69 69 69 74 81 80 80 80 78 78 77 77 78 78 79
71 72 72 71 71 71 71 72 72 72 72 73 74 74 75 74 74 75 75 75 76 75 76 76 78 74 70 68 67 67 67 74 81 80 80 80 80 79 78 78 77 77
70 71 71 70 71 72 72 71 72 71 72 73 74 74 74 73 74 73 73 73 74 74 74 76 75 76 69 66 64 64 65 66 75 79 80 81 80 81 81 80 78 78
69 69 70 70 71 71 71 71 71 71 72 73 74 74 73 73 73 72 73 73 74 74 74 76 81 71 67 68 65 61 62 66 72 74 77 79 80 81 80 81 80 80
69 69 69 70 71 71 71 70 71 71 71 72 72 73 74 74 73 74 73 73 73 74 74 74 79 68 66 67 65 63 63 68 70 71 74 77 78 78 79 79 80 80
69 69 69 69 69 69 69 69 69 69 69 71 70 71 72 72 73 74 74 74 74 74 74 74 76 70 63 62 61 62 65 70 69 71 72 74 76 78 78 78 78 78
67 67 68 70 69 68 68 69 70 70 69 71 70 70 69 71 72 72 73 75 75 75 76 75 76 74 62 58 58 59 66 70 70 70 72 72 74 76 77 77 78 81
67 67 67 68 68 68 68 69 68 69 70 70 70 71 71 70 72 71 72 73 76 77 78 77 77 75 64 59 60 56 63 70 70 70 71 72 73 74 75 76 78 79
67 66 66 66 65 67 68 68 69 69 68 69 70 71 71 71 71 71 71 71 75 76 78 78 75 75 71 61 59 59 59 69 70 69 70 72 73 74 74 76 77 78

ECMWFNIL_sfc_temp_087.txt.gz
Temp
75 75 75 75 74 75 74 74 75 76 75 76 76 76 76 77 77 77 78 77 77 77 76 76 76 76 78 76 76 75 75 74 75 75 75 75 74 75 77 77 76 75
74 75 77 76 75 76 74 75 75 76 75 75 77 76 77 77 77 77 77 77 77 77 77 76 76 76 76 76 75 75 74 75 74 78 76 75 74 75 75 75 75 75
74 74 75 74 76 75 76 76 75 76 76 77 77 77 77 78 78 77 77 77 77 77 76 76 76 76 76 76 75 75 75 74 74 74 75 74 74 74 75 76 75 76
74 75 75 75 75 75 76 76 75 75 76 76 76 78 79 80 78 78 77 79 77 77 77 76 76 76 76 76 76 75 75 75 75 75 75 75 75 75 75 75 76 77
75 75 75 75 75 75 76 76 77 76 76 77 78 77 77 77 77 77 77 77 77 77 76 76 76 76 76 76 76 76 75 75 75 74 74 74 75 75 76 77 75 76
75 75 75 76 76 76 76 76 77 77 77 77 77 78 78 77 77 78 77 77 78 78 78 77 76 76 76 76 76 76 76 76 76 74 74 74 75 75 78 77 76 75
77 76 76 76 76 76 77 77 77 78 78 79 77 77 78 77 77 77 78 78 78 78 78 77 76 76 76 76 76 75 75 76 75 74 75 75 74 75 76 76 75 75
73 73 74 74 76 76 76 76 76 77 78 77 78 78 77 78 78 79 78 78 78 78 77 78 77 76 77 76 76 75 75 77 76 74 74 74 73 74 75 76 75 74
73 73 73 74 76 75 76 77 77 77 76 77 78 79 78 78 79 79 78 78 78 78 77 77 77 77 76 76 76 76 75 76 77 75 75 75 74 74 75 75 74 74
72 73 73 73 74 73 75 75 76 77 76 77 78 79 79 78 78 78 78 77 77 77 77 77 77 77 77 76 76 76 75 75 75 75 75 75 75 75 75 75 75 74
72 72 73 73 73 73 73 73 74 75 75 78 78 78 79 78 77 77 77 76 77 77 77 77 77 77 76 77 77 77 76 76 76 75 75 75 75 75 77 75 75 75
72 72 72 73 74 73 74 74 74 74 74 75 77 79 78 78 78 77 78 77 77 78 78 78 77 77 77 77 78 78 77 77 77 76 76 75 75 76 76 75 76 76
72 72 72 73 73 73 74 74 75 75 75 76 76 76 77 78 78 77 77 77 77 78 78 78 78 78 77 77 77 77 77 77 77 76 76 76 76 76 76 76 76 76
72 72 73 73 73 73 73 74 74 74 75 76 76 75 76 76 76 77 78 78 78 78 78 79 78 78 77 77 77 77 77 77 77 77 77 76 76 76 76 77 77 77
71 72 73 73 73 73 73 73 73 73 74 74 74 75 77 76 75 77 78 77 78 78 78 79 79 79 79 78 77 77 77 77 77 77 77 76 76 77 76 76 76 77
71 72 72 72 72 71 71 71 71 72 73 73 74 75 74 74 74 73 76 78 78 78 78 79 79 80 79 75 77 79 77 78 78 76 76 76 76 76 76 76 77 78
71 72 72 71 72 72 71 72 72 72 72 73 73 73 73 73 74 73 74 77 79 79 79 80 81 82 76 70 70 73 79 76 76 76 75 75 75 75 75 76 77 77
71 71 71 71 71 71 71 72 73 73 72 71 71 72 72 74 74 73 72 73 76 78 79 80 81 78 72 69 68 68 72 77 77 77 77 75 75 75 76 76 76 77
71 70 70 70 70 71 71 72 72 72 71 72 72 73 73 71 71 72 73 72 73 72 76 78 79 75 70 69 67 67 67 72 77 77 76 76 76 76 76 75 75 75
69 70 70 70 70 70 70 70 71 71 72 72 73 73 73 72 72 71 71 71 72 72 72 73 73 74 69 67 66 65 65 68 75 76 77 78 77 77 78 77 76 75
70 69 69 69 70 70 70 69 70 70 70 71 72 71 71 72 72 72 72 73 73 73 72 74 78 70 66 65 63 61 62 65 72 73 75 76 77 77 77 78 77 77
68 67 67 67 68 68 69 68 69 69 69 70 71 70 70 70 71 72 72 72 73 73 72 72 75 67 64 63 63 62 62 67 68 70 71 73 74 75 76 77 77 77
65 66 66 67 67 67 67 68 68 69 68 70 70 70 69 69 69 70 71 71 72 72 72 72 73 70 65 62 61 60 64 68 68 70 70 70 72 73 74 75 76 76
65 65 65 65 65 65 65 66 68 69 68 71 70 69 69 69 70 70 70 70 71 71 73 72 72 71 62 61 59 60 63 69 69 69 70 70 71 72 72 73 74 79
65 65 65 64 64 64 65 65 66 67 69 69 68 68 69 68 70 69 69 69 71 71 73 72 72 71 64 61 59 58 63 69 69 70 70 70 71 72 73 72 73 75
64 64 64 64 63 64 64 65 65 65 65 67 68 68 68 68 69 69 68 69 70 71 71 72 71 72 71 63 60 59 58 66 69 68 69 70 71 71 71 72 73 73

ECMWFNIL_sfc_temp_090.txt.gz
Temp
75 75 75 75 75 76 75 75 76 76 76 77 77 77 77 78 78 78 79 79 79 79 78 78 78 78 79 78 78 78 78 78 79 78 78 78 78 78 80 79 79 79
75 76 77 76 75 76 75 76 76 76 76 76 77 77 78 78 79 79 78 78 79 79 79 79 78 78 78 79 78 78 77 78 78 80 78 78 78 78 79 79 79 78
75 75 76 76 76 76 77 76 77 77 77 78 78 77 78 79 79 78 78 79 78 79 78 78 78 78 78 78 78 78 78 77 78 79 79 79 78 79 79 80 80 80
75 76 77 77 77 77 77 76 76 76 77 77 77 79 79 81 79 79 78 80 78 78 79 78 78 79 78 78 78 78 78 78 79 78 78 78 78 79 79 79 80 80
76 75 76 77 77 77 76 76 77 77 77 77 78 78 78 78 79 79 78 78 78 79 78 78 78 78 78 78 78 78 78 78 78 77 78 78 78 78 79 79 79 80
76 76 76 76 76 76 76 77 77 77 78 78 78 79 79 78 79 79 79 79 79 79 79 79 79 79 79 78 78 78 78 78 79 77 77 78 79 78 80 80 79 79
76 75 76 77 77 77 77 77 77 78 78 79 79 78 79 78 78 78 79 79 79 79 79 79 78 78 78 78 78 77 77 78 78 78 77 78 78 78 79 79 78 78
76 76 77 76 77 77 77 77 77 78 78 78 79 79 78 79 78 79 79 79 79 79 79 79 78 78 79 78 78 77 78 79 78 77 77 77 77 77 78 78 78 78
76 75 76 76 77 77 78 78 78 78 78 78 79 80 79 79 79 79 79 78 79 79 78 79 78 79 79 78 78 78 78 79 79 78 78 78 77 77 78 78 78 78
75 75 75 76 76 77 77 78 79 79 78 78 79 80 80 79 79 79 79 78 78 78 78 78 78 78 78 79 78 78 78 78 78 78 78 78 78 78 78 78 78 78
74 74 74 74 75 75 76 78 78 79 78 79 79 79 80 79 78 79 78 78 78 78 78 78 79 79 78 79 79 79 79 79 79 78 78 78 78 78 79 78 78 78
73 74 74 74 75 75 75 76 77 78 78 78 79 79 79 80 79 79 79 78 78 79 79 79 79 79 79 79 80 79 79 79 79 79 79 78 78 78 79 79 79 79
73 73 73 73 74 74 75 75 76 77 77 77 78 78 79 79 80 79 78 79 78 79 79 79 79 79 78 78 79 79 79 79 79 79 79 79 79 79 80 79 79 79
72 72 71 70 71 72 73 74 75 76 76 77 77 77 78 78 79 79 79 79 79 79 79 79 79 79 78 78 79 79 79 79 79 79 79 79 79 79 80 80 80 80
71 71 71 71 72 71 71 73 74 75 75 76 76 77 78 79 79 79 78 78 79 78 79 80 80 80 80 79 79 78 79 79 79 79 79 79 79 80 80 79 80 80
71 72 72 71 71 71 71 72 73 73 75 75 75 76 76 77 77 77 78 78 78 78 79 80 80 81 79 74 76 80 79 80 80 79 79 79 78 78 79 79 80 81
71 71 71 71 71 71 71 71 72 72 73 74 74 75 75 75 76 76 77 78 78 79 79 80 81 82 75 69 69 71 79 79 79 78 78 78 78 78 78 79 80 80
71 71 71 71 71 71 71 72 72 72 72 72 73 74 74 75 75 75 75 76 77 78 79 80 81 77 70 68 68 68 72 79 80 79 79 78 78 78 79 79 79 80
70 70 70 71 71 71 71 72 72 72 72 72 73 74 74 73 73 74 75 75 76 75 76 77 78 72 67 67 66 66 66 73 80 79 79 79 79 78 78 78 78 78
70 70 70 70 70 70 70 70 70 70 71 72 73 73 73 73 74 73 74 74 75 75 75 77 77 69 64 64 64 64 64 67 76 78 79 80 79 79 80 79 78 78
68 68 68 69 69 69 69 68 69 69 70 71 71 71 71 70 71 72 73 73 74 75 75 76 76 65 64 63 61 61 61 66 72 74 76 77 78 79 78 79 79 79
67 66 66 66 66 66 66 67 68 69 69 71 71 70 71 71 71 72 72 72 73 73 73 73 75 64 62 62 61 60 63 72 72 72 73 75 75 76 77 77 78 78
65 65 65 65 65 65 65 65 66 67 68 71 70 70 70 70 70 71 71 71 72 72 72 72 73 67 61 60 59 60 66 72 72 73 73 73 74 74 75 76 76 77
65 65 65 65 65 64 64 65 66 67 67 69 69 69 69 70 70 70 71 71 71 71 72 72 72 70 61 59 59 59 64 71 72 72 73 73 73 74 75 75 75 77
65 65 64 64 64 64 64 64 65 66 67 67 68 69 70 70 70 70 70 71 72 71 74 73 72 71 64 61 60 59 64 70 71 72 72 74 74 74 76 76 76 76
64 64 64 63 63 64 64 64 65 65 65 66 67 68 69 69 70 70 70 70 71 71 71 72 72 71 71 63 60 59 59 66 70 71 72 73 74 74 74 75 75 76

ECMWFNIL_sfc_temp_093.txt.gz
Temp
85 85 85 85 85 86 85 85 87 87 85 87 87 87 87 88 88 87 88 87 87 87 86 86 86 86 87 86 86 86 86 86 87 88 87 87 88 88 89 88 88 88
84 84 85 86 84 84 84 86 86 86 85 85 87 87 87 87 88 87 87 87 87 87 87 87 86 86 86 87 86 86 86 86 86 90 87 87 87 88 88 88 88 88
85 84 85 85 87 86 88 87 86 86 87 88 88 86 88 88 88 86 87 87 87 88 87 86 86 86 86 86 85 86 87 85 86 89 87 86 88 87 88 90 90 89
84 85 87 88 88 88 88 86 86 85 87 87 87 89 88 90 88 87 86 86 86 86 87 87 87 88 87 86 85 86 86 85 87 86 86 86 87 88 88 88 89 89
85 85 86 87 88 87 87 86 88 88 88 88 89 88 86 86 86 88 87 86 86 87 87 86 87 87 86 86 86 86 86 87 87 86 85 85 86 87 89 88 87 87
84 84 84 85 85 85 87 87 87 88 88 89 88 89 89 87 87 88 88 88 89 89 89 89 88 89 89 87 86 86 87 88 88 86 85 85 87 88 90 88 87 86
85 84 85 86 86 86 86 87 88 88 89 90 89 88 88 88 87 87 87 88 89 88 89 88 86 87 88 87 86 85 86 86 86 85 84 86 86 86 88 87 86 86
84 84 86 86 87 86 86 87 88 88 88 88 88 88 88 89 88 89 88 88 88 88 87 88 87 86 88 88 86 86 86 89 88 85 84 85 85 84 86 87 86 85
83 83 84 85 87 88 88 90 90 89 88 88 89 90 89 89 89 90 87 87 87 87 86 87 86 87 88 87 87 86 86 88 89 87 86 86 86 85 86 87 86 86
82 82 82 83 84 86 88 89 91 90 89 89 90 91 90 88 88 88 87 86 86 86 86 86 86 87 87 88 87 87 87 86 87 87 87 87 87 87 88 87 87 86
81 82 82 81 80 82 85 88 89 90 89 89 90 90 90 90 87 87 86 86 87 87 86 86 87 87 86 88 88 88 88 88 88 87 87 87 87 87 86 86 86 87
81 82 82 82 82 82 83 86 89 89 89 89 90 89 89 90 89 89 88 86 86 87 88 87 87 87 86 87 89 89 88 88 88 87 88 87 88 88 88 88 88 88
79 81 82 82 81 81 82 83 86 88 89 89 89 88 88 89 90 88 88 88 87 88 88 87 87 88 86 86 87 88 88 87 88 88 88 88 89 89 90 90 90 89
76 77 78 79 79 80 81 81 82 85 84 86 86 87 88 89 90 89 89 89 89 88 88 88 87 87 87 86 87 88 88 88 87 88 89 89 89 89 90 91 91 91
74 74 73 72 73 76 78 79 80 81 82 84 84 86 89 89 89 89 88 88 88 88 87 89 89 89 90 88 87 87 88 88 88 88 88 88 88 90 90 89 90 91
72 72 72 73 73 73 73 75 79 81 82 82 83 84 84 84 85 85 87 87 87 87 88 89 89 90 86 78 80 87 88 89 89 87 87 87 87 87 89 90 91 92
72 72 72 72 73 72 73 74 76 78 78 79 80 81 82 82 83 84 86 88 87 88 88 90 91 90 75 72 70 70 82 86 86 86 86 86 87 86 85 88 90 91
72 72 71 71 72 72 73 75 76 76 77 77 78 79 79 83 84 83 83 85 87 87 88 89 89 71 65 67 68 67 73 83 87 87 88 87 87 87 87 88 88 90
73 72 72 72 72 73 73 75 75 76 76 77 77 78 79 80 81 82 83 84 85 84 85 86 84 68 63 64 66 66 67 76 86 86 87 88 88 87 87 86 86 87
72 73 72 72 73 73 73 74 74 74 75 76 77 78 77 76 78 79 80 81 82 83 83 85 81 68 63 62 63 64 65 72 84 84 86 87 86 87 88 87 86 85
67 67 68 69 70 71 72 73 72 73 74 75 76 76 75 74 74 73 75 80 82 84 84 84 80 63 62 61 61 63 63 73 83 82 84 85 85 86 85 86 86 87
67 66 66 67 68 68 69 70 71 72 72 72 74 75 76 75 73 74 75 79 81 82 83 82 80 62 61 61 61 63 67 82 82 82 83 84 83 83 83 84 85 85
67 67 66 65 66 65 65 66 67 69 71 73 73 75 75 76 75 75 75 77 78 79 79 79 81 67 60 59 59 60 73 82 81 83 82 82 82 83 83 83 83 83
69 68 67 67 66 66 66 67 69 70 71 73 73 74 75 76 77 77 76 75 75 75 77 77 78 67 58 58 58 57 70 80 81 81 82 82 82 82 83 83 82 77
69 69 69 68 68 68 68 68 69 70 72 73 74 76 75 76 76 77 77 77 77 76 75 77 74 67 58 57 57 57 69 78 79 81 81 82 83 83 84 85 83 81
69 68 69 69 69 70 70 69 70 71 72 73 75 76 76 75 75 76 76 75 74 72 72 71 69 69 62 55 56 57 60 73 76 77 77 78 80 80 80 82 82 82

ECMWFNIL_sfc_temp_099.txt.gz
Temp
88 89 91 91 91 92 91 92 93 93 91 94 93 92 91 91 93 92 94 88 91 91 90 90 90 90 93 91 90 90 90 90 91 91 92 92 93 94 96 94 94 94
91 91 89 92 91 91 91 93 92 92 91 91 94 92 93 93 94 93 92 92 92 92 90 91 90 90 91 92 90 91 90 91 90 95 91 91 92 94 95 94 94 94
92 91 92 92 92 93 94 93 92 93 93 94 94 93 94 95 94 92 92 93 92 94 90 90 90 90 91 91 90 91 92 89 90 94 91 90 92 92 93 97 96 95
91 92 94 94 93 90 95 93 93 92 95 93 94 96 95 97 94 93 93 92 92 92 92 91 91 90 91 91 90 91 91 89 92 91 90 91 91 93 93 94 96 96
92 92 93 94 95 94 94 94 95 95 95 94 95 94 93 93 93 94 93 92 91 92 91 91 91 90 90 90 91 90 91 90 89 91 90 89 91 91 94 94 92 93
92 91 91 92 93 92 95 95 94 96 95 97 95 96 95 94 94 95 94 94 95 94 94 94 93 94 93 92 90 91 92 93 88 88 89 89 92 94 97 95 92 91
93 92 93 93 94 94 94 94 95 94 96 97 96 95 96 95 94 93 93 94 95 93 95 93 91 92 93 91 90 89 90 90 87 88 89 91 90 90 93 93 91 90
92 93 94 93 94 94 93 94 95 95 95 95 96 95 96 96 94 96 95 94 95 94 93 94 92 90 94 93 90 89 91 94 94 90 89 89 89 89 90 92 91 89
92 93 94 94 94 95 95 96 96 96 95 95 96 97 96 95 96 96 93 93 93 93 92 93 91 92 93 92 91 90 90 92 95 90 90 90 90 89 91 91 91 90
92 92 94 95 95 95 96 97 98 97 96 96 97 98 97 96 96 96 94 91 92 92 91 92 91 92 93 93 91 91 90 90 91 91 92 91 91 92 92 92 91 90
91 92 93 91 91 93 96 98 99 99 98 97 98 97 98 98 94 94 92 91 93 92 91 91 92 92 92 93 94 94 92 92 92 91 91 91 92 91 91 91 91 92
91 92 91 92 91 91 92 97 99 99 99 99 98 97 96 98 96 95 94 91 91 92 92 91 92 92 91 92 94 95 94 93 93 92 92 92 92 93 93 93 92 91
90 91 92 92 90 90 90 92 96 99 99 99 99 97 97 97 98 95 94 94 92 93 94 92 91 93 91 91 92 93 93 93 94 93 93 93 94 94 96 95 95 95
89 90 90 90 90 90 90 90 92 96 96 97 97 96 97 97 98 97 96 95 95 94 94 93 92 92 92 91 92 93 94 94 93 93 93 94 95 95 96 97 97 97
88 89 89 88 88 88 87 88 89 92 93 94 94 95 98 98 98 99 96 96 96 95 94 95 95 95 96 93 91 92 92 92 93 94 94 93 93 95 95 94 95 97
85 85 85 85 85 85 85 85 87 87 89 89 91 93 92 93 94 95 97 97 96 95 95 97 97 98 92 86 88 92 92 93 92 91 92 92 91 90 94 95 97 97
82 83 84 83 83 83 84 83 83 83 84 84 86 88 89 89 91 93 95 96 97 96 95 97 99 93 76 76 76 81 91 92 91 91 92 91 92 91 90 92 95 96
79 80 81 82 82 81 81 81 82 82 83 84 85 87 86 89 90 90 91 94 96 96 96 97 94 67 67 68 71 71 78 89 93 93 94 93 92 92 92 93 94 95
79 79 79 80 80 80 80 81 81 82 82 83 83 84 85 85 85 88 90 92 93 92 94 92 83 67 65 66 66 69 68 79 91 91 92 94 94 92 92 92 92 93
77 78 78 78 79 79 79 79 81 81 82 84 84 83 82 83 84 84 88 88 89 90 85 82 83 66 64 63 66 65 67 72 86 87 90 92 92 94 95 93 92 91
76 76 76 75 75 76 77 79 80 80 80 81 82 80 79 78 80 78 79 83 89 86 81 84 76 62 62 62 62 63 63 72 83 86 89 90 91 93 92 93 92 94
72 72 74 74 73 75 75 76 77 77 79 78 78 76 74 75 78 77 76 76 76 76 75 77 75 58 60 60 61 61 65 80 85 85 86 86 88 90 91 89 90 91
72 72 72 72 73 75 74 73 72 72 72 74 76 76 76 74 73 75 76 74 73 74 73 75 76 63 57 58 59 58 71 84 83 82 77 74 74 74 76 80 77 75
72 72 72 72 71 71 72 72 73 72 72 72 72 73 74 74 74 75 75 73 74 72 74 73 75 65 56 56 58 56 68 80 81 78 77 77 77 77 76 75 77 80
74 75 74 74 74 73 73 71 71 72 72 73 73 72 72 73 74 74 78 77 77 76 76 75 75 69 57 56 56 57 68 80 80 80 78 77 76 74 76 75 76 74
76 75 75 75 76 76 75 74 74 72 73 73 73 73 72 72 73 74 76 76 78 78 76 77 75 72 63 55 55 57 57 74 82 79 75 76 77 76 76 74 74 75

ECMWFNIL_sfc_temp_102.txt.gz
Temp
84 82 83 82 83 86 86 87 87 86 85 87 87 86 85 85 86 88 88 88 88 87 87 86 87 87 89 88 87 87 85 86 87 87 87 88 89 90 92 91 91 87
86 85 85 85 85 85 86 88 88 87 85 84 83 84 86 87 87 88 86 87 88 88 86 88 88 87 87 87 86 87 86 85 85 92 88 88 88 89 90 91 91 90
87 87 87 86 88 88 89 90 88 87 88 88 85 84 88 89 89 88 87 88 88 90 86 87 88 87 88 87 86 87 87 85 86 90 87 87 88 87 87 92 90 91
87 87 89 90 90 89 91 89 89 89 90 88 85 87 90 91 89 89 87 88 87 87 88 89 89 89 88 88 87 87 86 86 87 86 85 87 87 88 89 88 90 92
90 89 90 90 90 89 89 89 90 90 90 89 91 89 87 85 85 88 88 88 87 88 87 87 88 89 87 86 87 86 87 86 87 87 86 86 86 88 90 89 89 90
89 88 88 90 89 88 89 89 89 91 91 91 90 90 90 88 88 88 89 90 91 91 89 90 88 90 88 87 87 87 87 88 88 86 86 86 87 89 92 87 87 88
90 90 91 91 93 91 90 90 89 90 92 94 91 90 91 91 90 89 89 90 90 89 90 87 86 87 88 87 86 86 86 86 86 86 85 86 86 87 90 88 86 88
89 91 91 91 92 92 91 91 92 92 92 92 94 92 93 92 90 93 92 90 91 89 89 88 86 87 89 87 86 85 87 90 89 85 84 86 86 86 87 89 88 86
90 90 91 92 92 92 93 94 94 94 93 93 94 94 93 92 91 92 90 90 90 89 87 88 86 89 89 87 87 87 86 88 89 86 86 86 87 86 87 87 87 86
89 90 91 91 92 93 93 94 95 94 94 94 95 95 95 92 93 93 91 89 90 90 89 89 88 88 88 89 88 87 86 85 86 86 87 87 88 88 89 87 88 87
89 89 90 88 87 90 93 95 95 96 94 94 95 94 95 94 90 90 89 89 91 89 89 88 89 89 88 90 89 89 88 88 88 87 87 87 88 87 89 88 87 87
90 90 90 90 89 89 90 93 95 96 96 96 95 94 93 95 92 92 92 89 89 89 90 89 88 89 88 89 91 90 88 89 89 88 88 88 89 89 89 89 89 87
89 90 90 90 88 88 89 90 93 96 97 97 96 94 95 95 96 92 91 91 89 90 91 90 89 90 87 88 90 90 89 87 88 88 88 88 89 90 92 91 91 91
87 88 87 88 88 87 88 88 90 91 92 93 94 93 94 95 95 95 93 93 91 90 90 89 89 89 88 88 89 89 89 89 85 86 87 86 88 89 91 92 93 93
84 86 87 87 87 87 86 86 87 89 89 90 90 92 97 95 96 96 94 92 92 91 89 90 91 90 90 89 88 88 89 90 85 86 88 86 87 90 89 89 91 93
86 86 86 87 86 86 86 86 87 87 88 87 87 88 89 89 90 91 93 94 93 91 91 92 92 94 90 87 85 88 88 90 90 87 85 85 84 85 89 91 92 93
84 84 84 83 84 84 84 83 84 84 84 84 85 86 85 84 86 88 90 91 93 94 92 91 86 76 66 71 77 83 90 87 87 84 83 82 83 82 84 88 90 91
83 83 83 83 83 82 83 83 83 83 83 83 84 85 85 85 85 86 86 88 89 87 86 83 77 66 64 66 67 67 74 85 89 88 87 85 83 81 84 87 87 83
80 80 80 81 82 82 82 82 82 82 82 81 82 84 83 80 79 82 85 81 78 77 80 82 77 64 64 64 64 65 68 79 88 88 88 89 88 87 83 77 74 75
77 77 78 79 80 80 80 80 80 80 80 81 82 82 82 81 82 82 81 77 76 77 76 76 75 65 63 63 63 65 66 74 83 84 86 87 86 83 80 77 76 75
74 75 74 74 76 78 78 77 76 76 76 76 77 77 77 78 80 79 77 76 75 76 75 76 70 60 61 62 62 64 66 75 82 84 85 83 82 81 78 79 78 78
71 71 72 73 74 75 75 74 74 74 75 74 74 74 75 76 77 78 76 76 75 75 73 74 66 58 59 60 61 62 68 82 84 83 81 80 79 77 78 77 77 76
72 71 71 71 72 72 72 72 72 72 73 73 72 73 74 74 74 73 74 74 74 74 73 70 68 60 58 58 59 60 73 81 81 80 79 78 78 78 77 78 79 79
71 72 71 71 70 70 70 71 71 71 72 73 71 70 71 74 73 72 73 72 73 72 72 68 65 61 56 57 58 58 69 79 80 79 79 78 78 77 77 77 77 79
71 72 72 71 71 70 70 69 70 71 72 72 72 72 72 73 74 72 73 73 73 72 73 69 66 64 57 56 57 57 67 78 78 77 76 77 77 77 78 77 75 72
70 71 72 72 71 71 72 70 71 71 72 72 73 72 71 71 72 72 71 71 71 71 70 69 66 66 61 55 56 58 59 73 77 74 73 73 75 75 75 76 75 72

ECMWFNIL_sfc_temp_105.txt.gz
Temp
78 78 78 78 78 80 79 79 80 80 80 80 79 80 79 81 82 82 82 81 82 81 81 80 81 82 84 82 81 80 80 80 81 80 80 81 81 82 86 84 83 80
79 79 80 79 79 81 80 81 81 80 79 79 80 80 81 81 82 81 81 82 82 82 80 82 81 81 81 81 81 81 80 81 79 85 82 81 82 83 84 83 83 82
80 79 80 79 80 80 83 83 82 81 81 82 80 80 83 83 82 81 81 82 82 83 81 81 81 81 82 80 81 80 81 79 78 81 81 80 81 81 81 84 83 84
80 81 82 82 82 82 83 82 82 82 82 81 81 83 84 86 83 83 81 84 81 81 82 82 82 83 82 81 80 81 80 80 80 81 82 81 81 82 82 82 83 83
82 82 83 83 83 83 84 84 84 83 84 82 83 82 82 81 82 83 82 82 81 81 82 82 82 82 82 80 81 80 80 80 81 80 80 79 79 81 84 82 81 82
83 82 82 83 83 82 83 83 82 84 85 84 83 83 83 82 83 82 82 83 83 83 83 83 82 83 83 81 80 81 81 81 81 80 80 79 80 82 86 83 82 80
84 83 84 84 85 84 83 82 83 83 85 86 84 84 85 83 83 83 83 84 85 84 84 82 82 82 82 81 80 80 79 80 80 80 79 79 79 81 84 82 80 81
83 84 85 84 85 85 84 84 84 83 85 84 86 84 85 85 84 86 84 84 85 83 83 83 81 80 83 82 81 80 81 85 83 80 79 79 79 79 81 83 81 80
83 83 84 84 85 85 86 86 86 86 86 85 87 87 86 86 85 86 84 84 85 82 82 83 81 82 82 81 81 81 80 83 84 81 80 80 80 79 80 81 81 80
82 82 85 85 86 85 86 87 88 88 87 87 87 88 87 86 87 87 84 82 83 82 81 82 81 82 82 83 81 81 81 80 81 80 81 81 81 81 82 82 81 80
82 82 83 82 82 83 86 88 88 88 87 88 87 87 87 86 84 85 83 82 86 82 82 82 82 83 82 83 83 83 82 83 82 80 81 81 82 81 83 81 81 81
83 83 82 82 82 81 82 86 88 88 87 88 88 87 86 87 86 87 85 82 83 83 82 82 82 82 82 83 84 84 83 83 82 82 82 82 82 83 82 83 82 80
82 82 82 82 81 81 81 83 84 86 87 87 87 88 88 87 87 85 84 83 83 84 84 82 82 84 81 81 83 83 83 82 83 82 82 82 82 83 84 84 84 83
81 81 81 80 80 80 80 81 83 83 82 83 83 84 86 87 87 86 85 85 84 84 84 83 82 83 81 81 83 84 83 82 82 82 81 82 82 81 83 84 81 81
78 79 79 79 79 79 79 79 81 83 82 81 80 82 84 84 85 86 85 86 86 85 84 86 85 81 78 77 80 82 83 83 81 81 81 80 80 82 81 74 74 77
73 73 74 77 77 78 78 78 79 79 79 78 79 80 80 80 80 82 85 85 84 84 84 84 80 79 75 73 73 80 82 85 83 80 80 79 79 79 79 76 78 77
72 72 72 71 72 73 76 77 77 78 77 77 78 79 77 78 79 80 82 82 82 82 80 78 76 70 66 66 68 73 82 81 81 79 79 79 78 77 77 76 76 77
71 73 72 72 73 73 73 75 76 77 76 76 77 78 77 78 78 78 78 80 81 81 79 76 72 65 63 65 66 67 73 78 81 81 81 79 78 78 77 76 76 78
72 72 72 72 73 75 76 77 76 77 76 77 77 78 77 76 76 77 76 78 79 79 78 75 71 64 63 65 65 66 68 78 79 79 80 80 78 76 74 73 73 74
73 73 72 73 74 75 75 76 75 75 75 75 76 76 76 77 76 77 75 75 76 76 73 71 69 63 63 64 64 65 66 72 77 78 79 78 77 77 77 74 73 73
71 71 71 71 72 73 73 72 72 72 72 72 72 73 72 73 74 76 74 74 75 74 70 69 66 61 61 63 62 64 65 73 76 79 78 77 76 75 74 74 73 75
70 69 69 70 70 71 71 71 71 70 70 71 72 72 72 72 74 74 73 73 74 73 69 65 63 59 60 60 61 62 67 78 77 76 75 75 74 74 73 73 73 72
70 70 70 69 69 69 69 70 70 70 70 71 70 70 71 72 72 73 73 72 73 72 67 64 63 59 58 58 59 60 71 77 76 76 75 74 73 73 73 73 74 74
69 70 69 69 69 69 69 69 70 70 70 71 69 69 69 70 71 72 72 71 71 69 66 63 62 60 57 57 57 58 69 75 75 75 75 74 73 73 73 72 74 79
68 69 69 69 68 68 69 69 69 70 71 70 70 70 69 69 72 72 71 70 71 69 70 64 63 62 57 56 57 58 67 73 74 73 73 73 73 72 73 70 69 72
66 66 66 67 68 69 69 68 69 70 70 70 68 68 68 68 69 69 69 70 69 66 65 64 62 61 60 56 56 58 64 72 71 71 71 70 71 72 72 70 68 68

ECMWFNIL_sfc_temp_108.txt.gz
Temp
77 77 77 76 77 78 77 77 77 78 77 77 77 77 77 78 79 79 80 79 79 78 79 78 79 78 80 79 79 78 79 78 78 77 77 78 77 78 82 80 77 75
77 77 78 78 77 79 77 78 78 78 77 77 77 77 78 78 80 79 79 79 79 79 78 79 78 78 78 78 78 77 77 77 76 81 79 78 78 78 79 79 80 77
77 77 77 77 78 78 79 79 79 78 78 79 79 78 80 80 80 79 79 79 79 80 78 78 78 78 78 78 77 78 77 76 76 77 78 77 77 78 77 80 79 80
77 78 78 79 79 79 79 78 78 78 79 78 78 80 81 83 80 80 78 81 79 79 79 79 79 79 78 78 77 77 77 76 77 77 77 78 78 79 78 78 79 80
78 78 79 79 79 79 79 79 80 79 79 80 80 79 79 79 79 80 79 79 78 79 78 79 79 79 78 77 77 77 77 77 77 76 76 77 77 78 80 80 78 79
78 78 78 79 79 79 79 79 80 80 80 81 80 80 80 80 80 80 79 80 80 80 79 80 79 79 79 78 78 78 78 78 78 77 77 76 77 77 81 80 78 77
79 79 80 80 80 80 80 80 80 81 81 82 80 80 81 80 80 80 80 80 81 79 80 79 79 78 79 78 77 77 77 77 77 77 77 77 77 77 79 79 78 77
79 80 81 80 81 81 80 80 80 80 81 81 81 81 81 81 80 82 81 81 81 80 80 80 79 78 80 79 78 77 77 81 80 76 76 76 76 76 76 79 78 77
80 80 80 81 81 81 82 82 82 82 81 81 82 82 82 82 81 82 81 80 81 80 79 80 79 79 79 79 78 78 78 79 81 78 77 77 77 77 77 77 77 76
80 80 81 81 81 82 82 83 83 83 83 82 83 83 83 82 82 82 81 79 80 80 79 80 79 79 79 79 79 79 78 78 78 77 78 78 78 78 78 78 78 77
80 80 80 80 79 80 82 84 84 84 83 83 83 84 84 83 81 81 80 80 82 80 79 79 80 80 79 80 80 80 79 80 79 78 77 78 78 78 80 78 78 78
80 80 80 80 80 79 80 83 84 84 84 84 84 83 83 84 83 82 82 80 80 81 81 80 80 79 79 80 81 81 80 80 80 79 79 79 79 78 77 76 77 76
79 80 80 80 79 79 79 79 81 83 83 83 83 83 83 83 84 83 82 82 81 81 81 81 80 81 80 80 81 81 80 79 80 79 79 78 76 75 76 75 77 77
76 78 79 79 79 78 78 78 78 80 80 79 79 79 81 81 82 83 83 82 82 81 82 81 80 80 79 79 80 80 80 80 79 79 80 75 74 74 75 75 75 77
72 72 72 73 76 76 77 77 77 78 77 77 78 79 81 79 81 83 83 82 82 81 82 81 81 80 79 78 79 78 79 80 79 79 80 76 75 75 74 74 74 75
71 72 71 72 72 72 73 74 76 77 77 76 77 77 77 77 76 79 81 82 81 79 79 80 79 78 76 76 77 78 77 79 80 79 78 77 75 75 76 75 75 74
71 71 70 70 70 71 71 73 74 75 75 75 75 75 75 75 76 77 78 79 80 80 78 78 77 75 69 66 68 74 79 77 78 78 77 76 75 75 74 73 74 75
70 70 70 70 71 72 71 71 73 74 74 75 75 75 74 75 75 76 76 77 78 77 77 75 72 67 63 65 67 69 75 77 78 79 78 76 76 75 75 74 74 75
71 70 70 70 71 72 72 73 73 74 74 74 74 75 74 72 73 74 75 75 75 74 74 73 70 64 63 66 67 67 68 78 77 79 78 77 76 76 74 73 73 74
70 70 70 71 72 72 72 73 73 72 72 72 72 72 72 72 73 73 73 73 73 72 70 70 69 64 61 63 64 67 68 72 76 77 78 77 75 75 75 73 72 72
71 71 71 71 71 71 70 70 70 70 71 71 71 71 70 71 72 72 73 73 72 70 69 68 68 61 60 62 61 63 66 75 75 76 76 75 75 74 72 73 72 73
69 69 69 69 69 69 69 69 69 69 69 71 71 70 70 70 71 72 71 71 71 70 67 66 64 59 59 60 60 61 64 76 75 75 74 74 74 73 72 71 71 71
69 69 68 68 68 68 68 68 68 68 69 70 68 68 68 70 70 72 72 71 72 70 66 64 64 60 57 58 58 59 66 76 74 74 73 73 73 73 73 73 72 72
68 68 68 68 68 68 68 68 69 69 69 70 68 68 68 68 70 71 71 71 71 68 67 64 62 60 56 56 56 57 64 72 73 73 73 73 72 73 72 71 74 78
66 67 67 68 68 68 68 68 68 69 70 69 69 69 68 68 70 71 70 69 71 69 70 64 62 62 57 56 56 57 65 71 72 72 72 72 72 71 70 69 71 75
67 67 66 66 67 68 68 68 69 69 68 67 67 67 67 67 68 70 69 68 66 64 63 63 61 61 60 55 56 57 61 69 70 72 72 71 72 71 69 67 67 67

ECMWFNIL_sfc_temp_111.txt.gz
Temp
76 75 75 75 75 76 76 75 75 76 76 76 76 76 76 77 77 77 77 77 77 77 77 76 77 77 79 77 77 76 77 75 75 75 75 76 75 76 79 77 76 75
75 76 77 76 76 77 76 76 76 76 76 75 76 75 76 76 77 77 77 77 77 77 77 77 76 76 76 76 75 76 75 76 74 79 77 77 76 76 76 76 77 75
76 76 76 75 76 76 77 77 76 76 76 77 76 75 77 78 77 76 77 77 77 78 77 77 76 76 76 75 75 75 76 74 75 76 76 75 75 75 75 76 76 78
76 76 77 77 77 77 77 76 76 76 76 76 76 78 78 80 78 78 76 79 77 77 77 77 77 77 76 76 75 75 75 75 76 75 75 75 76 76 76 75 77 78
76 76 76 77 77 76 76 76 77 76 76 77 78 77 77 77 77 77 77 77 77 77 76 77 77 77 76 76 75 75 75 76 75 75 74 75 76 76 77 77 75 76
76 76 76 77 76 76 76 77 77 77 77 78 77 78 78 78 77 77 77 77 77 77 77 77 77 78 77 76 75 76 76 76 76 75 75 75 76 76 78 77 75 75
76 76 77 77 77 77 77 77 77 78 78 79 78 77 78 77 77 77 77 78 78 78 78 77 77 77 77 76 75 76 75 75 75 75 75 75 75 76 76 76 75 75
76 77 77 77 77 77 77 77 77 77 78 78 78 79 78 79 78 79 78 78 78 77 77 78 77 77 77 76 76 76 76 78 77 75 74 75 74 74 75 76 75 74
77 76 77 77 77 78 78 79 79 79 79 79 79 80 79 79 79 79 78 77 78 78 77 78 77 77 77 77 76 76 76 77 78 76 75 75 75 75 75 75 75 74
76 76 77 77 78 78 78 79 80 80 79 79 80 80 79 79 79 79 78 77 77 77 77 77 77 77 77 77 77 77 76 76 76 76 76 76 76 76 76 75 74 74
76 76 77 76 76 77 78 80 80 81 80 80 80 80 81 80 79 78 77 77 78 78 78 77 78 78 77 78 78 78 77 78 77 76 76 76 76 75 78 75 74 74
76 77 77 77 77 77 78 80 81 81 81 80 80 80 80 81 80 79 79 78 78 78 78 78 78 77 77 78 79 78 77 77 77 77 77 75 75 75 75 73 74 73
77 77 78 78 77 77 77 78 79 81 81 81 80 80 80 80 80 79 79 79 79 79 79 79 78 78 77 77 78 78 77 77 77 77 76 75 75 75 75 74 75 75
76 77 77 77 77 77 77 77 78 79 79 79 78 79 80 80 80 80 80 79 80 79 79 79 78 78 77 77 77 78 78 77 76 76 75 74 74 74 74 74 74 75
71 73 73 75 76 75 75 76 76 76 76 76 77 78 80 79 80 81 80 79 80 79 79 79 79 78 78 77 77 77 77 77 77 76 75 74 74 74 74 74 74 74
69 71 71 72 74 75 74 74 74 74 75 75 75 76 76 75 74 76 79 80 79 79 78 79 79 79 81 80 80 78 76 78 78 76 75 75 74 74 75 74 74 73
70 70 70 70 69 70 71 72 73 74 74 74 74 74 74 75 75 75 75 76 78 78 78 79 79 80 77 73 74 78 79 76 76 76 75 75 74 74 74 74 74 74
69 70 70 70 70 70 70 70 71 72 73 72 73 73 73 74 75 75 72 73 75 76 76 76 74 68 64 65 67 68 74 77 77 77 77 75 75 75 75 75 74 74
69 70 70 70 70 70 70 71 71 71 71 71 71 73 72 71 72 74 73 71 72 72 73 71 69 64 63 65 65 66 67 73 75 76 77 76 76 76 75 74 73 73
69 69 70 70 70 69 70 70 70 71 71 71 71 70 70 71 72 71 70 71 71 70 68 68 67 63 62 63 64 65 67 70 72 75 77 77 77 77 76 74 73 72
70 69 70 70 70 69 69 70 69 70 70 71 70 70 70 70 71 70 71 71 70 68 68 67 68 61 60 62 61 63 65 71 72 74 76 77 77 76 75 75 73 73
69 68 68 68 68 68 68 68 68 68 69 70 70 69 70 70 71 71 71 70 69 68 67 66 64 58 59 60 60 60 65 71 73 74 74 74 74 74 74 73 72 72
68 68 68 68 67 67 67 67 68 68 68 69 67 67 68 68 69 70 70 70 70 69 66 65 64 61 58 58 58 59 64 70 73 73 73 72 73 73 73 72 72 72
67 68 67 67 67 67 67 68 68 68 68 69 67 68 68 69 70 71 71 71 71 68 68 65 62 61 57 55 56 57 62 66 71 72 72 71 72 72 72 72 73 77
66 66 66 66 66 67 67 67 68 68 68 68 68 68 68 68 70 69 70 69 69 68 70 64 62 62 57 55 55 56 62 65 68 70 70 71 71 71 70 70 72 76
66 67 66 66 67 68 68 68 68 68 67 67 67 67 67 67 68 68 64 62 63 63 63 63 62 61 59 54 54 55 58 64 66 70 70 70 71 71 68 67 68 67

ECMWFNIL_sfc_temp_114.txt.gz
Temp
76 76 76 76 76 76 76 76 77 77 77 77 77 77 78 78 79 79 79 79 79 79 79 78 79 79 80 79 78 77 78 77 78 78 78 79 79 79 81 81 80 79
76 76 77 77 76 78 77 77 77 77 77 77 77 78 78 78 79 79 79 79 79 80 79 79 79 79 79 80 79 79 78 78 78 81 79 79 79 79 80 80 80 79
76 76 77 76 77 77 78 78 77 77 78 78 78 77 78 79 79 78 78 79 79 80 79 79 79 79 79 79 78 79 80 78 79 80 79 79 79 79 80 81 80 81
76 77 77 78 77 77 78 77 77 77 78 77 78 79 79 80 79 79 78 80 79 79 79 79 79 80 79 79 78 78 78 78 79 79 78 79 79 80 80 79 81 81
77 76 77 78 78 78 78 77 78 77 78 78 79 78 78 78 79 79 78 78 78 79 79 79 79 79 79 78 78 78 78 79 79 78 78 78 79 79 80 80 79 80
77 77 77 77 77 77 78 78 78 78 78 79 78 79 79 79 78 79 79 79 80 80 80 80 79 80 80 79 78 78 79 79 79 78 78 78 79 79 80 80 79 79
77 77 77 78 78 78 78 78 78 79 79 80 79 79 79 79 78 79 79 79 80 79 80 79 79 79 79 79 78 78 78 78 78 78 78 78 78 79 79 79 79 79
77 77 78 77 78 78 78 78 78 78 79 79 79 80 79 80 79 80 80 79 80 79 79 80 79 79 80 79 78 78 78 80 79 78 78 78 77 78 78 79 79 78
77 77 77 77 78 78 78 79 79 79 79 79 80 81 80 80 80 80 79 79 79 79 78 79 79 79 79 79 79 78 78 79 80 79 78 79 78 78 79 79 78 78
76 77 77 78 78 78 78 79 80 80 80 80 81 81 81 80 80 80 79 78 79 79 78 79 79 79 79 79 79 79 79 78 79 79 79 79 79 79 80 79 79 78
76 76 77 76 77 78 79 80 80 81 81 81 81 81 81 81 80 79 79 78 79 79 79 78 79 79 79 79 80 80 79 80 80 79 79 79 79 79 79 79 79 79
77 77 77 77 77 77 78 79 81 81 81 81 81 81 81 81 81 80 80 78 79 79 80 79 79 79 79 79 80 80 80 80 80 80 79 79 79 79 79 80 80 79
77 77 77 77 77 77 77 78 79 81 81 81 81 81 81 82 82 80 80 80 79 80 80 80 79 80 79 79 79 80 80 79 80 79 79 79 79 79 80 79 80 80
76 77 77 77 77 77 77 77 78 79 80 81 81 80 81 81 82 82 81 81 81 80 80 80 79 79 79 79 79 80 80 80 79 80 80 79 78 78 79 79 78 80
75 76 76 76 77 76 76 76 77 78 78 79 79 80 82 82 82 83 82 81 81 80 80 81 81 80 80 79 79 79 79 80 80 80 80 79 78 78 78 77 77 78
75 75 75 75 75 76 76 76 77 77 78 77 78 79 79 79 79 80 81 81 81 80 80 81 81 81 81 79 80 81 79 80 80 79 79 79 78 78 79 78 78 78
73 73 73 74 74 75 75 75 76 76 76 76 77 77 77 78 78 78 79 80 81 81 80 81 81 82 76 72 72 76 81 79 79 79 79 78 78 78 78 78 79 79
72 72 72 73 73 73 74 74 75 75 75 76 76 77 76 77 77 77 75 77 78 79 79 80 80 69 66 66 69 69 75 79 79 79 79 78 78 78 79 79 79 80
71 72 72 72 72 72 72 73 74 74 75 75 76 76 75 73 74 75 75 75 76 76 77 76 75 65 64 65 65 66 67 74 77 78 79 79 79 78 78 78 78 78
70 71 71 71 70 71 71 71 73 73 73 72 71 70 70 70 71 72 73 73 74 74 72 72 71 63 62 62 62 64 65 69 74 75 77 78 78 79 79 79 78 77
70 70 70 70 70 70 71 71 71 70 70 70 70 69 69 69 70 71 73 72 72 71 72 71 68 61 61 61 61 62 64 71 73 74 76 77 78 79 79 79 79 77
69 69 70 70 70 70 69 69 68 68 68 69 70 69 70 70 70 70 70 71 72 71 70 69 65 59 59 60 60 61 67 71 71 73 75 76 77 76 77 76 76 76
68 68 68 68 68 68 68 68 68 68 68 69 68 68 69 70 70 71 71 71 71 71 70 67 65 60 57 58 58 60 67 69 70 71 73 74 75 76 75 76 76 75
68 68 68 68 68 67 67 68 68 68 68 70 68 68 68 69 70 70 71 71 71 70 69 65 63 61 55 55 56 58 67 68 69 69 70 72 73 75 75 74 74 77
66 67 67 67 67 67 68 68 68 69 69 69 68 68 68 68 70 70 68 66 67 67 69 64 63 61 56 55 55 56 64 68 68 69 69 70 71 72 74 73 72 74
67 67 67 67 67 68 68 67 68 68 68 68 67 67 67 66 66 65 63 63 64 64 64 63 61 61 59 54 54 56 59 67 67 67 67 68 69 70 71 72 72 71

ECMWFNIL_sfc_temp_117.txt.gz
Temp
84 85 85 85 85 86 86 86 87 87 86 88 88 88 87 87 88 88 88 88 87 88 87 87 87 87 89 87 86 86 86 87 88 88 88 88 89 89 91 89 89 89
84 84 84 86 84 84 85 86 86 86 86 85 87 87 87 87 88 88 87 87 88 88 87 88 88 87 87 88 87 87 86 86 87 91 87 87 88 89 90 89 89 89
85 85 85 85 87 86 88 87 86 86 87 89 88 87 89 88 88 87 87 87 87 89 88 87 87 87 88 87 86 87 88 86 86 90 87 86 88 88 89 91 91 90
84 85 87 88 88 88 88 86 86 86 87 87 87 89 88 90 88 88 87 86 87 87 88 88 88 89 88 88 86 87 87 86 88 87 86 87 87 88 89 89 90 90
86 86 87 88 88 87 87 87 88 88 88 88 89 88 86 86 86 88 87 87 86 87 87 87 87 88 87 87 87 86 87 87 88 86 86 86 87 87 89 89 87 88
85 85 85 86 86 86 87 88 87 89 88 89 88 89 89 88 88 88 88 88 90 89 89 90 89 89 89 88 87 86 88 89 89 86 86 85 87 89 91 89 87 87
87 86 86 87 88 87 87 87 88 88 89 90 89 88 89 89 88 87 87 88 89 88 89 88 86 87 88 87 86 86 86 86 86 86 85 86 86 86 89 88 87 86
86 87 87 87 88 88 87 88 88 88 88 88 88 88 88 89 88 89 89 88 88 88 87 88 87 86 89 88 87 86 86 89 89 85 85 85 85 85 86 88 87 85
86 86 87 87 88 88 89 90 90 89 88 88 89 90 89 89 89 90 88 87 87 87 87 87 86 88 88 87 87 86 86 88 89 88 86 86 87 86 87 88 87 86
85 86 87 88 88 89 89 90 91 90 89 89 90 91 90 89 89 89 88 86 86 86 87 87 87 88 88 88 87 87 86 86 86 86 87 87 87 87 88 88 87 86
84 85 86 85 85 87 89 90 90 91 90 89 90 90 91 91 89 88 87 86 88 87 87 87 88 88 87 89 89 89 88 88 87 87 87 87 87 87 86 86 86 87
85 86 85 85 85 85 87 90 91 90 90 90 90 89 89 90 90 90 89 87 87 88 88 88 88 88 87 88 90 90 89 89 88 88 88 87 88 88 88 88 88 88
85 85 86 86 85 85 85 87 89 91 91 90 90 90 90 90 91 89 89 89 88 89 89 88 88 89 87 87 88 89 88 88 89 88 88 89 89 89 90 90 90 90
84 85 84 84 84 84 84 85 87 89 89 90 90 89 90 90 91 91 91 90 90 90 90 89 88 88 87 87 88 89 89 89 89 89 90 90 88 89 90 90 89 90
83 83 84 84 83 83 83 84 85 87 87 88 87 89 91 91 91 92 91 90 91 90 90 90 91 90 90 89 88 88 88 89 89 89 89 89 89 90 90 89 88 90
82 82 83 83 82 82 83 83 85 86 87 86 87 87 88 87 88 89 90 90 90 90 90 91 91 92 87 82 81 87 88 89 89 88 88 88 87 87 90 90 90 89
81 82 82 81 82 82 83 82 82 84 84 84 85 85 85 85 86 88 89 91 91 91 91 91 92 83 67 68 70 72 82 86 86 86 86 86 87 86 86 88 90 90
80 81 81 81 81 81 82 82 82 82 82 83 84 84 83 86 85 84 84 87 89 89 90 90 85 66 65 65 67 67 72 81 87 88 88 87 87 87 88 88 89 90
75 78 79 79 80 81 81 81 81 81 81 80 79 80 80 79 79 83 84 85 85 85 85 85 83 64 64 65 65 66 67 76 85 85 86 87 87 87 87 86 86 87
73 74 72 72 73 71 74 78 77 77 77 78 78 77 77 77 79 81 81 81 81 82 81 82 78 65 62 63 64 64 66 73 81 81 84 85 85 86 87 86 86 85
71 72 71 71 70 71 72 71 72 74 74 74 76 77 77 78 78 80 80 80 80 81 81 80 74 59 61 61 62 63 65 74 81 81 82 84 84 85 85 85 85 85
71 70 71 71 70 69 69 69 71 72 72 72 74 75 76 77 77 79 79 79 80 80 79 77 72 57 58 59 59 61 66 80 80 80 81 82 83 83 83 83 83 83
71 70 70 70 70 70 70 69 70 71 73 74 72 72 73 75 77 78 79 78 78 78 77 74 70 60 56 57 58 58 69 80 79 80 80 80 80 81 82 82 82 82
70 70 70 70 69 69 70 69 70 71 72 73 72 72 72 74 75 75 74 74 74 73 74 70 69 62 55 56 57 56 67 75 77 77 78 78 79 80 80 79 80 78
69 69 69 69 69 70 70 69 70 71 72 71 71 71 70 71 72 70 69 70 71 70 69 68 66 63 56 55 55 56 64 73 73 75 75 75 75 75 77 78 78 77
68 69 69 69 69 69 69 69 70 70 70 69 69 68 67 67 67 67 66 66 67 68 68 67 65 64 61 54 54 56 58 69 71 71 71 72 74 74 74 76 76 76

ECMWFNIL_sfc_temp_120.txt.gz
Temp
90 90 90 90 91 91 90 90 92 92 90 93 93 92 92 92 92 92 92 92 91 91 90 89 90 89 93 91 89 90 90 90 91 92 92 92 93 94 95 94 93 94
89 90 89 91 90 90 90 91 91 91 90 90 92 92 92 92 93 92 92 91 92 92 90 91 91 90 90 91 90 90 90 90 90 96 92 91 91 93 94 94 94 94
90 90 91 91 93 92 94 93 92 92 93 94 93 92 94 94 93 91 91 92 92 94 91 90 91 90 91 90 89 90 91 88 89 94 91 90 92 92 92 95 96 94
89 90 93 94 94 94 95 93 92 91 93 93 93 95 94 97 94 93 91 90 91 90 92 92 91 93 92 91 89 90 91 89 91 90 90 91 91 93 93 94 95 95
92 91 92 94 94 93 93 93 94 94 94 93 95 93 92 91 91 93 92 91 90 91 91 91 91 92 90 90 90 90 91 92 91 90 89 89 90 91 94 94 92 92
92 91 91 92 93 92 94 94 93 95 94 95 94 95 94 93 93 93 93 94 95 94 94 94 93 94 94 91 90 90 92 94 93 89 89 88 91 93 96 94 91 90
94 92 93 93 94 94 93 93 94 94 96 96 95 94 95 94 93 92 92 93 94 93 94 92 90 91 92 91 89 89 89 89 90 89 88 90 90 90 93 92 90 89
93 94 94 94 94 95 93 94 95 94 94 94 95 94 94 95 93 95 94 93 94 93 92 93 91 89 92 93 91 89 90 94 93 88 87 88 89 88 89 92 91 89
93 93 94 94 94 95 96 97 96 95 95 94 95 97 95 95 95 95 93 92 92 91 90 91 90 91 92 92 91 90 89 91 94 91 89 90 90 89 90 91 90 89
91 92 94 95 95 96 96 97 98 97 96 95 96 97 97 95 95 95 93 90 91 90 90 90 90 92 92 93 91 91 90 89 89 90 91 91 90 91 92 91 91 90
91 92 93 92 92 94 96 97 98 99 97 96 97 97 97 97 94 94 92 90 93 91 91 90 91 92 91 93 93 93 92 92 91 90 90 90 90 90 89 90 90 91
92 93 92 93 92 92 93 96 98 98 98 97 97 95 95 97 95 95 94 91 91 92 93 91 91 91 91 91 94 95 94 93 92 91 91 91 92 93 92 92 92 91
92 92 93 93 91 90 91 93 96 98 97 97 96 95 95 96 97 94 94 94 92 93 94 92 91 93 90 91 92 93 92 92 94 93 93 93 93 94 95 94 95 94
90 91 91 91 91 90 90 91 94 96 96 96 96 95 96 96 97 96 95 95 94 94 94 93 92 92 91 90 92 90 94 93 93 93 93 94 93 93 94 94 93 95
88 89 90 89 89 89 89 89 90 93 94 94 94 95 98 97 97 97 96 95 96 95 94 95 96 95 94 94 92 90 87 89 85 86 87 85 88 92 95 93 92 95
87 87 87 87 87 87 87 88 90 91 93 92 93 93 93 93 93 94 95 95 95 94 95 96 97 91 78 74 78 89 91 92 91 86 84 85 85 85 88 94 95 94
85 85 85 84 83 84 87 87 87 89 89 89 90 91 91 90 91 92 94 95 95 95 95 97 94 81 68 68 70 72 85 90 91 90 90 89 90 88 86 92 94 95
85 84 82 78 74 76 80 84 87 87 86 87 89 90 88 91 91 91 91 93 95 96 95 95 84 67 65 66 68 68 73 84 92 93 94 92 92 92 92 93 94 95
84 82 80 79 79 77 75 75 82 85 85 86 87 89 89 87 87 87 87 91 93 91 93 91 84 64 65 65 66 66 68 77 90 91 91 92 92 92 91 90 90 91
82 82 79 78 79 78 78 81 82 83 85 87 87 86 85 86 87 87 88 87 88 88 87 86 80 65 62 63 64 64 67 72 86 87 89 91 90 90 92 91 90 89
81 81 80 79 78 78 80 78 77 79 81 82 83 83 81 80 81 86 86 86 86 88 88 85 76 58 61 60 62 62 64 72 85 86 87 89 90 90 89 90 88 89
79 79 78 78 77 75 75 74 76 78 79 81 80 81 80 81 80 84 84 85 86 86 84 81 73 57 59 59 59 61 62 82 86 85 86 87 87 87 84 83 86 86
74 74 74 76 76 73 72 73 73 74 77 80 80 80 79 78 80 83 84 83 82 83 81 76 72 60 57 57 59 57 70 84 83 84 84 83 82 81 79 80 82 84
73 72 72 72 72 72 71 71 72 73 75 77 78 79 78 80 81 79 79 78 78 77 77 75 71 62 56 57 58 58 67 80 82 82 82 81 81 83 84 83 83 82
73 73 72 71 71 72 71 71 72 72 73 74 74 75 75 76 76 75 75 75 75 75 74 75 71 66 56 56 56 57 67 78 78 79 79 79 80 81 82 83 82 82
71 71 71 71 71 70 71 71 71 70 71 71 72 72 71 72 73 74 72 72 73 74 73 73 72 70 63 54 55 57 58 72 75 74 74 76 78 78 79 80 80 81

ECMWFNIL_sfc_temp_123.txt.gz
Temp
91 91 91 90 91 91 91 92 93 93 91 94 94 94 93 93 94 94 94 93 92 92 91 91 91 91 94 92 91 91 91 91 92 93 93 92 93 94 96 95 95 94
91 91 90 92 91 91 91 93 92 93 91 91 94 94 94 93 94 94 93 93 93 93 91 91 92 91 91 92 91 91 90 91 90 96 93 92 92 94 94 95 94 94
92 92 92 92 94 93 95 94 93 93 94 95 95 94 96 95 94 93 93 93 93 95 92 91 92 91 92 91 90 91 92 89 89 94 92 91 92 92 93 95 96 95
91 92 94 95 95 95 95 94 93 93 95 95 95 96 96 99 95 94 92 92 92 92 93 93 93 94 93 92 90 91 91 90 92 91 90 91 92 93 93 94 95 96
93 93 94 95 95 94 94 94 95 95 95 95 96 95 94 93 93 95 93 92 91 92 92 92 92 93 91 91 91 90 91 92 92 90 90 89 91 92 94 94 92 93
91 92 92 94 94 93 96 96 96 97 96 97 96 97 96 95 94 95 95 95 94 94 95 95 94 95 94 92 90 91 91 92 93 90 89 89 91 94 97 95 92 91
95 94 94 95 96 96 95 95 96 96 98 98 96 96 96 96 94 94 94 95 96 92 95 93 92 93 93 92 90 89 90 90 90 90 88 90 90 90 93 93 91 90
95 96 95 95 96 97 95 96 97 96 97 97 97 96 96 97 95 96 95 95 95 95 94 95 92 91 94 93 92 90 91 95 93 89 88 88 89 89 90 93 92 90
95 96 96 96 97 97 98 98 98 97 97 97 97 98 97 96 96 96 94 94 94 94 92 93 92 92 93 92 91 91 90 92 94 91 89 89 90 89 90 91 91 90
94 94 96 97 97 98 97 98 99 99 98 97 98 99 98 96 96 96 95 92 93 92 91 91 91 92 92 92 92 92 91 89 90 90 91 91 91 92 92 91 91 90
94 95 95 94 94 97 98 99 99 99 98 98 98 98 98 97 94 95 93 92 94 93 92 90 92 92 91 92 92 93 92 92 90 90 91 90 91 88 90 90 91 91
94 95 95 95 95 95 97 99 99 99 99 98 98 97 97 99 95 93 95 92 92 93 90 89 90 91 90 91 91 90 92 91 89 87 87 81 85 84 83 84 85 82
95 95 95 95 93 93 94 96 98 100 99 99 98 97 97 98 98 95 92 94 92 93 94 91 91 92 91 90 91 92 89 83 84 82 79 81 81 83 82 82 85 88
92 94 93 92 92 92 92 94 96 98 98 98 98 96 97 97 98 98 96 93 95 94 93 91 89 92 85 83 85 87 91 89 85 84 85 84 85 85 88 88 88 89
90 91 92 92 91 91 90 90 93 94 95 96 95 97 99 98 98 98 96 95 93 90 89 93 94 89 87 87 87 88 88 89 89 89 88 87 88 91 89 89 88 90
89 90 90 90 87 79 78 80 86 91 94 93 94 95 94 94 95 96 97 96 93 89 92 91 89 89 81 78 80 87 89 90 90 88 88 89 88 89 91 92 92 90
87 87 88 84 77 77 76 77 79 83 87 90 91 92 92 91 93 94 95 96 96 94 90 89 85 79 68 69 69 72 86 90 89 87 87 87 87 86 86 86 88 91
86 85 85 81 81 79 79 79 79 80 82 85 87 88 88 93 93 92 91 94 89 80 78 82 79 67 65 66 67 68 73 83 91 92 93 90 86 87 89 87 87 90
85 84 83 83 83 82 82 82 81 79 80 82 85 86 91 89 89 90 91 91 87 80 80 81 78 65 64 64 66 66 68 76 89 90 90 87 90 91 90 87 88 84
85 84 83 83 83 83 83 82 82 81 82 84 85 85 85 87 88 89 89 87 87 83 81 82 77 65 62 62 64 63 66 71 85 87 90 91 89 89 89 89 85 83
84 84 83 82 83 83 83 81 80 81 82 83 84 83 83 84 82 86 87 87 88 81 82 79 73 60 61 61 62 63 63 71 85 86 87 88 88 86 85 85 85 84
82 83 82 83 82 82 81 80 80 79 79 78 79 80 83 85 81 85 85 85 85 79 78 75 72 58 60 61 61 62 63 81 86 85 85 85 85 85 85 84 85 85
80 81 81 81 80 80 79 81 80 78 76 76 80 82 83 81 83 83 77 73 73 74 73 70 70 61 58 59 60 58 70 83 83 85 84 83 84 84 84 84 85 85
78 76 74 76 77 77 77 78 78 77 76 76 75 74 76 79 80 77 75 75 74 74 74 70 69 63 58 58 59 58 68 80 83 83 83 83 82 83 84 84 84 79
73 73 73 74 76 77 78 77 77 77 77 76 73 72 73 74 73 73 73 74 76 75 75 72 71 67 58 57 58 59 68 79 78 79 79 78 80 81 82 83 83 77
74 74 74 75 75 76 76 76 76 75 74 73 72 72 71 71 71 71 71 72 75 75 74 73 71 70 65 56 56 59 60 74 77 76 75 75 78 78 79 82 82 80

ECMWFNIL_sfc_temp_126.txt.gz
Temp
87 87 87 87 87 88 87 87 89 89 86 88 88 89 89 89 89 89 89 88 89 89 87 87 88 88 91 88 88 87 86 87 87 85 86 88 88 90 91 91 90 89
87 87 87 88 87 87 87 89 89 89 87 85 87 85 89 90 92 91 89 88 89 90 88 89 88 88 88 89 87 87 87 87 86 91 88 88 88 90 91 91 91 90
89 89 89 89 90 90 91 90 89 90 91 91 89 87 90 92 91 90 90 90 89 90 88 87 88 88 89 88 87 86 87 86 86 90 88 87 88 88 88 92 92 92
89 89 91 91 91 91 92 90 90 89 91 90 91 92 92 93 91 91 90 90 89 89 89 89 89 90 89 89 87 87 87 87 88 87 87 87 88 89 89 90 91 92
90 90 91 92 92 91 91 91 92 91 91 91 93 91 90 89 90 92 89 89 88 90 89 88 88 89 88 87 87 86 88 88 88 86 86 86 87 88 90 90 88 89
90 89 89 91 91 90 91 92 92 93 92 94 93 94 93 92 91 91 90 90 91 91 91 91 90 91 91 89 87 87 88 89 89 88 86 85 87 89 92 90 87 88
92 91 92 92 93 92 92 91 92 92 93 93 93 93 93 92 91 90 89 90 91 90 92 89 87 88 90 89 87 86 86 87 87 87 85 85 85 87 90 88 86 86
91 92 92 92 92 92 92 92 92 91 91 91 94 93 94 92 90 92 92 92 92 89 89 91 88 87 91 90 87 86 87 89 86 83 83 85 86 85 85 86 86 84
92 91 91 91 92 93 92 93 94 93 93 93 93 95 94 93 91 92 90 90 90 89 87 88 86 89 90 89 88 88 87 86 83 82 81 80 82 83 82 81 82 81
91 91 92 93 93 94 94 95 96 95 95 95 96 96 94 93 93 91 90 87 88 89 90 89 90 89 89 90 89 88 87 84 82 81 82 83 84 83 83 82 82 81
92 92 91 91 91 94 95 96 96 96 95 95 95 95 94 92 90 92 88 87 90 89 89 88 89 89 88 89 90 87 83 82 82 82 83 84 83 83 83 81 82 83
92 93 92 93 92 93 94 96 96 95 93 92 94 94 94 95 92 92 91 88 88 90 90 89 89 89 88 87 88 88 85 84 82 83 84 83 83 84 84 84 84 84
92 92 92 93 90 90 91 94 95 94 93 93 94 93 93 94 95 92 91 91 89 90 91 89 88 89 87 86 87 87 87 85 86 85 85 83 84 85 86 85 86 87
89 90 89 89 89 89 90 91 94 94 93 93 93 92 94 95 94 91 93 93 91 91 90 89 88 88 86 86 87 87 87 88 87 86 85 85 85 85 86 87 87 88
87 88 88 87 88 89 88 88 90 92 93 92 91 92 95 94 94 95 91 91 92 90 88 89 88 88 87 86 87 87 87 87 87 87 86 86 86 88 88 87 87 89
87 86 86 86 86 85 85 86 89 90 91 91 92 93 91 91 90 90 92 92 91 90 89 86 86 82 74 73 75 83 87 88 88 86 86 86 85 85 87 89 89 88
85 85 85 84 83 84 83 83 84 86 86 87 88 90 89 88 90 90 88 87 84 84 84 85 81 75 68 67 69 71 81 85 86 85 85 84 85 84 84 86 87 87
85 85 84 82 82 82 82 82 82 82 83 84 86 89 87 89 89 87 75 79 81 83 83 81 74 65 65 66 67 68 71 78 86 88 89 88 87 86 86 85 84 85
81 81 81 82 81 82 82 82 81 82 82 83 84 85 87 85 85 81 76 76 74 73 75 77 73 64 64 65 65 66 67 75 84 85 86 87 87 86 83 82 81 82
78 78 78 79 80 82 82 82 82 82 83 84 85 84 84 83 80 76 75 75 76 78 75 75 73 65 63 64 64 65 66 72 81 83 86 86 86 85 80 81 81 80
76 77 76 77 77 79 79 80 82 82 83 83 84 84 82 79 78 73 74 75 77 77 76 74 70 61 62 63 62 63 65 73 81 83 84 84 80 81 79 82 82 82
74 76 77 76 75 74 74 76 80 82 82 81 80 79 78 76 76 75 73 75 76 75 72 70 69 60 61 62 61 62 67 80 82 82 82 82 79 80 80 81 81 80
73 72 73 73 73 73 73 76 77 78 79 77 78 77 75 75 74 73 74 74 73 72 68 67 68 61 59 60 61 61 71 80 80 81 80 79 80 80 80 80 79 79
72 71 72 72 72 73 74 74 75 77 78 78 76 74 73 74 73 73 73 73 72 69 67 63 64 63 59 60 60 61 71 76 76 76 76 75 76 78 78 79 78 79
72 72 71 72 73 74 75 73 73 74 76 76 74 72 72 72 73 72 71 70 70 69 70 66 67 65 59 59 60 60 68 74 73 72 72 72 74 75 77 79 73 73
72 71 71 71 72 72 72 73 73 74 74 73 72 71 70 70 70 70 69 69 69 67 67 66 65 65 63 57 58 60 62 72 71 69 69 70 72 74 75 77 75 70

ECMWFNIL_sfc_temp_129.txt.gz
Temp
80 80 80 80 80 81 80 81 82 82 81 81 81 82 81 83 84 83 84 83 83 82 82 81 81 80 85 82 81 81 81 80 80 79 80 81 81 83 86 85 84 82
80 80 81 82 81 82 81 82 82 81 81 81 82 81 83 83 85 84 84 84 83 83 82 82 82 81 81 81 81 81 81 81 80 86 82 82 82 84 85 85 85 83
82 81 82 81 82 82 84 84 83 83 83 84 83 82 84 85 85 84 83 84 84 84 83 82 82 82 82 81 80 81 81 80 79 83 81 81 82 82 81 85 84 85
82 83 84 84 84 84 84 83 84 82 84 83 83 85 86 89 86 85 83 85 83 83 84 84 83 84 83 83 81 81 81 80 81 81 81 81 81 82 81 82 83 84
84 84 85 85 85 84 85 84 85 85 85 85 86 84 84 82 83 85 84 83 83 83 83 83 83 83 83 82 82 81 82 81 81 81 80 80 80 81 84 83 81 82
84 83 83 85 85 84 85 85 86 86 86 86 86 86 86 85 85 84 85 85 85 84 84 84 84 84 84 82 82 81 83 83 82 81 80 79 80 82 87 84 82 81
85 84 85 85 86 86 85 85 85 85 87 88 86 86 87 86 85 85 85 86 86 84 85 83 83 83 83 82 81 81 81 81 80 79 79 79 80 80 82 81 78 78
85 85 86 86 86 86 85 86 86 85 85 87 87 86 88 87 86 86 86 86 86 85 85 84 83 82 84 83 82 81 82 85 80 77 77 78 78 79 79 81 78 77
86 85 86 86 87 87 87 88 88 87 86 85 86 87 87 88 87 87 84 85 85 84 83 83 82 83 83 82 82 81 81 82 81 77 77 77 78 78 79 78 78 77
84 84 86 87 87 87 87 88 88 88 87 88 89 88 87 87 87 87 85 82 83 82 82 83 82 83 84 84 82 82 80 78 77 77 77 77 78 79 79 78 78 77
84 85 85 84 84 85 87 89 89 89 88 89 89 89 88 87 86 86 83 82 85 83 82 83 83 83 83 84 83 81 80 80 78 77 78 78 78 78 80 77 77 77
85 86 85 85 85 85 87 89 90 90 89 89 89 87 86 87 85 86 85 82 83 84 83 83 83 83 82 82 83 81 80 79 78 78 78 78 78 79 78 78 78 77
85 85 86 86 84 84 84 85 88 90 89 88 88 87 86 88 87 86 85 84 84 84 85 83 83 83 81 81 82 82 80 79 79 78 78 78 78 79 80 79 80 80
83 84 83 83 83 83 82 83 85 88 87 87 86 86 85 87 87 86 85 85 82 81 82 83 81 81 80 80 81 81 81 81 79 79 79 78 79 79 80 80 80 81
80 80 81 82 82 82 83 82 83 84 85 84 84 86 89 84 85 83 79 75 74 74 76 75 77 77 78 78 79 81 81 81 80 80 80 79 79 80 80 80 80 82
81 81 80 79 79 80 80 81 83 83 83 83 83 85 84 82 80 81 80 77 75 76 76 77 77 75 73 75 76 77 78 81 82 79 81 80 79 79 81 80 81 81
80 80 79 78 78 78 78 79 80 81 80 80 81 82 80 80 79 77 77 77 76 75 74 73 71 70 68 67 68 73 78 76 78 78 79 79 79 80 78 78 79 80
79 78 77 78 78 77 77 77 78 78 79 79 80 81 79 78 77 76 75 77 76 76 73 71 69 66 64 66 68 69 74 76 78 80 81 80 79 79 78 77 77 79
68 72 75 77 77 77 77 77 77 77 78 78 79 80 78 75 74 75 74 74 74 72 71 71 68 65 64 65 66 67 68 75 77 78 79 79 78 76 75 75 76 77
71 71 73 75 75 76 76 76 76 76 77 78 79 78 75 74 74 73 73 73 73 72 69 68 67 65 63 64 64 65 66 71 76 77 79 78 76 75 74 73 73 74
71 72 72 74 73 74 74 74 76 76 77 77 78 76 74 73 73 72 73 73 71 70 69 68 66 62 62 63 62 64 66 73 75 78 78 76 76 75 73 73 72 73
71 72 72 73 73 72 72 72 73 74 75 75 74 73 73 72 72 73 72 70 68 67 66 65 64 60 61 62 62 65 71 77 75 75 75 75 74 75 74 74 74 72
71 70 70 71 71 71 70 71 72 72 71 72 72 72 72 71 71 72 71 68 66 66 64 63 63 61 60 60 62 66 72 73 72 72 71 71 72 73 74 74 73 71
70 71 71 71 69 69 71 71 71 71 71 73 71 71 70 71 71 70 67 66 65 63 64 62 62 62 59 59 61 64 71 70 70 69 69 70 70 71 72 72 74 77
70 70 69 70 71 71 72 71 71 71 72 71 71 70 70 71 71 67 64 64 65 66 69 63 63 62 59 58 58 61 68 68 68 68 68 68 68 69 70 68 68 71
69 69 69 69 69 69 70 69 70 70 70 70 70 70 69 68 67 65 63 62 63 64 63 63 60 61 61 57 57 58 62 68 66 66 66 67 68 70 68 67 65 64

ECMWFNIL_sfc_temp_132.txt.gz
Temp
77 77 78 78 78 79 78 78 78 79 78 78 78 78 78 80 80 80 81 80 80 80 79 79 79 78 82 78 79 78 78 77 78 78 78 78 78 79 82 81 80 79
77 77 79 78 78 79 78 79 79 79 78 78 79 78 79 80 81 81 81 80 81 81 79 80 79 78 78 78 78 78 77 78 77 82 79 78 78 79 80 80 80 79
77 77 78 78 79 79 81 80 79 79 79 80 80 79 81 81 81 80 81 81 81 81 80 79 80 79 80 79 77 78 79 77 77 78 78 77 78 78 78 80 80 80
77 78 79 80 80 80 80 79 79 79 80 80 80 82 83 85 82 81 80 82 80 80 81 80 80 81 80 80 78 78 79 78 78 78 78 78 79 79 79 78 79 80
79 79 79 80 80 80 80 80 81 80 81 81 82 81 81 80 80 81 80 80 80 80 80 80 80 80 80 79 78 78 78 78 78 77 77 77 77 78 80 80 77 78
79 79 79 80 80 80 80 80 81 82 82 82 82 83 83 82 81 82 81 81 81 81 81 81 81 81 81 80 79 79 80 79 79 77 77 77 78 78 82 78 77 76
81 80 80 81 81 81 81 81 82 82 82 83 82 82 83 83 82 81 82 82 83 82 82 81 80 80 80 80 79 79 79 79 78 77 77 77 77 77 78 77 75 76
81 81 82 82 82 82 81 82 83 82 83 83 83 83 83 84 83 83 83 83 83 82 81 82 80 80 81 80 79 78 79 81 78 75 75 75 75 77 76 79 75 76
82 81 82 82 82 83 83 84 84 84 84 84 84 85 83 84 85 84 82 82 83 82 81 81 80 81 81 80 79 79 79 80 80 76 76 75 76 75 75 76 76 75
81 81 82 83 83 83 83 84 85 86 84 84 85 86 84 84 85 85 83 81 82 82 81 81 80 81 81 80 80 80 79 77 76 76 76 76 76 76 76 75 76 75
81 82 82 82 82 83 84 84 85 85 85 85 85 85 85 84 83 84 82 80 77 72 71 71 71 72 75 78 80 80 79 78 77 75 76 76 76 75 78 75 75 75
81 82 82 82 82 83 83 84 86 85 85 85 86 85 85 83 80 74 73 72 72 73 73 73 73 73 73 73 73 74 76 78 77 76 76 76 75 76 77 76 76 75
82 82 83 83 82 82 82 83 84 86 86 86 86 86 83 78 77 74 73 73 73 74 75 74 74 75 74 74 74 75 76 77 77 76 76 76 76 77 77 76 77 77
82 82 81 82 82 81 81 82 83 85 85 86 86 82 80 80 77 75 76 76 75 75 75 75 74 75 74 74 76 77 77 76 77 76 76 76 76 76 77 77 77 78
80 80 80 80 81 80 80 80 81 83 84 85 83 81 81 79 80 79 76 75 75 74 75 75 75 76 77 76 77 78 78 78 77 77 77 76 76 77 76 76 76 78
79 79 79 79 79 79 79 80 80 81 82 81 80 81 80 80 79 79 78 77 74 74 75 76 76 74 74 74 77 78 78 79 78 78 77 77 76 76 77 76 77 77
77 77 77 78 78 78 78 78 78 78 78 78 78 80 79 78 79 78 77 77 75 75 74 74 73 73 70 67 68 75 77 75 76 76 76 75 76 75 75 76 76 76
73 73 73 74 75 77 77 77 77 77 77 77 77 77 76 77 76 75 75 76 75 74 72 70 69 68 65 67 68 71 77 76 77 78 78 76 75 76 75 75 75 76
70 73 73 74 73 75 77 77 77 77 77 76 76 77 77 75 74 74 74 74 73 71 69 69 68 66 64 67 67 68 71 77 76 76 76 75 75 74 74 74 74 73
72 72 74 75 75 75 75 76 76 76 76 76 76 75 75 74 74 73 73 72 71 70 68 67 67 66 63 65 65 66 67 72 74 76 76 75 74 74 73 72 72 71
72 73 74 74 75 75 75 74 74 73 74 75 75 74 73 73 73 71 72 71 70 68 67 67 66 61 61 62 62 63 64 71 73 76 75 74 73 73 72 72 70 68
72 72 73 73 72 71 72 71 72 73 73 74 73 71 71 71 71 72 70 67 66 65 64 63 63 60 60 61 62 63 68 74 73 73 72 72 72 72 71 70 68 67
71 71 71 71 70 71 70 70 71 71 71 71 71 70 70 70 69 67 65 64 64 63 61 60 61 60 59 59 60 63 70 70 70 71 70 71 70 71 70 69 68 67
70 71 70 70 70 70 70 70 70 70 69 71 69 69 69 68 65 63 63 63 63 62 62 60 60 60 58 57 58 61 67 66 67 69 69 69 69 70 70 70 73 75
70 70 70 70 70 71 71 71 70 69 70 70 69 69 67 64 64 62 61 62 63 63 65 60 60 60 57 57 57 58 62 63 63 64 66 68 68 68 68 67 67 70
70 70 70 70 70 70 70 70 70 69 69 68 67 66 63 62 61 61 61 61 62 61 61 61 59 59 59 56 56 57 60 62 60 61 61 63 67 68 66 65 66 66